[[{"header":{"parameterUnit":"m.s-1","parameterCategory":1,"la1":30.6,"la2":29.2853,"lo1":-89.7004,"lo2":-87.6739,"dy":0.0162,"dx":0.0183,"nx":112,"ny":82,"refTime":"2025-05-24T18:00:00:Z","depth":0,"parameterNumber":2,"parameterNumberName":"U-component_of_WINDS"},"data":[0.0,0.0,0.0,0.0,0.0,0.0,0.0,0.0,0.0,0.0,0.0,0.0,0.0,0.0,0.0,0.0,0.0,0.0,0.0,0.0,0.0,0.0,0.0,0.0,0.0,0.0,0.0,0.0,0.0,0.0,0.0,0.0,0.0,0.0,0.0,0.0,0.0,0.0,0.0,0.0,0.0,0.0,0.0,0.0,0.0,0.0,0.0,0.0,0.0,0.0,0.0,0.0,0.0,0.0,0.0,0.0,0.0,0.0,0.0,0.0,0.0,0.0,0.0,0.0,0.0,0.0,0.0,0.0,0.0,0.0,0.0,0.0,0.0,0.0,0.0,0.0,0.0,0.0,0.0,0.0,0.0,0.0,0.0,0.0,0.0,0.0,0.0,0.0,0.0,0.0,0.0,-3.2218,-3.5645,-3.7739,-3.7739,-3.6948,-3.4729,-3.0691,0.0,0.0,0.0,0.0,0.0,0.0,0.0,0.0,0.0,0.0,0.0,0.0,0.0,0.0,0.0,0.0,0.0,0.0,0.0,0.0,0.0,0.0,0.0,0.0,0.0,0.0,0.0,0.0,0.0,0.0,0.0,0.0,0.0,0.0,0.0,0.0,0.0,0.0,0.0,0.0,0.0,0.0,0.0,0.0,0.0,0.0,0.0,0.0,0.0,0.0,0.0,0.0,0.0,0.0,0.0,0.0,0.0,0.0,0.0,0.0,0.0,0.0,0.0,0.0,0.0,0.0,0.0,0.0,0.0,0.0,0.0,0.0,0.0,0.0,0.0,0.0,0.0,0.0,0.0,0.0,0.0,0.0,0.0,0.0,0.0,0.0,0.0,0.0,0.0,0.0,0.0,0.0,0.0,0.0,0.0,0.0,0.0,0.0,0.0,0.0,0.0,0.0,0.0,0.0,-3.011,-3.5901,-3.7075,-3.7449,-3.7449,-3.615,-3.3858,-3.0379,0.0,0.0,0.0,0.0,0.0,0.0,0.0,0.0,0.0,0.0,0.0,0.0,0.0,0.0,0.0,0.0,0.0,0.0,0.0,0.0,0.0,0.0,0.0,0.0,0.0,0.0,0.0,0.0,0.0,0.0,0.0,0.0,0.0,0.0,0.0,0.0,0.0,0.0,0.0,0.0,0.0,0.0,0.0,0.0,0.0,0.0,0.0,0.0,0.0,0.0,0.0,0.0,0.0,0.0,0.0,0.0,0.0,0.0,0.0,0.0,0.0,0.0,0.0,0.0,0.0,0.0,0.0,0.0,0.0,0.0,0.0,0.0,0.0,0.0,0.0,0.0,0.0,0.0,0.0,0.0,0.0,0.0,0.0,0.0,0.0,0.0,0.0,0.0,0.0,0.0,0.0,0.0,0.0,0.0,0.0,0.0,0.0,0.0,0.0,0.0,0.0,0.0,0.0,-2.8719,-3.1542,-3.6636,-3.7166,-3.7184,-3.7184,-3.5772,-3.3512,-3.0299,-2.7603,0.0,0.0,0.0,0.0,0.0,0.0,0.0,0.0,0.0,0.0,0.0,0.0,0.0,0.0,0.0,0.0,0.0,0.0,0.0,0.0,0.0,0.0,0.0,0.0,0.0,0.0,0.0,0.0,0.0,0.0,0.0,0.0,0.0,0.0,0.0,0.0,0.0,0.0,0.0,0.0,0.0,0.0,0.0,0.0,0.0,0.0,0.0,0.0,0.0,0.0,0.0,0.0,0.0,0.0,0.0,0.0,0.0,0.0,0.0,0.0,0.0,0.0,0.0,0.0,0.0,0.0,0.0,0.0,0.0,0.0,0.0,0.0,0.0,0.0,0.0,0.0,0.0,0.0,0.0,0.0,0.0,0.0,0.0,0.0,0.0,0.0,0.0,0.0,0.0,0.0,0.0,0.0,0.0,0.0,0.0,0.0,0.0,0.0,0.0,0.0,0.0,0.0,-3.1458,-3.3283,-3.6638,-3.7165,-3.72,-3.7007,-3.5407,-3.3178,-3.0265,-2.6981,0.0,0.0,0.0,0.0,0.0,0.0,0.0,0.0,0.0,0.0,0.0,0.0,0.0,0.0,0.0,0.0,0.0,0.0,0.0,0.0,0.0,0.0,0.0,0.0,0.0,0.0,0.0,0.0,0.0,0.0,0.0,0.0,0.0,0.0,0.0,0.0,0.0,0.0,0.0,0.0,0.0,0.0,0.0,0.0,0.0,0.0,0.0,0.0,0.0,0.0,0.0,0.0,0.0,0.0,0.0,0.0,0.0,0.0,0.0,0.0,0.0,0.0,0.0,0.0,0.0,0.0,0.0,0.0,0.0,0.0,0.0,0.0,0.0,0.0,0.0,0.0,0.0,0.0,0.0,0.0,0.0,0.0,0.0,0.0,0.0,0.0,0.0,0.0,0.0,0.0,0.0,0.0,0.0,0.0,0.0,0.0,0.0,0.0,0.0,0.0,0.0,0.0,-3.2213,-3.511,-3.6814,-3.7602,-3.7742,-3.706,-3.4898,-3.2599,-3.0264,-2.6504,0.0,0.0,0.0,0.0,0.0,0.0,0.0,0.0,0.0,0.0,0.0,0.0,0.0,0.0,0.0,0.0,0.0,0.0,0.0,0.0,0.0,0.0,0.0,0.0,0.0,0.0,0.0,0.0,0.0,0.0,0.0,0.0,0.0,0.0,0.0,0.0,0.0,0.0,0.0,0.0,0.0,0.0,0.0,0.0,0.0,0.0,0.0,0.0,0.0,0.0,0.0,0.0,0.0,0.0,0.0,0.0,0.0,0.0,0.0,0.0,0.0,0.0,0.0,0.0,0.0,0.0,0.0,0.0,0.0,0.0,0.0,0.0,0.0,0.0,0.0,0.0,0.0,0.0,0.0,0.0,0.0,0.0,0.0,0.0,0.0,0.0,0.0,0.0,0.0,0.0,0.0,0.0,0.0,0.0,0.0,0.0,0.0,0.0,0.0,0.0,0.0,0.0,-3.1861,-3.4916,0.0,-3.8392,-3.8532,-3.7742,-3.5565,-3.2845,-2.9562,0.0,0.0,0.0,0.0,0.0,0.0,0.0,0.0,0.0,0.0,0.0,0.0,0.0,0.0,0.0,0.0,0.0,0.0,0.0,0.0,0.0,0.0,0.0,0.0,0.0,0.0,0.0,0.0,0.0,0.0,0.0,0.0,0.0,0.0,0.0,0.0,0.0,0.0,0.0,0.0,0.0,0.0,0.0,0.0,0.0,0.0,0.0,0.0,0.0,0.0,0.0,0.0,0.0,0.0,0.0,0.0,0.0,0.0,0.0,0.0,0.0,0.0,0.0,0.0,0.0,0.0,0.0,0.0,0.0,0.0,0.0,0.0,0.0,0.0,0.0,0.0,0.0,0.0,0.0,0.0,0.0,0.0,0.0,0.0,0.0,0.0,0.0,0.0,0.0,0.0,0.0,0.0,0.0,0.0,0.0,0.0,0.0,0.0,0.0,0.0,0.0,0.0,-2.8807,-3.2178,-3.5213,0.0,-3.9059,-3.9164,-3.7865,-3.5636,-3.2774,-2.9123,0.0,0.0,0.0,0.0,0.0,0.0,0.0,0.0,0.0,0.0,0.0,0.0,0.0,0.0,0.0,0.0,0.0,0.0,0.0,0.0,0.0,0.0,0.0,0.0,0.0,0.0,0.0,0.0,0.0,0.0,0.0,0.0,0.0,0.0,0.0,0.0,0.0,0.0,0.0,0.0,0.0,0.0,0.0,0.0,0.0,0.0,0.0,0.0,0.0,0.0,0.0,0.0,0.0,0.0,0.0,0.0,0.0,0.0,0.0,0.0,0.0,0.0,0.0,0.0,0.0,0.0,0.0,0.0,0.0,0.0,0.0,0.0,0.0,0.0,0.0,0.0,0.0,0.0,0.0,0.0,0.0,0.0,0.0,0.0,0.0,0.0,0.0,0.0,0.0,0.0,0.0,0.0,0.0,0.0,0.0,0.0,0.0,0.0,0.0,0.0,0.0,0.0,-2.9702,-3.3441,-3.6389,-3.7953,-3.955,-3.9571,-3.7218,-3.4864,-3.2195,0.0,0.0,0.0,0.0,0.0,0.0,0.0,0.0,0.0,0.0,0.0,0.0,0.0,0.0,0.0,0.0,0.0,0.0,0.0,0.0,0.0,0.0,0.0,0.0,0.0,0.0,0.0,0.0,0.0,0.0,0.0,0.0,0.0,0.0,0.0,0.0,0.0,0.0,0.0,0.0,0.0,0.0,0.0,0.0,0.0,0.0,0.0,0.0,0.0,0.0,0.0,0.0,0.0,0.0,0.0,0.0,0.0,0.0,0.0,0.0,0.0,0.0,0.0,0.0,0.0,0.0,0.0,0.0,0.0,0.0,0.0,0.0,0.0,0.0,0.0,0.0,0.0,0.0,0.0,0.0,0.0,0.0,0.0,0.0,0.0,0.0,0.0,0.0,0.0,0.0,0.0,0.0,0.0,0.0,0.0,0.0,0.0,0.0,0.0,0.0,0.0,0.0,0.0,0.0,-3.3933,-3.7233,-3.8796,-4.034,-4.0323,-3.797,-3.5671,-3.2563,-2.8315,0.0,0.0,0.0,0.0,0.0,0.0,0.0,0.0,0.0,0.0,0.0,0.0,0.0,0.0,0.0,0.0,0.0,0.0,0.0,0.0,0.0,0.0,0.0,0.0,0.0,0.0,0.0,0.0,0.0,0.0,0.0,0.0,0.0,0.0,0.0,0.0,0.0,0.0,0.0,0.0,0.0,0.0,0.0,0.0,0.0,0.0,0.0,0.0,0.0,0.0,0.0,0.0,0.0,0.0,0.0,0.0,0.0,0.0,0.0,0.0,0.0,0.0,0.0,0.0,0.0,0.0,0.0,0.0,0.0,0.0,0.0,0.0,0.0,0.0,0.0,0.0,0.0,0.0,0.0,0.0,0.0,0.0,0.0,0.0,0.0,0.0,0.0,0.0,0.0,0.0,0.0,0.0,0.0,0.0,0.0,0.0,0.0,0.0,0.0,0.0,0.0,0.0,-2.9527,-3.3863,-3.7233,-3.9091,-4.0428,-4.02,-3.7865,-3.5548,-3.2493,-2.8421,0.0,0.0,0.0,0.0,0.0,0.0,0.0,0.0,0.0,0.0,0.0,0.0,0.0,0.0,0.0,0.0,0.0,0.0,0.0,0.0,0.0,0.0,0.0,0.0,0.0,0.0,0.0,0.0,0.0,0.0,0.0,0.0,0.0,0.0,0.0,0.0,0.0,0.0,0.0,0.0,0.0,0.0,0.0,0.0,0.0,0.0,0.0,0.0,0.0,0.0,0.0,0.0,0.0,0.0,0.0,0.0,0.0,0.0,0.0,0.0,0.0,0.0,0.0,0.0,0.0,0.0,0.0,0.0,0.0,0.0,0.0,0.0,0.0,0.0,0.0,0.0,0.0,0.0,0.0,0.0,0.0,0.0,0.0,0.0,0.0,0.0,0.0,0.0,0.0,0.0,0.0,0.0,0.0,0.0,0.0,0.0,0.0,0.0,0.0,0.0,0.0,0.0,-2.9439,-3.3494,-3.674,-3.895,-3.9831,-3.9361,-3.7077,-3.4882,-3.23,-2.9211,0.0,0.0,0.0,0.0,0.0,0.0,0.0,0.0,0.0,0.0,0.0,0.0,0.0,0.0,0.0,0.0,0.0,0.0,0.0,0.0,0.0,0.0,0.0,0.0,0.0,0.0,0.0,0.0,0.0,0.0,0.0,0.0,0.0,0.0,0.0,0.0,0.0,0.0,0.0,0.0,0.0,0.0,0.0,0.0,0.0,0.0,0.0,0.0,0.0,0.0,0.0,0.0,0.0,0.0,0.0,0.0,0.0,0.0,0.0,0.0,-3.3833,0.0,0.0,0.0,0.0,0.0,0.0,0.0,0.0,0.0,0.0,0.0,0.0,0.0,0.0,0.0,0.0,0.0,0.0,0.0,0.0,0.0,0.0,0.0,0.0,0.0,0.0,0.0,0.0,0.0,0.0,0.0,0.0,0.0,0.0,0.0,0.0,0.0,0.0,0.0,0.0,0.0,-2.972,-3.3986,-3.7163,-3.8251,-3.8515,-3.7918,-3.6215,-3.5056,-3.3125,-3.0053,0.0,0.0,0.0,0.0,0.0,0.0,0.0,0.0,0.0,0.0,0.0,0.0,0.0,0.0,0.0,0.0,0.0,0.0,0.0,0.0,0.0,0.0,0.0,0.0,0.0,0.0,0.0,0.0,0.0,0.0,0.0,0.0,0.0,0.0,0.0,0.0,0.0,0.0,0.0,0.0,0.0,0.0,0.0,0.0,0.0,0.0,0.0,0.0,0.0,0.0,0.0,0.0,0.0,0.0,0.0,0.0,0.0,0.0,0.0,0.0,0.0,-3.6142,0.0,0.0,0.0,0.0,0.0,0.0,0.0,0.0,0.0,0.0,0.0,0.0,0.0,0.0,0.0,0.0,0.0,0.0,0.0,0.0,0.0,0.0,0.0,0.0,0.0,0.0,0.0,0.0,0.0,0.0,0.0,0.0,0.0,0.0,0.0,0.0,0.0,0.0,0.0,0.0,-3.0229,-3.4021,-3.6847,-3.7988,-3.7777,-3.7251,-3.6443,-3.4986,-3.3125,-3.0773,-2.8403,0.0,0.0,0.0,0.0,0.0,0.0,0.0,0.0,0.0,0.0,0.0,0.0,0.0,0.0,0.0,0.0,0.0,0.0,0.0,0.0,0.0,0.0,0.0,0.0,0.0,0.0,0.0,0.0,0.0,0.0,0.0,0.0,0.0,0.0,0.0,0.0,0.0,0.0,0.0,0.0,0.0,0.0,0.0,0.0,0.0,0.0,0.0,0.0,0.0,0.0,0.0,0.0,0.0,0.0,-4.4036,-4.646,-4.5201,-4.6144,-4.8413,-4.195,-4.0816,-4.3181,0.0,0.0,0.0,0.0,0.0,0.0,0.0,0.0,0.0,0.0,0.0,0.0,0.0,0.0,0.0,0.0,0.0,0.0,0.0,0.0,0.0,0.0,0.0,0.0,0.0,-3.4429,-3.5031,0.0,0.0,0.0,0.0,0.0,0.0,0.0,0.0,0.0,0.0,0.0,0.0,-3.0984,-3.4108,-3.6513,-3.7777,-3.7233,-3.6796,-3.6796,-3.5022,-3.3231,-3.1703,-3.0159,-2.7806,0.0,0.0,0.0,0.0,0.0,0.0,0.0,0.0,0.0,0.0,0.0,0.0,0.0,0.0,0.0,0.0,0.0,0.0,0.0,0.0,0.0,0.0,0.0,0.0,0.0,0.0,0.0,0.0,0.0,0.0,0.0,0.0,-3.0494,-3.2393,0.0,0.0,0.0,0.0,0.0,0.0,0.0,0.0,0.0,0.0,0.0,0.0,0.0,0.0,-4.3451,-4.6528,-4.7798,-4.7298,-5.0164,-5.0991,-5.0038,-5.0529,-5.0981,-5.1288,-4.9606,0.0,-4.5056,-4.2146,0.0,0.0,0.0,0.0,0.0,0.0,0.0,0.0,0.0,0.0,0.0,0.0,0.0,0.0,0.0,0.0,0.0,0.0,0.0,0.0,0.0,0.0,-3.8212,-3.5802,-3.657,-3.7255,0.0,-3.3389,-3.1228,-2.7646,0.0,0.0,0.0,0.0,0.0,0.0,0.0,0.0,-3.209,-3.4916,-3.6919,-3.713,-3.6426,-3.595,-3.595,-3.5669,-3.4845,-3.3301,-3.1756,-3.0369,-2.9228,-2.4752,0.0,0.0,0.0,0.0,0.0,0.0,0.0,0.0,0.0,0.0,0.0,0.0,0.0,0.0,0.0,0.0,0.0,0.0,0.0,0.0,0.0,0.0,0.0,0.0,0.0,0.0,0.0,0.0,0.0,-3.0443,-3.4116,-3.5355,-3.5989,-3.5921,0.0,0.0,0.0,0.0,0.0,0.0,0.0,0.0,0.0,-4.3484,-4.5094,-4.6547,-4.7875,-4.9837,-5.0856,-5.0991,-5.1981,-5.2606,-5.2818,-5.2683,-5.2895,-5.3318,-5.2472,-5.0971,-4.8933,-4.6394,-4.4014,-4.1853,0.0,0.0,0.0,0.0,0.0,-3.8807,-3.9821,0.0,0.0,0.0,0.0,0.0,0.0,0.0,0.0,0.0,0.0,0.0,0.0,0.0,0.0,-3.8584,-3.9269,-3.9779,-3.8673,-3.7674,-3.5636,0.0,-3.1124,-3.0458,-2.6402,0.0,0.0,0.0,0.0,0.0,-3.3529,-3.5637,-3.7007,-3.7007,-3.6285,-3.5968,-3.6443,-3.5671,-3.4705,-3.3564,-3.2037,-3.0668,-2.9474,-2.6314,-2.4318,0.0,0.0,0.0,0.0,0.0,0.0,0.0,0.0,0.0,0.0,0.0,0.0,0.0,0.0,0.0,0.0,0.0,0.0,0.0,0.0,0.0,0.0,0.0,0.0,0.0,0.0,0.0,0.0,-3.3452,-3.689,-3.8602,-3.9724,-3.9801,0.0,0.0,0.0,0.0,0.0,0.0,-4.3042,-4.3381,-4.5032,-4.8413,-4.974,-5.0991,-5.2309,-5.2914,-5.353,-5.4164,-5.3299,-5.3549,-5.478,-5.4145,-5.4184,-5.4761,-5.4126,-5.3356,-5.2365,-4.9817,-4.7463,-4.5342,-4.4298,-4.3038,-4.1919,-4.2904,-4.2887,-4.2656,-4.4501,-4.4608,-4.3707,-4.2449,0.0,-3.9341,-3.7588,0.0,0.0,0.0,0.0,-3.6921,-3.9067,0.0,-4.0068,-4.0843,-4.1378,-4.1578,-4.1036,-4.0848,-3.9361,0.0,-3.5109,-3.4863,-3.0018,0.0,0.0,0.0,0.0,-3.3476,-3.4811,-3.6164,-3.7007,-3.7007,-3.6461,-3.6355,-3.6954,-3.5759,-3.4635,-3.3863,-3.237,-3.0984,-2.9843,-2.7929,-2.6349,0.0,0.0,0.0,0.0,0.0,0.0,0.0,0.0,0.0,0.0,0.0,0.0,0.0,0.0,0.0,0.0,0.0,0.0,0.0,0.0,0.0,0.0,0.0,0.0,0.0,0.0,0.0,0.0,0.0,0.0,-4.2715,-4.2533,0.0,0.0,0.0,0.0,-4.0354,-4.3393,-4.5654,-4.6605,-4.9625,-5.1818,-5.2856,-5.5261,-5.6599,-5.6676,-5.6714,-5.6772,-5.681,-5.5934,-5.5549,-5.5645,-5.5588,-5.5588,-5.5645,-5.5588,-5.5126,-5.4164,-5.1606,-4.999,-4.901,-4.7823,-4.7279,-4.7174,-4.685,-4.673,-4.6711,-4.6843,-4.6317,-4.5566,-4.5472,-4.3147,-4.0463,-4.1113,-3.9416,0.0,0.0,-3.9814,-4.0472,-4.1103,-4.1836,-4.2428,-4.248,-4.2292,-4.2065,-4.2029,-4.1774,-4.0604,0.0,-3.7426,-3.697,-3.3758,0.0,-3.4144,-3.3388,-3.4021,-3.4863,-3.5634,-3.6478,-3.7007,-3.7007,-3.6954,-3.6954,-3.7007,-3.6233,-3.5443,-3.4688,-3.3178,-3.23,-3.223,-2.9281,-2.7613,-2.7526,-2.3887,0.0,0.0,0.0,0.0,0.0,0.0,0.0,0.0,0.0,0.0,0.0,0.0,0.0,0.0,0.0,0.0,0.0,0.0,0.0,0.0,0.0,0.0,0.0,0.0,0.0,0.0,0.0,0.0,-4.5641,-4.6625,0.0,0.0,-4.5916,-4.634,-4.6264,-4.8383,-5.0529,-5.2452,-5.3203,-5.4203,-5.5588,-5.6541,-5.7003,-5.7003,-5.755,-5.755,-5.7003,-5.6695,-5.6252,-5.5703,-5.5703,-5.5703,-5.5703,-5.5703,-5.553,-5.5164,-5.3722,-5.1921,-4.9982,-4.943,-4.8466,-4.7371,-4.7109,-4.7012,-4.7012,-4.7012,-4.643,-4.5604,-4.5097,-4.4013,-4.2943,-4.3103,-4.24,-4.1627,-4.198,-4.226,-4.2465,-4.2431,-4.2646,-4.2806,-4.2649,-4.251,-4.2412,-4.2412,-4.2166,-4.1595,-4.0501,-3.9946,-3.8834,-3.6199,-3.5988,-3.5918,-3.509,-3.5213,-3.5688,-3.6461,-3.6831,-3.7007,-3.7007,-3.7007,-3.7068,-3.7241,-3.6057,-3.5049,-3.4475,-3.246,-3.1072,-3.0561,-2.8876,-2.7936,-2.789,-2.5961,-2.3821,0.0,0.0,0.0,0.0,0.0,0.0,0.0,0.0,0.0,0.0,0.0,0.0,0.0,0.0,0.0,0.0,0.0,0.0,0.0,0.0,0.0,0.0,0.0,0.0,0.0,0.0,-4.5912,-4.8624,-4.9692,-4.9913,-4.9157,-5.0623,-5.1462,-5.1135,-5.2664,-5.4357,-5.6049,-5.5915,-5.6415,-5.78,-5.8138,-5.8292,-5.8292,-5.855,-5.8415,-5.7838,-5.7272,-5.6695,-5.6126,-5.5818,-5.5703,-5.5703,-5.5703,-5.5703,-5.5665,-5.5126,-5.3496,-5.1286,-5.0708,-4.9569,-4.8204,-4.7937,-4.7838,-4.78,-4.7519,-4.6843,-4.5998,-4.5172,-4.4579,-4.4177,-4.4036,-4.3865,-4.3669,-4.3549,-4.3515,-4.3444,-4.3214,-4.316,-4.3124,-4.2957,-4.2824,-4.2728,-4.2728,-4.2492,-4.2228,-4.2124,-4.1421,-4.0309,-3.85,-3.8184,-3.792,-3.7091,-3.674,-3.6777,-3.7286,-3.7148,-3.7029,-3.7126,-3.7145,-3.7223,-3.7522,-3.6078,-3.5039,-3.472,-3.2451,-3.0873,-3.0341,-2.8925,-2.7994,-2.7644,-2.6165,-2.4914,-2.3861,0.0,0.0,0.0,0.0,0.0,0.0,0.0,0.0,0.0,0.0,0.0,0.0,0.0,0.0,0.0,0.0,0.0,0.0,0.0,0.0,0.0,0.0,0.0,-4.3761,-4.4553,-4.689,-5.1671,-5.1573,-5.1687,-5.3137,-5.4761,-5.5434,-5.4684,-5.6156,-5.7099,-5.7118,-5.7915,-5.8742,-5.9511,-6.0358,-6.08,-6.08,-5.9954,-5.9531,-5.9473,-5.7819,-5.7041,-5.6964,-5.6088,-5.5703,-5.5703,-5.5703,-5.5703,-5.5703,-5.5703,-5.4703,-5.3075,-5.1832,-5.0831,-5.0057,-4.9653,-4.9509,-4.9377,-4.8495,-4.7669,-4.6861,-4.5979,-4.4931,-4.4005,-4.4005,-4.3781,-4.3515,-4.3515,-4.3515,-4.3515,-4.3515,-4.3515,-4.3515,-4.3515,-4.325,-4.3032,-4.3032,-4.2787,-4.253,-4.2187,-4.1849,-4.1398,-4.066,-4.052,-4.0239,-3.9427,-3.862,0.0,-3.8076,-3.7446,-3.7126,-3.7376,-3.7394,-3.7522,-3.7792,-3.6407,-3.549,-3.5452,-3.3206,-3.1858,-3.1804,-2.9569,-2.7902,-2.6974,-2.4516,-2.3967,-2.5423,0.0,0.0,0.0,0.0,0.0,0.0,0.0,0.0,0.0,0.0,0.0,0.0,0.0,0.0,0.0,0.0,0.0,0.0,0.0,0.0,0.0,0.0,-4.4631,-4.5344,-4.83,-5.1074,-5.2864,-5.3441,-5.4036,-5.4927,-5.5992,-5.6799,-5.7223,-5.8223,-5.9088,-5.9723,-5.9973,-6.0204,-6.0435,-6.0685,-6.08,-6.08,-6.055,-6.0127,-5.9492,-5.8434,-5.7607,-5.6964,-5.6088,-5.5703,-5.5703,-5.5703,-5.5703,-5.5703,-5.5703,-5.4703,-5.3152,-5.2494,-5.1358,-5.0057,-4.9653,-4.9509,-4.9377,-4.8495,-4.7669,-4.6861,-4.5979,-4.5024,-4.4192,-4.4036,-4.3865,-4.3686,-4.3549,-4.3515,-4.3515,-4.3515,-4.3515,-4.3515,-4.3515,-4.3427,-4.3375,-4.3375,-4.3105,-4.2863,-4.2769,-4.2514,-4.2113,-4.1411,-4.0854,-4.0239,-3.9427,0.0,0.0,-3.7687,-3.7422,-3.7393,-3.765,-3.7522,-3.7595,-3.8121,-3.6653,-3.5299,0.0,-3.2538,-3.1005,-2.9849,-2.9403,-2.8901,-2.835,-2.708,-2.6325,0.0,0.0,0.0,0.0,0.0,0.0,0.0,0.0,0.0,0.0,0.0,0.0,0.0,0.0,0.0,0.0,0.0,0.0,0.0,0.0,0.0,0.0,-4.557,-4.8222,-4.9116,-5.1403,-5.3636,-5.5332,-5.5984,-5.6704,-5.7745,-5.828,-5.88,-5.9319,-5.9781,-6.0262,-6.0762,-6.08,-6.08,-6.08,-6.08,-6.08,-6.08,-6.08,-6.055,-6.0031,-5.8858,-5.803,-5.7492,-5.6261,-5.5703,0.0,-5.5703,-5.5703,-5.5703,-5.5703,-5.4703,0.0,0.0,0.0,0.0,0.0,-4.9509,-4.9434,-4.8927,-4.7988,-4.6918,-4.6411,-4.5352,-4.4285,-4.4162,-4.4008,-4.3851,-4.3667,-4.3635,-4.3618,-4.3532,-4.3515,-4.3515,-4.3515,-4.3515,-4.3515,-4.3515,-4.3357,-4.316,-4.3032,0.0,0.0,-4.2103,-4.1647,-4.1162,-4.0556,-3.9691,-3.8922,0.0,-3.7801,-3.7559,-3.7966,-3.7862,-3.7967,-3.8437,-3.7283,0.0,0.0,0.0,-3.1493,-2.9424,0.0,0.0,0.0,0.0,0.0,0.0,0.0,0.0,0.0,-2.6852,-2.6061,0.0,0.0,0.0,0.0,0.0,0.0,0.0,0.0,0.0,0.0,0.0,0.0,0.0,0.0,0.0,0.0,-4.9219,-5.2763,-5.3875,-5.4175,-5.5326,-5.8185,-5.8604,-5.9215,-6.0673,-6.0793,-6.08,-6.08,-6.08,-6.08,-6.08,0.0,0.0,0.0,0.0,-6.08,-6.08,-6.08,-6.08,-6.0781,-5.9108,-5.83,-5.8242,-5.6492,-5.5703,-5.5703,-5.5703,-5.5703,-5.5703,-5.5703,-5.4682,-5.308,-5.2538,-5.1389,-4.9992,-4.9623,-4.9509,0.0,0.0,0.0,0.0,-4.7012,-4.5783,-4.43,-4.43,-4.4147,-4.3942,-4.3818,-4.3788,-4.3738,-4.3549,-4.3515,-4.3515,-4.3515,-4.3515,-4.3515,-4.3515,-4.3515,-4.341,-4.3124,-4.3069,-4.2976,-4.2747,-4.2649,-4.2474,-4.2083,-4.0798,0.0,-3.9635,-3.8375,-3.7721,-3.8239,0.0,0.0,-3.8676,-3.797,-3.7162,-3.634,-3.4816,-3.2843,-3.0414,-3.0041,-2.9793,-2.9576,-2.9391,-2.9966,-3.1317,-3.1132,-3.1393,-3.2044,-2.9515,-2.9008,0.0,0.0,0.0,0.0,0.0,0.0,0.0,0.0,0.0,0.0,0.0,0.0,0.0,0.0,0.0,-4.8109,-5.0697,-5.3274,-5.6257,-5.7338,-5.8025,-5.8598,-5.92,-5.9901,-6.0792,-6.0839,-6.08,-6.08,-6.08,-6.08,-6.08,-6.08,0.0,-6.08,-6.08,-6.08,-6.08,-6.08,-6.08,-6.0781,0.0,0.0,-5.8242,-5.6492,-5.5703,-5.5703,-5.5703,-5.5703,-5.5703,-5.5703,-5.4511,-5.2558,-5.1136,-5.0182,-4.9612,-4.9521,-4.9509,-4.9509,-4.9509,-4.8401,-4.7012,-4.7012,-4.5783,-4.43,-4.43,-4.4089,0.0,-4.3804,-4.3686,-4.3549,-4.3515,-4.3515,-4.3515,-4.3515,-4.3515,-4.3515,-4.3515,-4.3515,-4.3479,-4.341,-4.341,-4.3392,-4.3339,-4.2919,-4.2356,-4.1652,-4.0906,-4.0131,-3.9246,-3.8526,-3.8172,-3.829,-3.8307,-3.8405,-3.8676,-3.797,-3.7162,-3.634,-3.5334,-3.4381,-3.3466,-3.3984,-3.3492,-3.1806,-3.1738,-3.1861,-3.216,-3.1969,-3.2577,-3.3861,-3.237,-3.1431,0.0,0.0,0.0,0.0,0.0,0.0,0.0,0.0,0.0,0.0,0.0,-4.0984,0.0,0.0,-4.7937,-5.0492,-5.2663,-5.4981,-5.7628,-5.8812,-5.9378,-5.9359,-6.0011,-6.0568,-6.0862,-6.0831,-6.08,-6.08,-6.08,-6.08,-6.08,-6.08,-6.08,-6.08,-6.08,-6.08,-6.08,-6.08,-6.08,-6.0781,-5.9511,-5.8684,-5.8261,-5.6953,-5.6107,-5.5703,-5.5703,-5.5703,-5.5626,-5.478,-5.3774,-5.2577,-5.0793,-4.9843,-4.9509,-4.9509,-4.9509,-4.9509,-4.9509,-4.8401,-4.7012,-4.7012,-4.5809,-4.4401,-4.4401,-4.424,-4.4026,-4.3931,-4.3767,-4.3635,-4.3532,-4.3515,-4.3515,-4.3515,-4.3515,-4.3515,-4.3515,-4.3515,-4.3515,-4.3515,-4.3515,-4.3515,-4.3515,-4.325,-4.2849,-4.2301,-4.1669,-4.1034,-4.0456,-3.9512,-3.8955,-3.9088,-3.8739,-3.8549,-3.8692,-3.797,-3.7327,-3.6942,-3.5848,-3.515,-3.4914,-3.5025,-3.4624,-3.3582,-3.3547,-3.3547,-3.3547,-3.3349,-3.3849,-3.4927,-3.4231,-3.3654,0.0,0.0,0.0,0.0,0.0,0.0,0.0,0.0,-3.9513,-4.1908,-4.3646,-4.5334,-4.7314,-4.9434,-5.1272,-5.2375,-5.4564,-5.6763,-5.8584,-5.9639,-6.0173,-6.0042,-6.0676,-6.107,-6.0962,-6.0864,-6.0804,-6.08,-6.08,-6.08,-6.08,-6.08,-6.08,-6.08,-6.08,-6.08,-6.08,-6.08,-6.08,-6.0781,-5.9915,-5.9088,-5.828,-5.7396,-5.6522,-5.5703,-5.5703,-5.5703,-5.5568,-5.4068,-5.3223,-5.2728,-5.1051,-5.0071,-4.9612,-4.9521,-4.9509,-4.9509,-4.9509,-4.8495,-4.7218,-4.7049,-4.5965,-4.4688,-4.4538,-4.4401,-4.427,-4.4051,-4.3897,-4.3754,-4.3549,-4.3515,-4.3515,-4.3515,-4.3515,-4.3515,-4.3515,-4.3515,-4.3515,-4.3515,-4.3515,-4.3515,-4.3515,-4.3515,-4.341,-4.3142,-4.245,-4.1885,-4.1614,-4.0412,-3.9584,-3.9601,-3.9061,-3.8707,-3.8707,-3.8102,-3.7731,-3.7731,-3.666,-3.6007,-3.594,-3.5474,-3.5131,-3.4916,-3.4916,-3.4916,-3.4916,-3.4749,-3.5054,-3.5787,-3.5627,-3.5506,-3.5378,-3.5495,-3.6108,-3.779,-3.8217,-3.9596,0.0,0.0,-4.5609,-4.7372,-4.8502,-4.9205,-4.9318,-5.019,-5.1633,-5.3869,-5.5768,-5.7603,-5.9407,-6.0472,-6.0825,-6.0175,-6.0736,-6.115,-6.1089,-6.0962,-6.0856,-6.0793,-6.08,-6.08,-6.08,-6.08,-6.08,-6.08,-6.08,-6.08,-6.08,-6.08,-6.08,-6.0781,-5.9915,-5.9088,-5.828,-5.7396,-5.6522,-5.5703,-5.5703,-5.5703,-5.5626,-5.4722,-5.378,-5.2797,-5.1825,-5.086,-4.9992,-4.9623,-4.9509,-4.9509,-4.9509,-4.887,-4.795,-4.7237,-4.6354,-4.5435,-4.4707,-4.4401,-4.427,-4.4051,-4.3897,-4.3754,-4.3549,-4.3515,-4.3515,-4.3515,-4.3515,-4.3515,-4.3515,-4.3515,-4.3515,-4.3515,-4.3515,-4.3515,-4.3515,-4.3515,-4.3497,-4.3444,-4.2784,-4.1911,-4.0957,-4.0269,-3.9495,-3.8573,-3.8604,-3.8707,-3.8707,-3.8615,-3.8579,-3.8579,-3.8202,-3.7851,-3.7557,-3.7255,-3.6657,-3.5706,-3.5669,-3.5669,-3.5669,-3.565,-3.6054,-3.6827,-3.6808,-3.6588,-4.0076,-4.0857,0.0,0.0,-4.4501,-4.5896,-4.8358,-4.8993,-4.9541,-5.1225,-5.1455,-5.1482,-5.191,-5.2593,-5.36,0.0,-5.6763,-5.8491,-6.0296,-6.0522,-6.0399,-6.013,-5.9915,-5.9956,-6.0315,-6.0682,-6.0867,-6.0812,-6.08,-6.08,-6.08,-6.08,-6.08,-6.08,-6.08,-6.08,-6.08,-6.08,-6.08,-6.08,-6.0435,-5.9569,-5.83,-5.7915,-5.6992,-5.5703,-5.5703,-5.5703,-5.5645,-5.4818,-5.4237,-5.3692,-5.2181,-5.1342,-5.086,-5.0005,-4.9682,-4.9653,-4.9536,-4.8927,-4.8063,-4.7256,-4.6411,-4.5547,-4.4726,-4.4401,-4.4285,-4.4192,-4.4055,-4.3881,-4.3719,-4.3669,-4.3652,-4.3532,-4.3515,-4.3515,-4.3515,-4.3515,-4.3515,-4.3515,-4.3515,-4.3515,-4.3515,-4.3515,-4.3515,-4.3515,-4.3221,-4.2674,-4.1748,-4.1431,-4.0767,-3.9372,-3.892,-3.8707,-3.8707,-3.8707,-3.8707,-3.8707,-3.8453,-3.8138,-3.7809,-3.7523,-3.712,-3.6515,-3.6496,-3.6496,-3.6496,-3.6496,-3.6673,-3.7007,-3.7007,-3.6891,-4.2969,0.0,0.0,-4.7221,-4.8996,-5.051,-5.0683,-5.1534,-5.2483,-5.3194,-5.3028,-5.2789,-5.2932,-5.3555,0.0,-5.5791,-5.7187,-5.8809,-6.0836,-6.0267,-5.9673,-5.9723,-5.8991,-5.8741,-5.9441,-6.0191,-6.0701,-6.0819,-6.0827,-6.0816,-6.08,-6.08,-6.08,-6.08,-6.08,-6.08,-6.08,-6.08,-6.08,-6.08,-6.08,-5.9915,-5.828,-5.78,-5.6896,-5.5703,-5.5703,-5.5703,-5.5645,-5.5068,-5.4703,-5.4346,-5.2681,-5.1889,-5.1526,-5.0335,-4.9848,-4.9764,-4.9567,-4.9096,-4.8382,-4.735,-4.658,-4.5866,-4.482,-4.443,-4.4344,-4.4314,-4.4192,-4.4055,-4.3899,-4.3851,-4.3818,-4.3666,-4.3617,-4.3583,-4.3583,-4.3549,-4.3515,-4.3515,-4.3515,-4.3515,-4.3515,-4.3515,-4.3515,-4.3515,-4.3515,-4.3221,-4.2396,-4.1901,-4.1185,-4.001,-3.9184,-3.8707,-3.8707,-3.8707,-3.8707,-3.8707,-3.8453,-3.8189,-3.7949,-3.7667,-3.7411,-3.7223,-3.7164,-3.7106,-3.7106,-3.7046,-3.7007,-3.7007,-3.7007,-3.7007,0.0,0.0,-4.7539,-4.7578,-4.9492,-5.156,-5.2347,-5.3806,-5.4496,-5.2797,-5.3086,-5.3126,-5.1405,-5.1791,-5.3177,-5.5595,-5.6757,-5.8243,-6.0835,-5.9777,-5.8762,-5.8822,-5.8137,-5.7935,0.0,-5.9517,-6.0282,-6.0843,-6.091,-6.0867,-6.0812,-6.08,-6.08,-6.08,-6.08,-6.08,-6.08,-6.08,-6.08,-6.08,-6.08,-5.9915,-5.8242,-5.6549,-5.5742,-5.5703,-5.5703,-5.5703,-5.5703,-5.5665,-5.5203,-5.4414,-5.35,-5.2635,-5.1748,-5.0548,-4.9965,-4.9764,-4.9567,-4.9471,-4.9189,-4.7537,-4.6993,-4.6655,-4.4989,-4.4501,-4.4473,-4.4344,-4.43,-4.4255,-4.4036,-4.3989,-4.3989,-4.3989,-4.3899,-4.3788,-4.3788,-4.3652,-4.3515,-4.3515,-4.3515,-4.3515,-4.3515,-4.3515,-4.3515,-4.3515,-4.3515,-4.3221,-4.2396,-4.0928,-3.9937,-3.9916,-3.9184,-3.8707,-3.8707,-3.8707,-3.8707,-3.8707,-3.8453,-3.8307,-3.829,-3.7966,-3.7774,-3.7774,-3.7505,-3.7394,-3.7392,-3.7126,-3.7007,-3.7007,-3.7007,-3.7007,0.0,0.0,-5.0254,-5.084,-5.25,-5.404,-5.422,-5.4726,-5.4972,-5.4274,-5.3436,-5.2498,-5.1347,-5.1767,-5.294,-5.4894,-5.6424,-5.8261,-6.0851,-6.0298,-5.943,-5.8868,-5.8564,0.0,0.0,0.0,0.0,-6.0935,-6.045,-6.0371,-6.0972,-6.0899,-6.0875,-6.0875,-6.0875,-6.0842,-6.08,-6.08,-6.08,-6.0781,-5.9665,-5.8858,-5.8242,-5.6492,-5.5703,-5.5703,-5.5703,-5.5703,-5.5703,-5.5703,-5.553,-5.5164,-5.376,-5.3029,-5.2556,-5.091,-5.0163,-4.9952,-4.9627,-4.9509,-4.9302,-4.8176,-4.7443,-4.6805,-4.5641,-4.4914,-4.4501,-4.4444,-4.443,-4.4401,-4.4237,-4.4192,-4.4162,-4.4036,-4.3976,-4.3929,-4.3929,-4.38,-4.3703,-4.3703,-4.3583,-4.3515,-4.3515,-4.3515,-4.3515,-4.3515,-4.3039,-4.28,-4.3057,-4.1699,-4.0708,-4.0708,-3.9974,-3.9276,-3.8762,-3.8707,-3.8707,-3.8707,-3.863,-3.8485,-3.8307,-3.8189,-3.8036,-3.7791,-3.7703,-3.7667,-3.7667,-3.7393,-3.7279,-3.726,-3.7087,-3.7007,-4.8733,-5.0559,-5.1756,-5.3262,-5.4452,-5.5245,-5.5154,-5.5145,-5.487,-5.3855,-5.2756,-5.163,-5.0484,-5.0661,-5.1735,-5.4024,-5.5622,-5.7543,-6.0395,-6.0129,-5.9535,-5.9283,-5.8739,0.0,0.0,0.0,0.0,-6.0999,-6.0586,-6.049,-6.1079,-6.1012,-6.0972,-6.0972,-6.0972,-6.092,-6.085,-6.085,-6.0827,-6.0781,-5.9108,-5.83,-5.8242,-5.6492,-5.5703,-5.5703,-5.5703,-5.5703,-5.5703,-5.5703,-5.5703,-5.5549,-5.4203,-5.3472,-5.3009,-5.1429,-5.0574,-5.0158,-4.975,-4.9567,-4.9358,-4.8476,-4.7838,-4.7218,-4.6054,-4.5341,-4.4871,-4.4576,-4.4501,-4.4487,-4.4401,-4.4373,-4.4344,-4.4203,-4.4143,-4.4116,-4.4116,-4.3976,-4.3883,-4.3883,-4.3736,-4.3618,-4.3618,-4.3549,-4.3515,-4.3515,-4.3057,-4.291,-4.3441,-4.2359,-4.1534,-4.1534,-4.0818,-4.012,-3.9591,-3.957,-3.957,-3.957,-3.957,-3.9472,-3.9311,-3.9019,-3.8773,-3.8553,-3.8179,-3.7984,-3.7984,-3.7595,-3.7411,-3.7393,-3.7126,-3.7148,-5.0754,-5.1525,-5.2194,-5.4726,-5.5287,-5.5208,-5.5196,-5.5042,-5.4188,-5.1711,-5.1027,-5.0367,0.0,0.0,-4.9512,-5.2956,-5.4349,-5.6194,-5.9613,-5.9438,-5.9224,0.0,0.0,0.0,0.0,0.0,0.0,-6.1108,0.0,-6.1128,-6.1117,-6.1108,-6.1108,-6.1108,-6.1108,-6.1032,-6.089,-6.091,-6.0856,-6.0781,-5.9108,-5.83,-5.8242,-5.6492,-5.5703,-5.5703,-5.5703,-5.5703,-5.5703,-5.5703,-5.5703,-5.5607,-5.4799,-5.3972,-5.3067,-5.2004,-5.1094,-5.0329,-4.9952,-4.9682,-4.9374,-4.8532,-4.8194,-4.7838,-4.6242,-4.5716,-4.5472,-4.4707,-4.4501,-4.4501,-4.4501,-4.4501,-4.4501,-4.4501,-4.4401,-4.4314,-4.4314,-4.4162,-4.402,-4.402,-4.3897,-4.3804,-4.3804,-4.3651,-4.3513,-4.3515,-4.3515,-4.3515,-4.3515,-4.2818,-4.2359,-4.2304,-4.1625,-4.1132,-4.1095,-4.1095,-4.1095,-4.1095,-4.1095,-4.1095,-4.1095,-4.0377,-3.9955,-3.9955,-3.8964,-3.8432,-3.8451,-3.7847,-3.7556,-3.7537,-3.727,-3.7499,-5.1514,-5.3208,-5.4553,-5.5867,-5.569,-5.5196,-5.5207,-5.365,-5.2007,-5.1342,-4.8667,-4.6307,0.0,0.0,0.0,-5.0314,-5.3183,0.0,-5.9613,-6.0468,0.0,-6.0157,0.0,-6.0431,-6.0191,-6.0599,0.0,0.0,-6.0723,-6.0596,-6.1295,-6.122,-6.1167,-6.1167,-6.1167,-6.1088,-6.089,-6.0853,-6.0816,-6.0781,-5.9108,-5.83,-5.8242,-5.6492,-5.5703,-5.5703,-5.5703,-5.5703,-5.5703,-5.5703,-5.5703,-5.5607,-5.4799,-5.3972,-5.3096,-5.2171,-5.1212,-5.0371,-5.012,-4.9885,-4.9673,-4.9288,-4.8326,-4.7237,-4.6805,-4.581,-4.4763,-4.4557,-4.4501,-4.4501,-4.4501,-4.4501,-4.4501,-4.4501,-4.4473,-4.4458,-4.4458,-4.4344,-4.4222,-4.4222,-4.407,-4.3961,-4.3961,-4.391,-4.383,-4.3736,-4.3719,-4.3669,-4.3515,-4.3331,-4.2947,-4.2359,-4.2121,-4.1754,-4.115,-4.1095,-4.1095,-4.1095,-4.1095,-4.1095,-4.1095,-4.0893,-4.0799,-4.0799,-4.0533,-4.0392,-4.0392,-4.0016,-3.9716,-3.9477,-3.921,-3.9058,-5.2937,-5.4383,-5.5366,-5.6243,-5.5799,-5.4962,-5.4238,-5.2311,-5.0229,-4.8705,-4.6176,0.0,0.0,0.0,0.0,0.0,0.0,0.0,-5.8564,-6.039,-6.1218,0.0,-6.1167,0.0,-6.0813,-6.1268,-6.1584,0.0,-6.0986,-6.0882,-6.1373,-6.1337,-6.1295,-6.1295,-6.1295,-6.1186,-6.0992,-6.0897,-6.0839,-6.0781,-5.9108,-5.83,-5.8242,-5.6492,-5.5703,-5.5703,0.0,-5.5703,-5.5703,-5.5703,-5.5703,-5.5665,-5.5203,-5.428,-5.3145,-5.2654,-5.1642,-5.0492,-5.0302,-5.0108,-4.9871,-4.9578,-4.8607,-4.7462,-4.7124,-4.6092,-4.4946,-4.4594,-4.4501,-4.4501,-4.4501,-4.4501,-4.4501,-4.4501,-4.4501,-4.4501,-4.4501,-4.4444,-4.4373,-4.4314,-4.4207,-4.4097,-4.402,-4.4005,-4.3974,-4.3897,-4.3853,-4.3771,-4.3652,-4.3549,-4.3331,-4.2873,-4.2818,-4.2635,-4.2194,-4.2158,-4.2158,-4.2158,-4.2158,-4.2158,-4.2158,-4.1809,-4.1627,-4.1627,-4.1279,-4.1095,-4.1095,-4.0825,-4.0528,-4.0199,-4.005,-3.9915,-5.4451,-5.5176,-5.5452,-5.6207,-5.5574,-5.4388,-5.2938,-5.0901,-4.8422,-4.5292,0.0,-4.2327,-4.0707,0.0,-4.4035,-4.6696,0.0,-5.453,-5.7366,-5.9768,-6.1276,-6.1393,-6.1464,-6.151,-6.151,-6.1561,-6.1615,-6.1609,-6.156,-6.1489,-6.1428,-6.1428,-6.1421,-6.1421,-6.1393,-6.1299,-6.1117,-6.0972,-6.0877,-6.0808,-5.91,-5.83,-5.8245,-5.6503,-5.5703,-5.5703,0.0,0.0,-5.5703,-5.5703,-5.5703,-5.5684,-5.5568,-5.4587,-5.3203,-5.3068,-5.2049,-5.0663,-5.0459,-5.029,-5.0082,-4.9667,-4.8863,-4.7913,-4.7218,-4.6317,-4.5397,-4.4688,-4.4501,-4.4501,-4.4501,-4.4501,-4.4501,-4.4501,-4.4501,-4.4501,-4.4501,-4.4501,-4.4473,-4.4344,-4.4329,-4.4266,-4.4097,-4.4067,-4.4067,-4.4036,-4.3947,-4.3853,-4.3804,-4.3617,-4.3515,-4.3515,-4.3515,-4.3515,-4.3515,-4.3515,-4.3515,-4.3515,-4.3515,-4.3515,-4.3515,-4.2818,-4.2451,-4.2451,-4.1772,-4.1407,-4.1407,-4.1204,-4.0889,-4.058,-4.0581,-4.0654,-5.4698,-5.5578,-5.6218,-5.6368,-5.4658,-5.2894,-5.2713,-4.9064,0.0,0.0,0.0,-3.8979,-3.7948,-3.9723,0.0,-4.5686,0.0,0.0,0.0,0.0,-6.0584,0.0,0.0,0.0,0.0,0.0,0.0,0.0,0.0,0.0,-6.1569,-6.1505,-6.1487,-6.1487,-6.1315,-6.1228,-6.1175,-6.0993,-6.0951,-6.1022,-5.9177,-5.8336,-5.8334,-5.6526,-5.5703,-5.5703,0.0,0.0,-5.5703,-5.5703,-5.5703,-5.5626,-5.4972,-5.4087,-5.3106,-5.2385,-5.1529,-5.0663,-5.0459,-5.0382,-5.0271,-4.9871,-4.8602,-4.7181,-4.7049,-4.5927,-4.467,-4.4538,-4.4501,-4.4501,-4.4501,-4.4501,-4.4501,-4.4501,-4.4501,-4.4501,-4.4501,-4.4501,-4.4501,-4.4473,-4.4473,-4.444,-4.4411,-4.4411,-4.4368,-4.4252,-4.4226,-4.4104,-4.3837,-4.3617,-4.3515,-4.3515,-4.3515,-4.3515,-4.3515,-4.3515,-4.3515,-4.3515,-4.3515,-4.3515,-4.3515,-4.3369,-4.3277,-4.3277,-4.3149,-4.3075,-4.3075,-4.3041,-4.2848,-4.2503,-4.2503,-4.2425,-5.4757,-5.5668,-5.6345,-5.6345,-5.4412,-5.2169,-5.0912,0.0,0.0,0.0,0.0,-3.6833,-3.5965,0.0,0.0,0.0,0.0,0.0,0.0,0.0,0.0,0.0,0.0,0.0,0.0,0.0,0.0,0.0,0.0,0.0,-6.1552,-6.1487,-6.1458,-6.1489,-6.1362,-6.1268,-6.12,-6.1095,-6.1032,-6.0973,-5.9234,-5.8392,-5.8291,-5.6587,-5.5766,-5.5703,0.0,0.0,-5.5703,-5.5703,-5.5703,-5.5607,-5.4799,-5.3972,-5.3087,-5.2212,-5.1395,-5.0702,-5.0584,-5.05,-5.0371,-5.0163,-4.884,-4.7297,-4.7188,-4.5978,-4.4632,-4.4542,-4.4584,-4.4632,-4.4528,-4.4578,-4.4632,-4.451,-4.4501,-4.4501,-4.4501,-4.4501,-4.4501,-4.4501,-4.4501,-4.4501,-4.4501,-4.4501,-4.4487,-4.4416,-4.4344,-4.4211,-4.3929,-4.3751,-4.3618,-4.3515,-4.3515,-4.3515,-4.3515,-4.3515,-4.3515,-4.3515,-4.3515,-4.3515,-4.3515,-4.3515,-4.3515,-4.3515,-4.3515,-4.3515,-4.3515,-4.3515,-4.3339,-4.2995,-4.3178,-4.3013,-5.4723,-5.5644,-5.6253,-5.6078,-5.4102,-5.1544,-4.9,-4.5114,0.0,0.0,-3.6522,-3.5658,-3.4743,0.0,0.0,0.0,0.0,0.0,0.0,0.0,0.0,0.0,0.0,0.0,0.0,0.0,0.0,0.0,0.0,0.0,0.0,-6.1479,-6.1462,-6.1515,-6.1466,-6.1354,-6.1252,-6.1209,-6.1044,-6.0713,-5.9204,-5.8365,-5.8062,-5.657,-5.5846,-5.5745,0.0,0.0,0.0,-5.5703,-5.5703,-5.5588,-5.4607,-5.3799,-5.3068,-5.2029,-5.1241,-5.0712,-5.0712,-5.0613,-5.0459,-5.0459,-4.9282,-4.78,-4.7447,-4.6272,-4.4997,-4.471,-4.4725,-4.4757,-4.4605,-4.4725,-4.4808,-4.4605,-4.4524,-4.4501,-4.4501,-4.4501,-4.4501,-4.4501,-4.4501,-4.4501,-4.4501,-4.4501,-4.4501,-4.4501,-4.4416,-4.4285,-4.4082,-4.3979,-4.3835,-4.3615,-4.3531,-4.3515,-4.3515,-4.3515,-4.3515,-4.3515,-4.3515,-4.3515,-4.3515,-4.3515,-4.3515,-4.3515,-4.3515,-4.3515,-4.3515,-4.3515,-4.3356,-4.3124,-4.3303,-4.3178,-5.4621,-5.5678,-5.6117,-5.532,-5.3202,-5.0648,-4.8107,0.0,0.0,-3.7741,-3.6558,-3.5689,-3.4694,-3.6646,0.0,0.0,0.0,0.0,0.0,0.0,0.0,0.0,0.0,0.0,0.0,0.0,0.0,0.0,0.0,0.0,0.0,-6.1588,-6.1573,-6.1591,-6.1525,-6.1452,-6.1386,-6.126,-6.0845,-6.016,-5.903,-5.8136,-5.7447,-5.6375,-5.5885,-5.5876,0.0,0.0,0.0,-5.5703,-5.5703,-5.553,-5.3933,-5.328,-5.301,-5.1395,-5.077,-5.0712,-5.0712,-5.0683,-5.0673,-5.0673,-4.9765,-4.8559,-4.78,-4.6765,-4.5773,-4.52,-4.4919,-4.4802,-4.4789,-4.4919,-4.5014,-4.4808,-4.4632,-4.4501,-4.4501,-4.4501,-4.4501,-4.4501,-4.4501,-4.4501,-4.4501,-4.4501,-4.4501,-4.4501,-4.4487,-4.443,-4.43,-4.4255,-4.4195,-4.3974,-4.3682,-4.3515,-4.3515,-4.3515,-4.3515,-4.3515,-4.3515,-4.3515,-4.3515,-4.3515,-4.3515,-4.3515,-4.3515,-4.3515,-4.3515,-4.3515,-4.3479,-4.3444,-4.3178,-4.3178,-5.3199,-5.4534,-5.5491,-5.5147,-5.3117,-5.0267,-4.6718,0.0,-3.944,-3.6325,-3.5405,-3.502,-3.4622,-3.583,-3.8017,0.0,0.0,0.0,0.0,0.0,0.0,0.0,0.0,0.0,0.0,0.0,0.0,0.0,0.0,0.0,0.0,-6.1571,-6.1559,-6.1598,-6.1572,-6.1525,-6.1458,-6.0883,-6.0404,-6.0026,-5.8641,-5.7699,-5.7195,-5.6355,-5.5895,-5.5776,0.0,0.0,0.0,-5.5703,-5.5415,-5.4857,-5.3664,-5.2876,-5.2269,-5.1125,-5.0712,-5.0712,-5.0712,-5.101,-5.1337,-5.0866,-5.068,-5.0399,-4.893,-4.7495,-4.6294,-4.5925,-4.546,-4.5079,-4.5003,-4.4943,-4.4895,-4.4808,-4.4646,-4.4501,-4.4501,-4.4501,-4.4501,-4.4501,-4.4501,-4.4501,-4.4501,-4.4501,-4.4501,-4.4501,-4.4501,-4.4458,-4.4314,-4.43,-4.4207,-4.402,-4.3816,-4.3686,-4.3686,-4.3566,-4.3515,-4.3515,-4.3515,-4.3515,-4.3515,-4.3515,-4.3515,-4.3515,-4.3515,-4.3515,-4.3515,-4.3515,-4.3515,-4.3497,-4.3375,-4.3375,-5.1713,-5.3195,-5.4247,-5.4001,-5.238,-4.9671,0.0,0.0,-3.9235,-3.5787,-3.5042,-3.5013,-3.4993,-3.5495,-3.6854,0.0,0.0,-4.252,0.0,0.0,0.0,0.0,0.0,0.0,0.0,0.0,0.0,0.0,0.0,0.0,0.0,0.0,-6.1559,-6.1598,-6.1596,-6.1458,-6.1154,-6.0512,-5.9894,-5.9316,-5.8143,-5.7322,-5.6805,-5.6244,-5.5903,0.0,0.0,0.0,0.0,-5.5703,-5.5222,-5.4414,-5.3549,-5.2673,-5.1788,-5.0991,-5.0712,-5.0712,-5.0712,-5.1068,-5.1452,-5.0875,-5.1087,-5.1298,-4.9967,-4.8532,-4.7216,-4.6645,-4.5912,-4.5292,-4.5258,-4.5026,-4.4827,-4.487,-4.4699,-4.4501,-4.4501,-4.4501,-4.4501,-4.4501,-4.4501,-4.4501,-4.4501,-4.4501,-4.4501,-4.4501,-4.4501,-4.4473,-4.4373,-4.4358,-4.4296,-4.4158,-4.4042,-4.3915,-4.3867,-4.3734,-4.3632,-4.3583,-4.3583,-4.3566,-4.3496,-4.3515,-4.3515,-4.3515,-4.3515,-4.3515,-4.3515,-4.3515,-4.3515,-4.3497,-4.3392,-4.3357,-5.0378,-5.1866,-5.2236,-5.1434,-5.0622,-4.8683,0.0,-4.1772,-4.0195,-3.6711,-3.5993,-3.5974,-3.5898,-3.5886,-3.6458,-3.8147,-3.982,0.0,0.0,0.0,0.0,0.0,0.0,0.0,0.0,0.0,0.0,0.0,0.0,0.0,0.0,0.0,-6.16,-6.16,-6.16,-6.1193,-6.0324,-6.0243,-5.9367,-5.7726,-5.7645,-5.7107,-5.6199,-5.6071,0.0,0.0,0.0,0.0,0.0,-5.5703,-5.5222,-5.4414,-5.3549,-5.2673,-5.1788,-5.0991,-5.0712,-5.0712,-5.0712,-5.0712,-5.0712,-5.0712,-5.0712,-5.0712,-5.0693,-4.993,-4.8771,-4.7309,-4.611,-4.5342,-4.5531,-4.5197,-4.4846,-4.5057,-4.4783,-4.4501,-4.4501,-4.4501,-4.4501,-4.4501,-4.4501,-4.4501,-4.4501,-4.4501,-4.4501,-4.4501,-4.4501,-4.4501,-4.4501,-4.4501,-4.4501,-4.4501,-4.4373,-4.4207,-4.402,-4.4005,-4.3945,-4.3804,-4.3788,-4.3703,-4.3515,-4.3515,-4.3515,-4.3515,-4.3515,-4.3515,-4.3515,-4.3515,-4.3515,-4.3479,-4.316,-4.3013,-4.5956,-4.7504,-4.8661,-4.7293,-4.7178,-4.622,-4.1714,-4.0957,-4.0214,-3.6711,-3.5993,-3.5995,-3.5961,-3.5975,-3.7105,-4.0569,-4.1539,0.0,0.0,0.0,0.0,0.0,0.0,0.0,0.0,0.0,0.0,0.0,0.0,0.0,0.0,0.0,-6.1677,-6.1677,-6.1677,-6.1242,-6.0373,-5.9758,-5.8864,-5.7691,-5.7069,-5.6583,-5.6205,-5.6114,0.0,0.0,0.0,0.0,0.0,-5.5703,-5.4876,-5.3587,-5.3318,-5.2337,-5.1048,-5.0789,-5.0712,-5.0712,-5.0712,-5.1048,-5.1433,-5.0875,-5.1068,-5.1414,-5.0856,-5.0057,-4.8971,-4.7356,-4.6223,-4.5513,-4.5577,-4.531,-4.5014,-4.5072,-4.4783,-4.4501,-4.4501,-4.4501,-4.4501,-4.4501,-4.4501,-4.4501,-4.4501,-4.4501,-4.4501,-4.4501,-4.4501,-4.4501,-4.4501,-4.4501,-4.4501,-4.4501,-4.4473,-4.4368,-4.4207,-4.4067,-4.3974,-4.3945,-4.3851,-4.3771,-4.3703,-4.3566,-4.3515,-4.3515,-4.3515,-4.3515,-4.3515,-4.3515,-4.3515,-4.3497,-4.3392,-4.3339,-4.2463,-4.4051,-4.5233,-4.4269,-4.4403,-4.3831,-4.0234,-3.9824,-3.9414,-3.6579,-3.5995,-3.5996,-3.5992,-3.6242,-3.7234,-3.9595,-4.1291,0.0,0.0,0.0,0.0,0.0,0.0,0.0,0.0,0.0,0.0,0.0,0.0,0.0,0.0,0.0,-6.1543,-6.1211,-6.1211,-6.08,-5.9953,-5.9066,-5.816,-5.7272,-5.6676,-5.6348,-5.6236,0.0,0.0,0.0,0.0,0.0,0.0,-5.5703,-5.4914,-5.3664,-5.3337,-5.2356,-5.1125,-5.0808,-5.0712,-5.0712,-5.0712,-5.1029,-5.1356,-5.0856,-5.1029,-5.1356,-5.0837,-4.9856,-4.8682,-4.7644,-4.6509,-4.5594,-4.5594,-4.539,-4.5154,-4.5106,-4.4846,-4.4592,-4.4528,-4.4501,-4.4501,-4.4501,-4.4501,-4.4501,-4.4501,-4.4501,-4.4501,-4.4501,-4.4501,-4.4501,-4.4501,-4.4501,-4.4501,-4.4501,-4.4501,-4.4473,-4.4387,-4.4266,-4.4158,-4.4131,-4.4023,-4.3915,-4.3804,-4.3686,-4.3566,-4.3515,-4.3515,-4.3515,-4.3515,-4.3515,-4.3515,-4.3515,-4.3515,-4.3515,0.0,-4.1086,-4.1832,-4.1773,-4.1897,-4.1375,-3.8808,-3.8379,0.0,-3.6191,-3.5859,-3.5957,-3.6074,-3.6696,-3.708,-3.6709,-3.9871,0.0,0.0,0.0,0.0,0.0,0.0,0.0,0.0,0.0,0.0,0.0,0.0,0.0,0.0,0.0,0.0,-6.0332,-6.0254,-5.9863,-5.9101,-5.8234,-5.7395,-5.6601,-5.6471,-5.6377,-5.6292,0.0,0.0,0.0,0.0,0.0,0.0,-5.5695,-5.5184,-5.4337,-5.353,-5.2626,-5.1712,-5.0971,-5.0712,-5.0712,-5.0712,-5.0712,-5.0712,-5.0712,-5.0712,-5.0712,-5.0712,-4.9471,-4.8105,-4.8105,-4.6894,-4.5594,-4.5594,-4.5448,-4.5272,-4.514,-4.4955,-4.4764,-4.4551,-4.4515,-4.4501,-4.4501,-4.4501,-4.4501,-4.4501,-4.4501,-4.4501,-4.4501,-4.4501,-4.4501,-4.4501,-4.4501,-4.4501,-4.4501,-4.4501,-4.4501,-4.4501,-4.4501,-4.4444,-4.4314,-4.43,-4.4165,-4.3853,-4.382,-4.3719,-4.3531,-4.3532,-4.3532,-4.3532,-4.3515,-4.3515,-4.3515,-4.3515,-4.3515,-3.3902,0.0,-3.7105,-3.5836,-3.701,-3.7812,0.0,-3.6172,-3.6914,-3.4512,-3.4531,-3.541,-3.6758,-3.7148,-3.8515,-4.2265,0.0,0.0,0.0,0.0,0.0,0.0,0.0,0.0,0.0,0.0,0.0,0.0,0.0,0.0,0.0,0.0,0.0,-5.9512,-5.8848,-5.8398,-5.8203,-5.7988,-5.7441,-5.6601,-5.656,-5.6481,-5.637,0.0,0.0,0.0,0.0,0.0,-5.5846,-5.5745,-5.4838,-5.3491,-5.328,-5.2299,-5.0952,-5.077,-5.0712,-5.0712,-5.0712,-5.0712,-5.0712,-5.0712,-5.0712,-5.0712,-5.0712,-4.9471,-4.8105,-4.8105,-4.6894,-4.5594,-4.5594,-4.5448,-4.5292,-4.5262,-4.503,-4.4802,-4.4751,-4.4605,-4.4501,-4.4501,-4.4501,-4.4501,-4.4501,-4.4501,-4.4501,-4.4501,-4.4501,-4.4501,-4.4501,-4.4501,-4.4501,-4.4501,-4.4501,-4.4501,-4.4501,-4.4501,-4.4487,-4.4458,-4.4358,-4.427,-4.418,-4.4039,-4.3926,-4.3894,-4.3767,-4.3719,-4.3738,-4.3566,-4.3515,-4.3515,-4.3515,-4.3515,-3.1393,-3.392,-3.6315,-3.5378,-3.6517,-3.7477,-3.6063,-3.6243,-3.6306,-3.488,0.0,0.0,-3.7051,0.0,0.0,0.0,0.0,0.0,0.0,0.0,0.0,0.0,0.0,0.0,0.0,0.0,0.0,0.0,0.0,0.0,0.0,0.0,0.0,0.0,-5.8144,-5.789,-5.789,-5.75,-5.707,-5.6601,-5.6601,-5.6533,-5.6404,0.0,0.0,0.0,0.0,0.0,-5.5885,-5.5756,-5.4953,-5.376,-5.3356,-5.2395,-5.1202,-5.0846,-5.0712,-5.0712,-5.0712,-5.0712,-5.0712,-5.0712,-5.0712,-5.0712,-5.0712,-4.9471,-4.8105,-4.8105,-4.6894,-4.5594,-4.5594,-4.5513,-4.5419,-4.5322,-4.5167,-4.4995,-4.4833,-4.4706,-4.4605,-4.4528,-4.4501,-4.4501,-4.4501,-4.4501,-4.4501,-4.4501,-4.4501,-4.4501,-4.4501,-4.4501,-4.4501,-4.4501,-4.4501,-4.4501,-4.4501,-4.4501,-4.4501,-4.4501,-4.443,-4.4358,-4.43,-4.4192,-4.4082,-4.4005,-4.3929,-4.3881,-4.3881,-4.3781,-4.3732,-4.3732,-4.3732,-4.3732,-3.1165,-3.4304,-3.7303,-3.6596,-3.7469,-3.8396,-3.7995,0.0,0.0,0.0,0.0,0.0,0.0,-3.9101,0.0,0.0,0.0,0.0,0.0,0.0,0.0,0.0,0.0,0.0,0.0,0.0,0.0,0.0,0.0,0.0,0.0,0.0,0.0,0.0,-5.7695,-5.7695,-5.7695,-5.6973,-5.6601,-5.6601,-5.6601,-5.6534,-5.6416,-5.6359,0.0,0.0,0.0,0.0,-5.5913,-5.5807,-5.5187,-5.4253,-5.3492,-5.2597,-5.1635,-5.0952,-5.0712,-5.0712,-5.0712,-5.0712,-5.0712,-5.0712,-5.0712,-5.0712,-5.0712,-4.9471,-4.8105,-4.8105,-4.6894,-4.5594,-4.5594,-4.5594,-4.5559,-4.539,-4.5322,-4.5231,-4.4936,-4.4858,-4.4802,-4.4578,-4.4556,-4.4542,-4.4515,-4.4501,-4.4501,-4.4501,-4.4501,-4.4501,-4.4501,-4.4501,-4.4501,-4.4501,-4.4501,-4.4501,-4.4501,-4.4501,-4.4501,-4.4501,-4.4501,-4.4458,-4.4329,-4.4329,-4.4237,-4.4082,-4.4051,-4.4051,-4.4051,-4.402,-4.4005,-4.4005,-4.4005,-4.4005,-3.3327,-3.6031,-3.7366,-3.3776,-3.5711,-3.7912,-3.5704,-3.6135,0.0,0.0,0.0,0.0,0.0,0.0,0.0,0.0,0.0,0.0,0.0,0.0,0.0,0.0,0.0,0.0,0.0,0.0,0.0,0.0,0.0,0.0,0.0,0.0,0.0,0.0,0.0,-5.6797,-5.6797,-5.668,-5.6601,-5.6601,-5.6601,-5.6559,-5.6476,-5.6419,-5.6359,0.0,0.0,-5.6064,-5.6056,-5.5984,-5.4977,-5.3475,-5.334,-5.2309,-5.0856,-5.075,-5.0712,-5.0712,-5.0712,-5.0712,-5.0712,-5.0712,-5.0712,-5.0712,-5.0712,-4.9471,-4.8105,-4.8105,-4.6894,-4.5594,-4.5594,-4.5594,-4.5586,-4.5568,-4.5419,-4.5292,-4.5222,-4.5132,-4.4991,-4.4783,-4.4745,-4.4712,-4.4542,-4.4501,-4.4501,-4.4501,-4.4501,-4.4501,-4.4501,-4.4501,-4.4501,-4.4501,-4.4501,-4.4501,-4.4501,-4.4501,-4.4501,-4.4501,-4.4501,-4.4501,-4.4473,-4.4473,-4.444,-4.4411,-4.4296,-4.4237,-4.4237,-4.4082,-4.4005,-4.4005,-4.4005,-4.4005,-3.2691,-3.5029,-3.663,-3.5168,-3.8053,-4.0926,-3.9684,-3.9331,-3.9133,0.0,0.0,0.0,0.0,0.0,0.0,0.0,0.0,0.0,0.0,0.0,0.0,0.0,0.0,0.0,0.0,0.0,0.0,0.0,0.0,0.0,0.0,0.0,0.0,0.0,0.0,0.0,-5.6601,-5.6601,-5.6601,-5.6601,-5.6601,-5.656,-5.6502,-5.6428,-5.6395,0.0,0.0,-5.585,-5.5435,-5.5349,-5.4265,-5.2715,-5.2715,-5.1917,-5.0801,-5.0767,-5.0749,-5.0749,-5.0712,-5.0712,-5.0712,-5.0712,-5.0712,-5.0712,-5.0712,-4.9471,-4.8105,-4.8105,-4.6894,-4.5594,-4.5594,-4.5594,-4.5594,-4.5594,-4.5522,-4.5429,-4.5322,-4.5197,-4.5045,-4.4833,-4.4725,-4.4605,-4.4515,-4.4501,-4.4501,-4.4501,-4.4592,-4.4659,-4.4659,-4.4764,-4.477,-4.4672,-4.4659,-4.4619,-4.4515,-4.4501,-4.4501,-4.4501,-4.4501,-4.4501,-4.4501,-4.4501,-4.4501,-4.4501,-4.4444,-4.4416,-4.4416,-4.431,-4.4281,-4.4281,-4.4281,-4.4281,-3.2186,-3.4008,-3.5853,-3.7333,-4.0213,-4.2786,-4.3117,-4.2207,-4.14,0.0,0.0,0.0,0.0,0.0,0.0,0.0,0.0,0.0,0.0,0.0,0.0,0.0,0.0,0.0,0.0,0.0,0.0,0.0,0.0,0.0,0.0,0.0,0.0,0.0,0.0,0.0,-5.6601,-5.6601,-5.6601,-5.6601,-5.6601,-5.6561,-5.6511,-5.6238,-5.611,-5.61,-5.5709,-5.5193,-5.4604,-5.4514,-5.3584,-5.2225,-5.2225,-5.1668,-5.089,-5.0808,-5.0801,-5.0784,-5.0721,-5.0712,-5.0712,-5.0712,-5.0712,-5.0712,-5.0712,-4.9625,-4.8394,-4.8394,-4.7201,-4.5864,-4.5652,-4.5594,-4.5594,-4.5594,-4.5594,-4.5559,-4.541,-4.5281,-4.5162,-4.4948,-4.4789,-4.468,-4.4646,-4.4646,-4.4646,-4.4646,-4.4757,-4.4858,-4.4858,-4.4991,-4.5014,-4.4821,-4.4796,-4.4725,-4.4528,-4.4501,-4.4501,-4.4501,-4.4501,-4.4501,-4.4501,-4.4501,-4.4501,-4.4501,-4.4501,-4.4501,-4.4501,-4.4501,-4.4501,-4.4501,-4.4501,-4.4501,-3.3429,-3.4443,-3.5391,-3.8693,-3.9742,-4.0388,-4.1942,-4.2194,0.0,-4.42,0.0,0.0,0.0,0.0,0.0,0.0,0.0,0.0,0.0,0.0,0.0,0.0,0.0,0.0,0.0,0.0,0.0,0.0,0.0,0.0,0.0,0.0,0.0,0.0,0.0,0.0,-5.6601,-5.6601,-5.6601,-5.6601,-5.6601,-5.6601,-5.6562,-5.5686,-5.5298,-5.523,-5.4274,-5.3838,-5.3779,-5.3779,-5.3191,-5.2295,-5.2295,-5.1729,-5.089,-5.0808,-5.0801,-5.0784,-5.0721,-5.0712,-5.0712,-5.0712,-5.0712,-5.0712,-5.0712,-5.0048,-4.9317,-4.9317,-4.8105,-4.6624,-4.5806,-4.5594,-4.5594,-4.5594,-4.5594,-4.5605,-4.5577,-4.5568,-4.5495,-4.5302,-4.5243,-4.5199,-4.5072,-4.5068,-4.5068,-4.5068,-4.508,-4.508,-4.508,-4.5091,-4.5014,-4.4821,-4.4796,-4.4725,-4.4528,-4.4501,-4.4501,-4.4501,-4.4501,-4.4501,-4.4501,-4.4501,-4.4501,-4.4501,-4.4501,-4.4501,-4.4501,-4.4501,-4.4501,-4.4501,-4.4501,-4.4501,-3.1646,-3.3297,-3.5084,-3.7489,-3.9276,0.0,0.0,-4.3802,-4.4894,-4.6113,-4.6814,0.0,0.0,0.0,0.0,0.0,0.0,0.0,0.0,0.0,0.0,0.0,0.0,0.0,0.0,0.0,0.0,0.0,0.0,0.0,0.0,0.0,0.0,0.0,0.0,0.0,0.0,-5.5781,-5.5527,-5.5,-5.6074,-5.6328,-5.5781,-5.5376,-5.4908,-5.4375,-5.391,-5.3384,-5.2892,-5.2892,-5.2394,-5.1612,-5.1612,-5.1399,-5.1075,-5.0966,-5.0906,-5.0841,-5.0794,-5.0721,-5.0712,-5.0712,-5.0712,-5.0712,-5.0712,-5.0087,-4.9298,-4.874,-4.7778,-4.6808,-4.649,-4.6009,-4.5594,-4.5594,-4.5594,-4.5594,-4.5594,-4.5504,-4.54,-4.5322,-4.522,-4.5162,-4.5114,-4.5103,-4.5103,-4.5103,-4.5164,-4.521,-4.521,-4.5321,-4.5321,-4.5135,-4.4924,-4.4725,-4.4528,-4.4501,-4.4501,-4.4501,-4.4501,-4.4501,-4.4501,-4.4501,-4.4501,-4.4501,-4.4501,-4.4501,-4.4501,-4.4501,-4.4501,-4.4501,-4.4501,-4.4501,-3.0943,-3.2769,-3.4987,-3.7003,0.0,0.0,-4.3394,-4.4986,-4.6327,-4.7473,-4.8214,0.0,0.0,0.0,0.0,0.0,0.0,0.0,0.0,0.0,0.0,0.0,0.0,0.0,0.0,0.0,0.0,0.0,0.0,0.0,0.0,0.0,0.0,0.0,0.0,0.0,0.0,-5.4883,-5.459,-5.4004,-5.5215,-5.5469,-5.4883,-5.4566,-5.4064,-5.3478,-5.3079,-5.2572,-5.2018,-5.2018,-5.1707,-5.1202,-5.1202,-5.1202,-5.1171,-5.1043,-5.0969,-5.0929,-5.085,-5.0793,-5.0758,-5.075,-5.074,-5.0731,-5.0721,-5.0289,-4.9683,-4.9086,-4.8125,-4.7278,-4.7278,-4.6432,-4.5594,-4.5594,-4.5594,-4.5594,-4.5594,-4.5495,-4.5381,-4.5381,-4.5311,-4.5258,-4.5258,-4.5258,-4.5258,-4.5258,-4.5331,-4.5381,-4.5381,-4.5513,-4.5522,-4.5322,-4.5065,-4.4808,-4.4605,-4.4592,-4.4565,-4.4496,-4.4501,-4.4501,-4.4501,-4.4501,-4.4501,-4.4501,-4.4501,-4.4501,-4.4501,-4.4501,-4.4501,-4.4501,-4.4501,-4.4501,-3.1988,-3.3215,-3.5142,0.0,0.0,0.0,-4.4035,-4.5433,-4.6507,-4.825,0.0,-4.8599,0.0,0.0,0.0,0.0,0.0,0.0,0.0,0.0,0.0,0.0,0.0,0.0,0.0,0.0,0.0,0.0,0.0,0.0,0.0,0.0,0.0,0.0,0.0,0.0,0.0,-5.3984,-5.3984,-5.3984,-5.3984,-5.3984,-5.3965,-5.3097,-5.2663,-5.2545,-5.1593,-5.1206,-5.1202,-5.1202,-5.1202,-5.1202,-5.1202,-5.1202,-5.1171,-5.1043,-5.0997,-5.099,-5.0929,-5.0898,-5.089,-5.0827,-5.0801,-5.0784,-5.0721,-5.0693,-5.0693,-5.0693,-4.9433,-4.8105,-4.8086,-4.6855,-4.5614,-4.5594,-4.5594,-4.5594,-4.5594,-4.5594,-4.5594,-4.5594,-4.5594,-4.5594,-4.5594,-4.5594,-4.5594,-4.5594,-4.5594,-4.5594,-4.5594,-4.5594,-4.5522,-4.5322,-4.5175,-4.5014,-4.4808,-4.4796,-4.4706,-4.4515,-4.4501,-4.4501,-4.4501,-4.4501,-4.4501,-4.4501,-4.4501,-4.4501,-4.4501,-4.4501,-4.4501,-4.4501,-4.4496,-4.4515,-3.0492,-3.2749,0.0,-3.7139,0.0,0.0,0.0,-4.6307,0.0,0.0,0.0,0.0,0.0,0.0,0.0,0.0,0.0,0.0,0.0,0.0,0.0,0.0,0.0,0.0,0.0,0.0,0.0,0.0,0.0,0.0,0.0,0.0,0.0,0.0,0.0,0.0,0.0,0.0,-5.2773,-5.2168,-5.2168,-5.248,-5.3086,-5.2824,-5.2331,-5.1664,-5.1335,-5.1206,-5.1202,-5.1202,-5.1202,-5.1202,-5.1202,-5.1202,-5.1196,-5.1159,-5.1082,-5.0997,-5.0976,-5.0952,-5.0898,-5.0874,-5.0866,-5.0858,-5.0852,-5.0801,-5.0641,-5.0024,-4.945,-4.874,-4.7567,-4.6894,-4.6355,-4.5748,-4.5594,-4.5594,-4.5594,-4.5594,-4.5594,-4.5594,-4.5594,-4.5594,-4.5594,-4.5594,-4.5594,-4.5594,-4.5594,-4.5594,-4.5594,-4.5594,-4.5522,-4.5322,-4.5262,-4.5186,-4.5014,-4.487,-4.477,-4.4706,-4.4578,-4.4501,-4.4501,-4.4501,-4.4501,-4.4501,-4.4501,-4.4501,-4.4501,-4.4646,-4.4712,-4.4706,-4.4865,-4.4919,-3.2046,-3.4591,0.0,-3.9256,-4.1976,-4.4773,-4.6599,0.0,0.0,0.0,0.0,0.0,0.0,0.0,0.0,0.0,0.0,0.0,0.0,0.0,0.0,0.0,0.0,0.0,0.0,0.0,0.0,0.0,0.0,0.0,0.0,0.0,0.0,0.0,0.0,0.0,0.0,0.0,0.0,-5.1406,-5.1406,-5.168,-5.2187,-5.2184,-5.1878,-5.134,-5.123,-5.1206,-5.1202,-5.1202,-5.1202,-5.1202,-5.1202,-5.1202,-5.1202,-5.1202,-5.1159,-5.1082,-5.1082,-5.1056,-5.1007,-5.0959,-5.0952,-5.0925,-5.0906,-5.0866,-5.0737,-5.0196,-4.9787,-4.9166,-4.7835,-4.7238,-4.6758,-4.5823,-4.5594,-4.5594,-4.5594,-4.5594,-4.5594,-4.5594,-4.5594,-4.5594,-4.5594,-4.5594,-4.5594,-4.5594,-4.5594,-4.5594,-4.5594,-4.5594,-4.5559,-4.5429,-4.5419,-4.5351,-4.5186,-4.5076,-4.4936,-4.4808,-4.4685,-4.4578,-4.4501,-4.4501,-4.4501,-4.4501,-4.4578,-4.4619,-4.4619,-4.4808,-4.4919,-4.4919,-4.5038,-4.5103,-3.5251,0.0,0.0,-4.2845,-4.3661,0.0,-4.7764,0.0,0.0,0.0,0.0,0.0,0.0,0.0,0.0,0.0,0.0,0.0,0.0,0.0,0.0,0.0,0.0,0.0,0.0,0.0,0.0,0.0,0.0,0.0,0.0,0.0,0.0,0.0,0.0,0.0,0.0,0.0,0.0,0.0,-5.1406,-5.1406,-5.1406,-5.1406,-5.1404,-5.1384,-5.1264,-5.1206,-5.1202,-5.1202,-5.1202,-5.1202,-5.1202,-5.1202,-5.1202,-5.1202,-5.1202,-5.1202,-5.1202,-5.1202,-5.1171,-5.105,-5.103,-5.1016,-5.0944,-5.0914,-5.0914,-5.0914,-5.0275,-4.9405,-4.8604,-4.7753,-4.6846,-4.5847,-4.5612,-4.5603,-4.5594,-4.5594,-4.5594,-4.5594,-4.5594,-4.5594,-4.5594,-4.5594,-4.5594,-4.5594,-4.5594,-4.5594,-4.5594,-4.5594,-4.5594,-4.5594,-4.5594,-4.5541,-4.5342,-4.5312,-4.5167,-4.4846,-4.4808,-4.4725,-4.4524,-4.4515,-4.4515,-4.4528,-4.4712,-4.4808,-4.4821,-4.5014,-4.5106,-4.5106,-4.5148,-4.5159,-3.4517,-3.6692,0.0,0.0,-4.5001,-4.6671,0.0,0.0,0.0,0.0,0.0,0.0,0.0,0.0,0.0,0.0,0.0,0.0,0.0,0.0,0.0,0.0,0.0,0.0,0.0,0.0,0.0,0.0,0.0,0.0,0.0,0.0,0.0,0.0,0.0,0.0,-5.1406,-5.1406,-5.1406,0.0,-5.1406,-5.1406,-5.1406,-5.1406,-5.1379,-5.1327,-5.1246,-5.1206,-5.1202,-5.1202,-5.1202,-5.1202,-5.1202,-5.1202,-5.1202,-5.1202,-5.1202,-5.1202,-5.1202,-5.1202,-5.1196,-5.1165,-5.1159,-5.1159,-5.114,-5.1063,-5.0976,-5.0976,-5.0313,-4.9417,-4.8604,-4.7746,-4.6868,-4.5977,-4.5723,-4.566,-4.5612,-4.5594,-4.5594,-4.5594,-4.5594,-4.5594,-4.5594,-4.5594,-4.5594,-4.5594,-4.5594,-4.5594,-4.5594,-4.5594,-4.5594,-4.5594,-4.5594,-4.5577,-4.555,-4.54,-4.522,-4.5057,-4.4883,-4.477,-4.4751,-4.4578,-4.4565,-4.4719,-4.4789,-4.487,-4.5045,-4.5186,-4.5251,-4.5251,-4.5419,-4.5495,-3.4466,0.0,0.0,-4.3743,0.0,0.0,0.0,0.0,0.0,0.0,0.0,0.0,0.0,0.0,0.0,0.0,0.0,0.0,0.0,0.0,0.0,0.0,0.0,0.0,0.0,0.0,0.0,0.0,0.0,0.0,0.0,0.0,0.0,0.0,0.0,0.0,-5.1406,-5.1016,-5.082,-5.082,-5.082,-5.082,-5.084,-5.1211,-5.1381,-5.1345,-5.1305,-5.1269,-5.121,-5.121,-5.1203,-5.1202,-5.1202,-5.1202,-5.1202,-5.1202,-5.1202,-5.1202,-5.1202,-5.1192,-5.121,-5.121,-5.1215,-5.1243,-5.1243,-5.1181,-5.1103,-5.1103,-5.0448,-4.9543,-4.871,-4.7857,-4.6972,-4.6054,-4.58,-4.5734,-4.5688,-4.5668,-4.5654,-4.5654,-4.562,-4.5594,-4.5594,-4.5629,-4.5646,-4.5603,-4.5629,-4.5646,-4.5594,-4.5594,-4.5594,-4.5594,-4.5594,-4.5594,-4.5594,-4.5504,-4.5371,-4.5208,-4.5109,-4.5019,-4.4943,-4.4833,-4.4833,-4.4931,-4.4931,-4.5026,-4.5197,-4.5361,-4.5438,-4.5438,-4.5559,-4.5594,-3.407,0.0,-4.0849,-4.4812,-4.5905,0.0,0.0,0.0,0.0,0.0,0.0,0.0,0.0,0.0,0.0,0.0,0.0,0.0,0.0,0.0,0.0,0.0,0.0,0.0,0.0,0.0,0.0,0.0,0.0,0.0,0.0,0.0,0.0,0.0,0.0,-5.0293,-5.0957,-5.0312,-4.998,-4.998,-4.998,-4.998,-5.0,-5.0664,-5.113,-5.1409,-5.1409,-5.126,-5.0992,-5.1167,-5.1128,-5.0992,-5.1147,-5.1194,-5.1202,-5.1202,-5.1189,-5.1206,-5.1206,-5.1206,-5.123,-5.123,-5.1241,-5.1297,-5.1297,-5.1268,-5.1187,-5.1038,-5.0369,-4.9496,-4.8605,-4.7725,-4.6879,-4.609,-4.5867,-4.5834,-4.5794,-4.5757,-4.5731,-4.5731,-4.5668,-4.5618,-4.5618,-4.5684,-4.57,-4.5635,-4.5668,-4.5684,-4.5629,-4.5603,-4.5594,-4.5594,-4.5594,-4.5594,-4.5594,-4.5594,-4.5513,-4.5312,-4.5302,-4.5241,-4.514,-4.5106,-4.5136,-4.5203,-4.5151,-4.5197,-4.5352,-4.5513,-4.5594,-4.5594,-4.5594,-4.5594,0.0,0.0,-4.1412,0.0,0.0,0.0,0.0,0.0,0.0,0.0,0.0,0.0,0.0,0.0,0.0,0.0,0.0,0.0,0.0,0.0,0.0,0.0,0.0,0.0,0.0,0.0,0.0,0.0,0.0,0.0,0.0,0.0,-4.9154,-4.9155,-4.9101,0.0,-4.9238,-4.9121,-4.9062,-4.9062,-4.9062,-4.9062,-4.9082,-4.918,-5.0037,-5.1409,-5.1409,-5.0922,-5.0212,-5.0972,-5.0805,-5.0159,-5.0903,-5.119,-5.1202,-5.1202,-5.1194,-5.1195,-5.1195,-5.1242,-5.1288,-5.1288,-5.1291,-5.1297,-5.1297,-5.1291,-5.1122,-5.0369,-4.953,-4.8651,-4.7703,-4.6832,-4.6133,-4.603,-4.598,-4.5947,-4.5834,-4.58,-4.5793,-4.5793,-4.5778,-4.5771,-4.5771,-4.5786,-4.5786,-4.5778,-4.5727,-4.57,-4.5692,-4.5646,-4.5594,-4.5594,-4.5594,-4.5594,-4.5594,-4.5594,-4.5513,-4.5312,-4.5302,-4.5292,-4.5272,-4.5173,-4.5237,-4.5532,-4.5361,-4.5371,-4.5568,-4.5586,-4.5594,-4.5594,-4.5594,-4.5594,-3.2978,-3.6782,-4.0356,0.0,0.0,0.0,0.0,0.0,0.0,0.0,0.0,0.0,0.0,0.0,0.0,0.0,0.0,0.0,0.0,0.0,0.0,0.0,0.0,0.0,0.0,0.0,0.0,0.0,0.0,0.0,0.0,-4.8794,-4.8801,-4.8802,-4.8398,0.0,-4.8906,-4.8418,-4.8164,-4.8164,-4.8164,-4.8164,-4.8183,-4.8672,-4.9296,-4.9997,-4.9997,-5.0027,-5.0081,-5.0471,-5.0645,-5.0715,-5.1105,-5.1265,-5.1261,-5.1261,-5.1257,-5.1264,-5.1264,-5.1297,-5.1351,-5.1351,-5.1363,-5.1275,-5.0826,-5.066,-5.0449,-4.9574,-4.8672,-4.7871,-4.7466,-4.6674,-4.6002,-4.6002,-4.6002,-4.5986,-4.5916,-4.5873,-4.5835,-4.5814,-4.5807,-4.5807,-4.5807,-4.5841,-4.5835,-4.5814,-4.5814,-4.58,-4.5757,-4.57,-4.5671,-4.5671,-4.562,-4.5594,-4.5594,-4.5618,-4.5627,-4.5519,-4.5571,-4.5577,-4.5577,-4.5484,-4.5503,-4.5643,-4.5419,-4.54,-4.5594,-4.5594,-4.5594,-4.5594,-4.5594,-4.5594,0.0,0.0,0.0,0.0,0.0,0.0,0.0,0.0,0.0,0.0,0.0,0.0,0.0,0.0,0.0,0.0,0.0,0.0,0.0,0.0,0.0,0.0,0.0,0.0,0.0,0.0,0.0,0.0,0.0,0.0,-4.8136,-4.817,-4.8157,-4.8158,-4.7577,-4.7578,-4.8223,-4.7598,-4.7266,-4.7266,-4.7266,-4.7266,-4.7285,-4.7949,-4.8242,-4.8262,-4.8711,-4.912,-4.9483,-4.9697,-5.0016,-5.0374,-5.0825,-5.0974,-5.1004,-5.1219,-5.1302,-5.1333,-5.1333,-5.1357,-5.1378,-5.1163,-5.1091,-5.0937,-5.0117,-4.9822,-4.9618,-4.8715,-4.7972,-4.7373,-4.712,-4.6542,-4.6002,-4.6002,-4.6002,-4.6002,-4.6002,-4.5964,-4.5898,-4.5848,-4.5841,-4.5841,-4.5841,-4.588,-4.5917,-4.5867,-4.5886,-4.5873,-4.5822,-4.5764,-4.5739,-4.5739,-4.5684,-4.5643,-4.5643,-4.57,-4.5739,-4.5739,-4.5771,-4.5807,-4.5807,-4.5749,-4.5731,-4.5708,-4.5502,-4.5466,-4.5594,-4.5594,-4.5594,-4.5594,-4.5594,-4.5594,0.0,0.0,0.0,0.0,0.0,0.0,0.0,0.0,0.0,0.0,0.0,0.0,0.0,0.0,0.0,0.0,0.0,0.0,0.0,0.0,0.0,0.0,0.0,0.0,0.0,0.0,0.0,0.0,0.0,0.0,-4.6341,-4.6393,-4.6438,-4.6438,-4.6386,-4.6387,-4.6426,-4.6387,-4.6367,-4.6367,-4.6367,-4.6367,-4.6367,-4.6406,-4.6445,-4.6523,-4.8183,-4.8457,-4.7793,-4.8613,-4.8453,-4.7852,-4.9513,-5.012,-5.0163,-5.1004,-5.1342,-5.1389,-5.1389,-5.14,-5.1269,-5.0508,-5.0254,-5.0098,-4.9238,-4.8965,-4.8769,-4.7822,-4.7524,-4.729,-4.6399,-4.608,-4.6002,-4.6002,-4.6002,-4.6002,-4.6002,-4.5997,-4.5997,-4.5991,-4.5991,-4.5991,-4.5991,-4.5991,-4.5997,-4.5991,-4.5947,-4.5911,-4.5905,-4.5848,-4.58,-4.58,-4.5793,-4.5793,-4.5793,-4.58,-4.58,-4.58,-4.58,-4.5807,-4.5807,-4.58,-4.5764,-4.5708,-4.5692,-4.5651,-4.5594,-4.5594,-4.5594,-4.5594,-4.5594,-4.5594,0.0,0.0,0.0,0.0,0.0,0.0,0.0,0.0,0.0,0.0,0.0,0.0,0.0,0.0,0.0,0.0,0.0,0.0,0.0,0.0,0.0,0.0,0.0,0.0,0.0,0.0,0.0,0.0,0.0,0.0,-4.6277,-4.6286,-4.6306,-4.6301,-4.6307,-4.6308,-4.6308,-4.6308,-4.6308,-4.6308,-4.6308,-4.6308,-4.6308,-4.6308,-4.6308,-4.6328,-4.6953,-4.7363,-4.7617,-4.7949,-4.8203,-4.8455,-4.9099,-4.9312,-4.9404,-5.0264,-5.0619,-5.0701,-5.1228,-5.1054,-5.0586,-5.0293,-4.9824,-4.9199,-4.832,-4.8066,-4.7871,-4.6971,-4.6698,-4.6596,-4.6245,-4.6072,-4.6002,-4.6002,-4.6002,-4.6002,-4.6002,-4.6002,-4.6002,-4.6002,-4.6002,-4.6002,-4.6002,-4.6002,-4.6002,-4.6002,-4.598,-4.5969,-4.5969,-4.5917,-4.5854,-4.5854,-4.5834,-4.5807,-4.5807,-4.5848,-4.5854,-4.5854,-4.5892,-4.5935,-4.5935,-4.5899,-4.5841,-4.5834,-4.5793,-4.5715,-4.5594,-4.5594,-4.5594,-4.5594,-4.5594,-4.5594,-2.8001,0.0,0.0,0.0,0.0,0.0,0.0,0.0,0.0,0.0,0.0,0.0,0.0,0.0,0.0,0.0,0.0,0.0,0.0,0.0,0.0,0.0,0.0,0.0,0.0,0.0,0.0,0.0,0.0,0.0,-4.6306,-4.6307,-4.6286,-4.6277,-4.6286,-4.6308,-4.6308,-4.6308,-4.6308,-4.6308,-4.6308,-4.6308,-4.6308,-4.6308,-4.6308,-4.6308,-4.6308,-4.6621,-4.7168,-4.7168,-4.75,-4.8066,-4.8359,-4.8457,-4.8574,-4.9433,-4.9766,-4.9844,-5.0371,-5.0215,-4.9726,-4.9414,-4.8945,-4.8301,-4.7422,-4.7168,-4.7031,-4.6465,-4.6259,-4.6204,-4.6192,-4.6092,-4.6002,-4.6002,-4.6002,-4.6002,-4.6002,-4.6002,-4.6002,-4.6002,-4.6002,-4.6002,-4.6002,-4.6002,-4.6002,-4.6002,-4.6002,-4.6002,-4.6002,-4.5964,-4.5922,-4.5922,-4.5886,-4.5874,-4.5874,-4.5917,-4.5922,-4.5922,-4.598,-4.6002,-4.6002,-4.5964,-4.591,-4.5892,-4.5867,-4.5778,-4.5668,-4.5635,-4.562,-4.5594,-4.5594,-4.5594,0.0,0.0,0.0,0.0,0.0,0.0,0.0,0.0,0.0,0.0,0.0,0.0,0.0,0.0,0.0,0.0,0.0,0.0,0.0,0.0,0.0,0.0,0.0,0.0,0.0,0.0,0.0,0.0,0.0,-4.6308,-4.6308,-4.6305,-4.6277,-4.6204,-4.6277,-4.6301,-4.6301,-4.6308,-4.6308,-4.6308,-4.6308,-4.6308,-4.6308,-4.6308,-4.6308,-4.6308,-4.6308,-4.6308,-4.6308,-4.6308,-4.6308,-4.6387,-4.7226,-4.7558,-4.7676,-4.8535,-4.8867,-4.8867,-4.8887,-4.8887,-4.8711,-4.7871,-4.7578,-4.7402,-4.6562,-4.6308,-4.6308,-4.6308,-4.6247,-4.6209,-4.6197,-4.6107,-4.6002,-4.6002,-4.6002,-4.6002,-4.6002,-4.6002,-4.6002,-4.6002,-4.6002,-4.6002,-4.6002,-4.6002,-4.6002,-4.6002,-4.6002,-4.6002,-4.6002,-4.6002,-4.6002,-4.6002,-4.6002,-4.6002,-4.6002,-4.6002,-4.6002,-4.6002,-4.6002,-4.6002,-4.6002,-4.6002,-4.5975,-4.5892,-4.5892,-4.588,-4.5807,-4.5727,-4.566,-4.5594,-4.5594,-4.5594,-2.608,0.0,0.0,0.0,0.0,0.0,0.0,0.0,0.0,0.0,0.0,0.0,0.0,0.0,0.0,0.0,0.0,0.0,0.0,0.0,0.0,0.0,0.0,0.0,0.0,0.0,0.0,0.0,0.0,-4.6308,-4.6305,-4.6256,-4.6227,-4.6202,-4.6277,-4.6301,-4.6301,-4.6308,-4.6308,-4.6308,-4.6308,-4.6308,-4.6308,-4.6308,-4.6308,-4.6308,-4.6308,-4.6308,-4.6308,-4.6308,-4.6308,-4.6328,-4.6562,-4.666,-4.6777,-4.7637,-4.7969,-4.8047,-4.8672,-4.8496,-4.793,-4.7676,-4.7168,-4.6601,-4.6367,-4.6308,-4.6308,-4.6308,-4.6247,-4.6186,-4.6138,-4.6054,-4.6002,-4.6002,-4.6002,-4.6002,-4.6002,-4.6002,-4.6002,-4.6002,-4.6002,-4.6002,-4.6002,-4.6002,-4.6002,-4.6002,-4.6002,-4.6002,-4.6002,-4.6002,-4.6002,-4.6002,-4.6002,-4.6002,-4.6002,-4.6002,-4.6002,-4.6002,-4.6002,-4.6002,-4.6002,-4.6002,-4.5991,-4.5975,-4.5975,-4.5947,-4.5861,-4.5757,-4.5692,-4.5668,-4.562,-4.5594,0.0,0.0,0.0,0.0,0.0,0.0,0.0,0.0,0.0,0.0,0.0,0.0,0.0,0.0,0.0,0.0,0.0,0.0,0.0,0.0,0.0,0.0,0.0,0.0,0.0,0.0,0.0,0.0,-4.6266,-4.6261,-4.6266,-4.6216,-4.621,-4.621,-4.6248,-4.6278,-4.6301,-4.6308,-4.6308,-4.6308,-4.6308,-4.6308,-4.6308,-4.6308,-4.6308,-4.6308,-4.6308,-4.6308,-4.6308,-4.6308,-4.6308,-4.6308,-4.6308,-4.6308,-4.6367,-4.6875,-4.7051,-4.7129,-4.7637,-4.748,-4.7051,-4.7051,-4.6719,-4.6308,-4.6308,-4.6308,-4.6308,-4.6308,-4.6247,-4.6186,-4.6147,-4.6084,-4.6022,-4.6007,-4.6002,-4.6002,-4.6002,-4.6002,-4.6002,-4.6002,-4.6002,-4.6002,-4.6002,-4.6002,-4.6002,-4.6002,-4.6002,-4.6002,-4.6002,-4.6002,-4.6002,-4.6002,-4.6002,-4.6002,-4.6002,-4.6002,-4.6002,-4.6002,-4.6002,-4.6002,-4.6002,-4.6002,-4.6002,-4.6002,-4.6002,-4.5969,-4.5911,-4.5827,-4.5771,-4.5734,-4.5668,-4.5646,0.0,0.0,0.0,0.0,0.0,0.0,0.0,-3.1625,0.0,0.0,0.0,0.0,0.0,0.0,0.0,0.0,0.0,0.0,0.0,0.0,0.0,0.0,0.0,0.0,0.0,0.0,0.0,-4.628,-4.6227,-4.6186,-4.6181,-4.6173,-4.6173,-4.6181,-4.6186,-4.6228,-4.6301,-4.6308,-4.6308,-4.6308,-4.6308,-4.6308,-4.6308,-4.6308,-4.6308,-4.6308,-4.6308,-4.6308,-4.6308,-4.6308,-4.6308,-4.6308,-4.6308,-4.6308,-4.6308,-4.6308,-4.6308,-4.6308,-4.6308,-4.6308,-4.6308,-4.6308,-4.6308,-4.6308,-4.6308,-4.6308,-4.6308,-4.6308,-4.6247,-4.6191,-4.6204,-4.6157,-4.6076,-4.6032,-4.6007,-4.6002,-4.6002,-4.6002,-4.6002,-4.6002,-4.6002,-4.6002,-4.6002,-4.6002,-4.6002,-4.6002,-4.6002,-4.6002,-4.6002,-4.6002,-4.6002,-4.6002,-4.6002,-4.6002,-4.6002,-4.6002,-4.6002,-4.6002,-4.6002,-4.6002,-4.6002,-4.6002,-4.6002,-4.6002,-4.6002,-4.5975,-4.5898,-4.5892,-4.5874,-4.58,-4.5727,-4.5708,0.0,0.0,0.0,0.0,0.0,0.0,0.0,-2.8996,0.0,0.0,0.0,0.0,0.0,0.0,0.0,0.0,0.0,0.0,0.0,0.0,0.0,0.0,0.0,0.0,0.0,0.0,-4.5526,-4.6168,-4.6162,-4.6114,-4.6126,-4.6022,-4.6013,-4.6126,-4.6125,-4.6186,-4.6301,-4.6308,-4.6308,-4.6308,-4.6308,-4.6308,-4.6308,-4.6308,-4.6308,-4.6308,-4.6308,-4.6308,-4.6308,-4.6308,-4.6308,-4.6308,-4.6308,-4.6308,-4.6308,-4.6308,-4.6308,-4.6308,-4.6308,-4.6308,-4.6308,-4.6308,-4.6308,-4.6308,-4.6308,-4.6308,-4.6308,-4.6308,-4.6247,-4.6194,-4.6209,-4.6142,-4.6107,-4.6076,-4.6047,-4.6002,-4.6002,-4.6002,-4.6002,-4.6002,-4.6002,-4.6002,-4.6002,-4.6002,-4.6002,-4.6002,-4.6002,-4.6002,-4.6002,-4.6002,-4.6002,-4.6002,-4.6002,-4.6002,-4.6002,-4.6002,-4.6002,-4.6002,-4.6002,-4.6002,-4.6002,-4.6002,-4.6002,-4.6002,-4.6002,-4.5997,-4.5986,-4.5935,-4.5874,-4.58,-4.5727,-4.5708,0.0,0.0,0.0,-3.1999,0.0,0.0,0.0,0.0,0.0,0.0,0.0,0.0,0.0,0.0,0.0,0.0,0.0,0.0,0.0,0.0,0.0,0.0,0.0,0.0,0.0,0.0,-4.4643,-4.5487,-4.5482,-4.5632,-4.6039,-4.5956,-4.5961,-4.6107,-4.6111,-4.6139,-4.6254,-4.6241,-4.6243,-4.6243,-4.6286,-4.6307,-4.6307,-4.6308,-4.6308,-4.6308,-4.6308,-4.6308,-4.6308,-4.6308,-4.6308,-4.6308,-4.6308,-4.6308,-4.6308,-4.6308,-4.6308,-4.6308,-4.6308,-4.6308,-4.6308,-4.6308,-4.6308,-4.6308,-4.6308,-4.6308,-4.6308,-4.6308,-4.6288,-4.6245,-4.6217,-4.6175,-4.6137,-4.6103,-4.6063,-4.6047,-4.6007,-4.6002,-4.6002,-4.6002,-4.6002,-4.6002,-4.6002,-4.6002,-4.6002,-4.6002,-4.6002,-4.6002,-4.6002,-4.6002,-4.6002,-4.6002,-4.6002,-4.6002,-4.6002,-4.6002,-4.6002,-4.6002,-4.6002,-4.6002,-4.6002,-4.6002,-4.6002,-4.6002,-4.6002,-4.6002,-4.6002,-4.5969,-4.5922,-4.5905,-4.5841,-4.5807,0.0,0.0,0.0,0.0,0.0,-3.2011,0.0,0.0,0.0,0.0,0.0,0.0,0.0,0.0,0.0,0.0,0.0,0.0,0.0,0.0,0.0,0.0,0.0,0.0,0.0,0.0,-4.3184,-4.4529,-4.409,-4.434,-4.5647,-4.5634,-4.5741,-4.6048,-4.6052,-4.6105,-4.6202,-4.6202,-4.6202,-4.6202,-4.6255,-4.6279,-4.6279,-4.6286,-4.6288,-4.6288,-4.6288,-4.6288,-4.6288,-4.6289,-4.6289,-4.6288,-4.6289,-4.6308,-4.6308,-4.6308,-4.6308,-4.6308,-4.6308,-4.6308,-4.6308,-4.6308,-4.6308,-4.6308,-4.6308,-4.6308,-4.6308,-4.6308,-4.6308,-4.6289,-4.6223,-4.6217,-4.6186,-4.6125,-4.6114,-4.6092,-4.6022,-4.6022,-4.6017,-4.6002,-4.6002,-4.6002,-4.6002,-4.6002,-4.6002,-4.6002,-4.6002,-4.6002,-4.6002,-4.6012,-4.6022,-4.6022,-4.6022,-4.6022,-4.6022,-4.6007,-4.6002,-4.6002,-4.6002,-4.6002,-4.6002,-4.6002,-4.6002,-4.6002,-4.6002,-4.6002,-4.6002,-4.6002,-4.6002,-4.5997,-4.5941,-4.5911,0.0,0.0,0.0,0.0,-3.531,0.0,0.0,0.0,0.0,0.0,0.0,0.0,0.0,0.0,0.0,0.0,0.0,0.0,0.0,0.0,0.0,0.0,0.0,0.0,0.0,0.0,0.0,-4.3439,-4.1446,-4.1437,-4.4516,-4.4554,-4.4919,-4.589,-4.5915,-4.6006,-4.6202,-4.6202,-4.6202,-4.6202,-4.6204,-4.6206,-4.6206,-4.6207,-4.6209,-4.6209,-4.6209,-4.6209,-4.623,-4.628,-4.6258,-4.6212,-4.6288,-4.6308,-4.6308,-4.6308,-4.6308,-4.6308,-4.6308,-4.6308,-4.6308,-4.6308,-4.6308,-4.6308,-4.6308,-4.6308,-4.6308,-4.6308,-4.6308,-4.6308,-4.6289,-4.6245,-4.6194,-4.6189,-4.6186,-4.6167,-4.6092,-4.6099,-4.6063,-4.6012,-4.6002,-4.6002,-4.6002,-4.6002,-4.6002,-4.6002,-4.6002,-4.6002,-4.6002,-4.6041,-4.6099,-4.6099,-4.6099,-4.6099,-4.6099,-4.6022,-4.6002,-4.6002,-4.6002,-4.6002,-4.6002,-4.6002,-4.6002,-4.6002,-4.6002,-4.6002,-4.6002,-4.6002,-4.6002,-4.5997,-4.5941,-4.5911,0.0,0.0,0.0,0.0,0.0,0.0,0.0,0.0,-3.0431,0.0,0.0,0.0,0.0,0.0,0.0,0.0,0.0,0.0,0.0,0.0,0.0,0.0,0.0,0.0,0.0,0.0,0.0,0.0,0.0,-3.9983,-4.2839,-4.3813,-4.4538,-4.5067,-4.5613,-4.5959,-4.6079,-4.6167,-4.6201,-4.6201,-4.6153,-4.6147,-4.6147,-4.6147,-4.6133,-4.6136,-4.6175,-4.6202,-4.6204,-4.623,-4.6228,-4.6204,-4.6237,-4.6263,-4.6307,-4.6308,-4.6308,-4.6308,-4.6308,-4.6308,-4.6308,-4.6308,-4.6308,-4.6308,-4.6308,-4.6308,-4.6308,-4.6308,-4.6308,-4.6308,-4.6308,-4.6288,-4.6246,-4.6217,-4.6207,-4.6191,-4.617,-4.6157,-4.6144,-4.6063,-4.6099,-4.6092,-4.6054,-4.6032,-4.6002,-4.6002,-4.6022,-4.6069,-4.6069,-4.6126,-4.6157,-4.6157,-4.6157,-4.6157,-4.6157,-4.6107,-4.6069,-4.6069,-4.6027,-4.6002,-4.6002,-4.6002,-4.6002,-4.6002,-4.6002,-4.6002,-4.6002,-4.6002,-4.6002,-4.6002,-4.5975,-4.5964,-3.9154,0.0,0.0,0.0,0.0,0.0,0.0,0.0,0.0,0.0,0.0,0.0,0.0,0.0,0.0,0.0,0.0,0.0,0.0,0.0,0.0,0.0,0.0,0.0,0.0,0.0,0.0,0.0,0.0,0.0,-4.1323,-4.2622,-4.3631,-4.4474,-4.515,-4.5665,-4.5968,-4.6065,-4.6126,-4.6126,-4.6074,-4.6046,-4.6046,-4.6057,-4.6079,-4.6082,-4.617,-4.6206,-4.6206,-4.6193,-4.6191,-4.6206,-4.6199,-4.6227,-4.6274,-4.6265,-4.6267,-4.6267,-4.6267,-4.6267,-4.6287,-4.6288,-4.6288,-4.6287,-4.6289,-4.6308,-4.6308,-4.6308,-4.6308,-4.6308,-4.6308,-4.6308,-4.6289,-4.6244,-4.6222,-4.6217,-4.6191,-4.6204,-4.6192,-4.6144,-4.6164,-4.6178,-4.6141,-4.6095,-4.6046,-4.6046,-4.6107,-4.6134,-4.6134,-4.6178,-4.6204,-4.6204,-4.6204,-4.6204,-4.6204,-4.6164,-4.6126,-4.6092,-4.6047,-4.6002,-4.6002,-4.6002,-4.6002,-4.6002,-4.6002,-4.6002,-4.6002,-4.6002,-4.6002,-4.6002,-4.6002,-4.6002,0.0,0.0,0.0,0.0,0.0,0.0,0.0,0.0,-3.27,0.0,0.0,0.0,0.0,0.0,0.0,0.0,0.0,0.0,0.0,0.0,0.0,0.0,0.0,0.0,0.0,0.0,0.0,0.0,0.0,0.0,-4.0242,-4.0593,-4.1809,-4.4416,-4.4539,-4.4982,-4.5892,-4.5917,-4.5917,-4.5917,-4.5917,-4.5917,-4.5904,-4.5968,-4.6008,-4.6008,-4.6138,-4.6203,-4.6203,-4.6198,-4.6192,-4.6209,-4.6206,-4.6191,-4.6194,-4.6197,-4.6204,-4.6204,-4.6204,-4.6204,-4.6207,-4.6279,-4.6256,-4.621,-4.6288,-4.6307,-4.6304,-4.6308,-4.6308,-4.6308,-4.6308,-4.6308,-4.6308,-4.6308,-4.6308,-4.6288,-4.6218,-4.6194,-4.6207,-4.6194,-4.6206,-4.6206,-4.6206,-4.6203,-4.6184,-4.6184,-4.6203,-4.6206,-4.6206,-4.6199,-4.6194,-4.6194,-4.6194,-4.6194,-4.6194,-4.6208,-4.6167,-4.6096,-4.6047,-4.6002,-4.6002,-4.6002,-4.6002,-4.6002,-4.6002,-4.6002,-4.6002,-4.6002,-4.6002,-4.6002,-4.6002,-4.6002,0.0,0.0,-4.2298,-3.8652,0.0,0.0,0.0,0.0,0.0,0.0,0.0,0.0,0.0,0.0,0.0,0.0,0.0,0.0,0.0,0.0,0.0,0.0,0.0,0.0,0.0,0.0,0.0,0.0,0.0,0.0,0.0,-3.9277,-4.0924,-4.1809,-4.3569,-4.465,-4.4975,-4.5589,-4.5911,-4.5911,-4.5802,-4.5768,-4.5768,-4.5872,-4.5939,-4.5944,-4.6115,-4.6199,-4.6199,-4.619,-4.6209,-4.6199,-4.6203,-4.6206,-4.6203,-4.621,-4.6202,-4.6202,-4.6202,-4.6202,-4.6204,-4.6228,-4.6227,-4.6206,-4.6235,-4.6234,-4.6231,-4.6237,-4.6262,-4.6306,-4.6306,-4.6308,-4.6308,-4.6308,-4.6308,-4.6289,-4.6268,-4.6268,-4.6245,-4.6207,-4.6235,-4.6259,-4.6206,-4.6235,-4.6255,-4.6216,-4.6208,-4.6202,-4.6202,-4.6241,-4.6268,-4.6268,-4.6268,-4.6268,-4.6268,-4.6235,-4.618,-4.6096,-4.6087,-4.6056,-4.6002,-4.6002,-4.6002,-4.6002,-4.6002,-4.6002,-4.6002,-4.6002,-4.6002,-4.6002,-4.6002,-4.6002,-4.237,-4.3008,0.0,0.0,-3.8927,0.0,0.0,0.0,0.0,0.0,0.0,0.0,0.0,0.0,0.0,0.0,0.0,0.0,0.0,0.0,0.0,0.0,0.0,0.0,0.0,0.0,-2.9502,-3.1734,0.0,0.0,0.0,0.0,-3.9881,-4.0477,-4.2479,-4.3829,-4.4427,-4.503,-4.549,-4.58,-4.57,-4.5661,-4.5669,-4.5787,-4.5854,-4.5917,-4.606,-4.6158,-4.6199,-4.6199,-4.6199,-4.6199,-4.6199,-4.6199,-4.6203,-4.6206,-4.6199,-4.6199,-4.6199,-4.6199,-4.6201,-4.6208,-4.6206,-4.6201,-4.6199,-4.6199,-4.6193,-4.62,-4.623,-4.6257,-4.6257,-4.6284,-4.6307,-4.6307,-4.6308,-4.6308,-4.6308,-4.6308,-4.6289,-4.6245,-4.6268,-4.6289,-4.6245,-4.6268,-4.6288,-4.6248,-4.6237,-4.6244,-4.6244,-4.6268,-4.6308,-4.6308,-4.6308,-4.6308,-4.6308,-4.6244,-4.6181,-4.6134,-4.6114,-4.6072,-4.6047,-4.6017,-4.6002,-4.6002,-4.6002,-4.6002,-4.6002,-4.6002,-4.6002,-4.6002,-4.6002,-4.6002]},{"header":{"parameterUnit":"m.s-1","parameterCategory":1,"la1":30.6,"la2":29.2853,"lo1":-89.7004,"lo2":-87.6739,"dy":0.0162,"dx":0.0183,"nx":112,"ny":82,"refTime":"2025-05-24T18:00:00:Z","depth":0,"parameterNumber":3,"parameterNumberName":"V-component_of_WINDS"},"data":[0.0,0.0,0.0,0.0,0.0,0.0,0.0,0.0,0.0,0.0,0.0,0.0,0.0,0.0,0.0,0.0,0.0,0.0,0.0,0.0,0.0,0.0,0.0,0.0,0.0,0.0,0.0,0.0,0.0,0.0,0.0,0.0,0.0,0.0,0.0,0.0,0.0,0.0,0.0,0.0,0.0,0.0,0.0,0.0,0.0,0.0,0.0,0.0,0.0,0.0,0.0,0.0,0.0,0.0,0.0,0.0,0.0,0.0,0.0,0.0,0.0,0.0,0.0,0.0,0.0,0.0,0.0,0.0,0.0,0.0,0.0,0.0,0.0,0.0,0.0,0.0,0.0,0.0,0.0,0.0,0.0,0.0,0.0,0.0,0.0,0.0,0.0,0.0,0.0,0.0,0.0,-1.4598,-1.5592,-1.6263,-1.6263,-1.5827,-1.5055,-1.3946,0.0,0.0,0.0,0.0,0.0,0.0,0.0,0.0,0.0,0.0,0.0,0.0,0.0,0.0,0.0,0.0,0.0,0.0,0.0,0.0,0.0,0.0,0.0,0.0,0.0,0.0,0.0,0.0,0.0,0.0,0.0,0.0,0.0,0.0,0.0,0.0,0.0,0.0,0.0,0.0,0.0,0.0,0.0,0.0,0.0,0.0,0.0,0.0,0.0,0.0,0.0,0.0,0.0,0.0,0.0,0.0,0.0,0.0,0.0,0.0,0.0,0.0,0.0,0.0,0.0,0.0,0.0,0.0,0.0,0.0,0.0,0.0,0.0,0.0,0.0,0.0,0.0,0.0,0.0,0.0,0.0,0.0,0.0,0.0,0.0,0.0,0.0,0.0,0.0,0.0,0.0,0.0,0.0,0.0,0.0,0.0,0.0,0.0,0.0,0.0,0.0,0.0,0.0,0.0,-1.4362,-1.6361,-1.6798,-1.6968,-1.6968,-1.6284,-1.5475,-1.4612,0.0,0.0,0.0,0.0,0.0,0.0,0.0,0.0,0.0,0.0,0.0,0.0,0.0,0.0,0.0,0.0,0.0,0.0,0.0,0.0,0.0,0.0,0.0,0.0,0.0,0.0,0.0,0.0,0.0,0.0,0.0,0.0,0.0,0.0,0.0,0.0,0.0,0.0,0.0,0.0,0.0,0.0,0.0,0.0,0.0,0.0,0.0,0.0,0.0,0.0,0.0,0.0,0.0,0.0,0.0,0.0,0.0,0.0,0.0,0.0,0.0,0.0,0.0,0.0,0.0,0.0,0.0,0.0,0.0,0.0,0.0,0.0,0.0,0.0,0.0,0.0,0.0,0.0,0.0,0.0,0.0,0.0,0.0,0.0,0.0,0.0,0.0,0.0,0.0,0.0,0.0,0.0,0.0,0.0,0.0,0.0,0.0,0.0,0.0,0.0,0.0,0.0,0.0,-1.4007,-1.5214,-1.7328,-1.7578,-1.7587,-1.7587,-1.6871,-1.5939,-1.4778,-1.3129,0.0,0.0,0.0,0.0,0.0,0.0,0.0,0.0,0.0,0.0,0.0,0.0,0.0,0.0,0.0,0.0,0.0,0.0,0.0,0.0,0.0,0.0,0.0,0.0,0.0,0.0,0.0,0.0,0.0,0.0,0.0,0.0,0.0,0.0,0.0,0.0,0.0,0.0,0.0,0.0,0.0,0.0,0.0,0.0,0.0,0.0,0.0,0.0,0.0,0.0,0.0,0.0,0.0,0.0,0.0,0.0,0.0,0.0,0.0,0.0,0.0,0.0,0.0,0.0,0.0,0.0,0.0,0.0,0.0,0.0,0.0,0.0,0.0,0.0,0.0,0.0,0.0,0.0,0.0,0.0,0.0,0.0,0.0,0.0,0.0,0.0,0.0,0.0,0.0,0.0,0.0,0.0,0.0,0.0,0.0,0.0,0.0,0.0,0.0,0.0,0.0,0.0,-1.5343,-1.6233,-1.782,-1.8076,-1.8094,-1.8,-1.7269,-1.6182,-1.4802,-1.316,0.0,0.0,0.0,0.0,0.0,0.0,0.0,0.0,0.0,0.0,0.0,0.0,0.0,0.0,0.0,0.0,0.0,0.0,0.0,0.0,0.0,0.0,0.0,0.0,0.0,0.0,0.0,0.0,0.0,0.0,0.0,0.0,0.0,0.0,0.0,0.0,0.0,0.0,0.0,0.0,0.0,0.0,0.0,0.0,0.0,0.0,0.0,0.0,0.0,0.0,0.0,0.0,0.0,0.0,0.0,0.0,0.0,0.0,0.0,0.0,0.0,0.0,0.0,0.0,0.0,0.0,0.0,0.0,0.0,0.0,0.0,0.0,0.0,0.0,0.0,0.0,0.0,0.0,0.0,0.0,0.0,0.0,0.0,0.0,0.0,0.0,0.0,0.0,0.0,0.0,0.0,0.0,0.0,0.0,0.0,0.0,0.0,0.0,0.0,0.0,0.0,0.0,-1.5711,-1.7077,-1.7906,-1.834,-1.8408,-1.8025,-1.7021,-1.5944,-1.4761,-1.2891,0.0,0.0,0.0,0.0,0.0,0.0,0.0,0.0,0.0,0.0,0.0,0.0,0.0,0.0,0.0,0.0,0.0,0.0,0.0,0.0,0.0,0.0,0.0,0.0,0.0,0.0,0.0,0.0,0.0,0.0,0.0,0.0,0.0,0.0,0.0,0.0,0.0,0.0,0.0,0.0,0.0,0.0,0.0,0.0,0.0,0.0,0.0,0.0,0.0,0.0,0.0,0.0,0.0,0.0,0.0,0.0,0.0,0.0,0.0,0.0,0.0,0.0,0.0,0.0,0.0,0.0,0.0,0.0,0.0,0.0,0.0,0.0,0.0,0.0,0.0,0.0,0.0,0.0,0.0,0.0,0.0,0.0,0.0,0.0,0.0,0.0,0.0,0.0,0.0,0.0,0.0,0.0,0.0,0.0,0.0,0.0,0.0,0.0,0.0,0.0,0.0,0.0,-1.554,-1.703,0.0,-1.8725,-1.8793,-1.8408,-1.7346,-1.6019,-1.4418,0.0,0.0,0.0,0.0,0.0,0.0,0.0,0.0,0.0,0.0,0.0,0.0,0.0,0.0,0.0,0.0,0.0,0.0,0.0,0.0,0.0,0.0,0.0,0.0,0.0,0.0,0.0,0.0,0.0,0.0,0.0,0.0,0.0,0.0,0.0,0.0,0.0,0.0,0.0,0.0,0.0,0.0,0.0,0.0,0.0,0.0,0.0,0.0,0.0,0.0,0.0,0.0,0.0,0.0,0.0,0.0,0.0,0.0,0.0,0.0,0.0,0.0,0.0,0.0,0.0,0.0,0.0,0.0,0.0,0.0,0.0,0.0,0.0,0.0,0.0,0.0,0.0,0.0,0.0,0.0,0.0,0.0,0.0,0.0,0.0,0.0,0.0,0.0,0.0,0.0,0.0,0.0,0.0,0.0,0.0,0.0,0.0,0.0,0.0,0.0,0.0,0.0,-1.405,-1.5738,-1.7222,0.0,-1.905,-1.9102,-1.8468,-1.7381,-1.5941,-1.4204,0.0,0.0,0.0,0.0,0.0,0.0,0.0,0.0,0.0,0.0,0.0,0.0,0.0,0.0,0.0,0.0,0.0,0.0,0.0,0.0,0.0,0.0,0.0,0.0,0.0,0.0,0.0,0.0,0.0,0.0,0.0,0.0,0.0,0.0,0.0,0.0,0.0,0.0,0.0,0.0,0.0,0.0,0.0,0.0,0.0,0.0,0.0,0.0,0.0,0.0,0.0,0.0,0.0,0.0,0.0,0.0,0.0,0.0,0.0,0.0,0.0,0.0,0.0,0.0,0.0,0.0,0.0,0.0,0.0,0.0,0.0,0.0,0.0,0.0,0.0,0.0,0.0,0.0,0.0,0.0,0.0,0.0,0.0,0.0,0.0,0.0,0.0,0.0,0.0,0.0,0.0,0.0,0.0,0.0,0.0,0.0,0.0,0.0,0.0,0.0,0.0,0.0,-1.4487,-1.6356,-1.7797,-1.8511,-1.929,-1.9247,-1.8102,-1.6957,-1.5659,0.0,0.0,0.0,0.0,0.0,0.0,0.0,0.0,0.0,0.0,0.0,0.0,0.0,0.0,0.0,0.0,0.0,0.0,0.0,0.0,0.0,0.0,0.0,0.0,0.0,0.0,0.0,0.0,0.0,0.0,0.0,0.0,0.0,0.0,0.0,0.0,0.0,0.0,0.0,0.0,0.0,0.0,0.0,0.0,0.0,0.0,0.0,0.0,0.0,0.0,0.0,0.0,0.0,0.0,0.0,0.0,0.0,0.0,0.0,0.0,0.0,0.0,0.0,0.0,0.0,0.0,0.0,0.0,0.0,0.0,0.0,0.0,0.0,0.0,0.0,0.0,0.0,0.0,0.0,0.0,0.0,0.0,0.0,0.0,0.0,0.0,0.0,0.0,0.0,0.0,0.0,0.0,0.0,0.0,0.0,0.0,0.0,0.0,0.0,0.0,0.0,0.0,0.0,0.0,-1.655,-1.816,-1.8922,-1.9675,-1.9667,-1.8519,-1.7398,-1.5838,-1.381,0.0,0.0,0.0,0.0,0.0,0.0,0.0,0.0,0.0,0.0,0.0,0.0,0.0,0.0,0.0,0.0,0.0,0.0,0.0,0.0,0.0,0.0,0.0,0.0,0.0,0.0,0.0,0.0,0.0,0.0,0.0,0.0,0.0,0.0,0.0,0.0,0.0,0.0,0.0,0.0,0.0,0.0,0.0,0.0,0.0,0.0,0.0,0.0,0.0,0.0,0.0,0.0,0.0,0.0,0.0,0.0,0.0,0.0,0.0,0.0,0.0,0.0,0.0,0.0,0.0,0.0,0.0,0.0,0.0,0.0,0.0,0.0,0.0,0.0,0.0,0.0,0.0,0.0,0.0,0.0,0.0,0.0,0.0,0.0,0.0,0.0,0.0,0.0,0.0,0.0,0.0,0.0,0.0,0.0,0.0,0.0,0.0,0.0,0.0,0.0,0.0,0.0,-1.4401,-1.6516,-1.816,-1.9119,-1.9718,-1.9607,-1.8468,-1.7338,-1.5804,-1.3862,0.0,0.0,0.0,0.0,0.0,0.0,0.0,0.0,0.0,0.0,0.0,0.0,0.0,0.0,0.0,0.0,0.0,0.0,0.0,0.0,0.0,0.0,0.0,0.0,0.0,0.0,0.0,0.0,0.0,0.0,0.0,0.0,0.0,0.0,0.0,0.0,0.0,0.0,0.0,0.0,0.0,0.0,0.0,0.0,0.0,0.0,0.0,0.0,0.0,0.0,0.0,0.0,0.0,0.0,0.0,0.0,0.0,0.0,0.0,0.0,0.0,0.0,0.0,0.0,0.0,0.0,0.0,0.0,0.0,0.0,0.0,0.0,0.0,0.0,0.0,0.0,0.0,0.0,0.0,0.0,0.0,0.0,0.0,0.0,0.0,0.0,0.0,0.0,0.0,0.0,0.0,0.0,0.0,0.0,0.0,0.0,0.0,0.0,0.0,0.0,0.0,0.0,-1.4358,-1.6381,-1.7969,-1.905,-1.9427,-1.9144,-1.8034,-1.6966,-1.571,-1.4247,0.0,0.0,0.0,0.0,0.0,0.0,0.0,0.0,0.0,0.0,0.0,0.0,0.0,0.0,0.0,0.0,0.0,0.0,0.0,0.0,0.0,0.0,0.0,0.0,0.0,0.0,0.0,0.0,0.0,0.0,0.0,0.0,0.0,0.0,0.0,0.0,0.0,0.0,0.0,0.0,0.0,0.0,0.0,0.0,0.0,0.0,0.0,0.0,0.0,0.0,0.0,0.0,0.0,0.0,0.0,0.0,0.0,0.0,0.0,0.0,-0.5966,0.0,0.0,0.0,0.0,0.0,0.0,0.0,0.0,0.0,0.0,0.0,0.0,0.0,0.0,0.0,0.0,0.0,0.0,0.0,0.0,0.0,0.0,0.0,0.0,0.0,0.0,0.0,0.0,0.0,0.0,0.0,0.0,0.0,0.0,0.0,0.0,0.0,0.0,0.0,0.0,0.0,-1.4495,-1.6576,-1.8126,-1.8656,-1.8785,-1.8494,-1.7663,-1.7098,-1.6156,-1.4658,0.0,0.0,0.0,0.0,0.0,0.0,0.0,0.0,0.0,0.0,0.0,0.0,0.0,0.0,0.0,0.0,0.0,0.0,0.0,0.0,0.0,0.0,0.0,0.0,0.0,0.0,0.0,0.0,0.0,0.0,0.0,0.0,0.0,0.0,0.0,0.0,0.0,0.0,0.0,0.0,0.0,0.0,0.0,0.0,0.0,0.0,0.0,0.0,0.0,0.0,0.0,0.0,0.0,0.0,0.0,0.0,0.0,0.0,0.0,0.0,0.0,-0.6373,0.0,0.0,0.0,0.0,0.0,0.0,0.0,0.0,0.0,0.0,0.0,0.0,0.0,0.0,0.0,0.0,0.0,0.0,0.0,0.0,0.0,0.0,0.0,0.0,0.0,0.0,0.0,0.0,0.0,0.0,0.0,0.0,0.0,0.0,0.0,0.0,0.0,0.0,0.0,0.0,-1.4744,-1.6593,-1.7971,-1.8528,-1.8425,-1.8168,-1.7775,-1.7064,-1.6112,-1.5009,-1.3853,0.0,0.0,0.0,0.0,0.0,0.0,0.0,0.0,0.0,0.0,0.0,0.0,0.0,0.0,0.0,0.0,0.0,0.0,0.0,0.0,0.0,0.0,0.0,0.0,0.0,0.0,0.0,0.0,0.0,0.0,0.0,0.0,0.0,0.0,0.0,0.0,0.0,0.0,0.0,0.0,0.0,0.0,0.0,0.0,0.0,0.0,0.0,0.0,0.0,0.0,0.0,0.0,0.0,0.0,-0.7715,-0.814,-0.797,-0.8136,-0.8537,-0.7397,-0.7197,-0.7614,0.0,0.0,0.0,0.0,0.0,0.0,0.0,0.0,0.0,0.0,0.0,0.0,0.0,0.0,0.0,0.0,0.0,0.0,0.0,0.0,0.0,0.0,0.0,0.0,0.0,-1.6055,-1.6242,0.0,0.0,0.0,0.0,0.0,0.0,0.0,0.0,0.0,0.0,0.0,0.0,-1.5112,-1.6636,-1.7809,-1.8425,-1.816,-1.7897,-1.7897,-1.7034,-1.6208,-1.5463,-1.4709,-1.3562,0.0,0.0,0.0,0.0,0.0,0.0,0.0,0.0,0.0,0.0,0.0,0.0,0.0,0.0,0.0,0.0,0.0,0.0,0.0,0.0,0.0,0.0,0.0,0.0,0.0,0.0,0.0,0.0,0.0,0.0,0.0,0.0,-0.0932,-0.1769,0.0,0.0,0.0,0.0,0.0,0.0,0.0,0.0,0.0,0.0,0.0,0.0,0.0,0.0,-0.7662,-0.8204,-0.8428,-0.834,-0.8845,-0.8991,-0.8767,-0.891,-0.9047,-0.9101,-0.8747,0.0,-0.7894,-0.7526,0.0,0.0,0.0,0.0,0.0,0.0,0.0,0.0,0.0,0.0,0.0,0.0,0.0,0.0,0.0,0.0,0.0,0.0,0.0,0.0,0.0,0.0,-1.7364,-1.7172,-1.7738,-1.807,0.0,-1.6195,-1.5146,-1.3446,0.0,0.0,0.0,0.0,0.0,0.0,0.0,0.0,-1.5651,-1.703,-1.7957,-1.8059,-1.7766,-1.7583,-1.7583,-1.7445,-1.7042,-1.6287,-1.5489,-1.4812,-1.4256,-1.2072,0.0,0.0,0.0,0.0,0.0,0.0,0.0,0.0,0.0,0.0,0.0,0.0,0.0,0.0,0.0,0.0,0.0,0.0,0.0,0.0,0.0,0.0,0.0,0.0,0.0,0.0,0.0,0.0,0.0,-0.0598,-0.1303,-0.1969,-0.2477,-0.3103,0.0,0.0,0.0,0.0,0.0,0.0,0.0,0.0,0.0,-0.7472,-0.7901,-0.8208,-0.8442,-0.8788,-0.8967,-0.8991,-0.9224,-0.9276,-0.9313,-0.9289,-0.9327,-0.9401,-0.9252,-0.8988,-0.8628,-0.818,-0.8058,-0.8135,0.0,0.0,0.0,0.0,0.0,-1.1128,-1.1418,0.0,0.0,0.0,0.0,0.0,0.0,0.0,0.0,0.0,0.0,0.0,0.0,0.0,0.0,-1.8507,-1.9153,-1.9401,-1.8862,-1.8324,-1.7381,0.0,-1.518,-1.4897,-1.2877,0.0,0.0,0.0,0.0,0.0,-1.6353,-1.7333,-1.8,-1.8,-1.7697,-1.7591,-1.7775,-1.7398,-1.6927,-1.637,-1.5625,-1.4958,-1.4375,-1.2834,-1.1893,0.0,0.0,0.0,0.0,0.0,0.0,0.0,0.0,0.0,0.0,0.0,0.0,0.0,0.0,0.0,0.0,0.0,0.0,0.0,0.0,0.0,0.0,0.0,0.0,0.0,0.0,0.0,0.0,-0.0547,-0.1329,-0.2319,-0.2821,-0.357,0.0,0.0,0.0,0.0,0.0,0.0,-0.7155,-0.7259,-0.7687,-0.8537,-0.8771,-0.8991,-0.9165,-0.933,-0.9439,-0.9551,-0.9398,-0.9442,-0.9659,-0.9547,-0.9554,-0.9656,-0.9544,-0.9408,-0.9292,-0.8784,-0.8743,-0.9019,-0.9719,-1.0233,-1.0695,-1.1999,-1.2348,-1.2231,-1.2813,-1.2791,-1.2533,-1.2172,0.0,-1.2075,-1.1987,0.0,0.0,0.0,0.0,-1.4126,-1.6282,0.0,-1.7422,-1.8937,-1.9681,-1.9943,-1.9628,-1.9703,-1.9144,0.0,-1.7124,-1.7004,-1.4641,0.0,0.0,0.0,0.0,-1.6328,-1.6978,-1.759,-1.8,-1.8,-1.7783,-1.7732,-1.7974,-1.7441,-1.6893,-1.647,-1.5744,-1.5112,-1.4555,-1.3622,-1.2851,0.0,0.0,0.0,0.0,0.0,0.0,0.0,0.0,0.0,0.0,0.0,0.0,0.0,0.0,0.0,0.0,0.0,0.0,0.0,0.0,0.0,0.0,0.0,0.0,0.0,0.0,0.0,0.0,0.0,0.0,-0.2893,-0.2974,0.0,0.0,0.0,0.0,-0.6527,-0.7067,-0.764,-0.8218,-0.875,-0.9137,-0.932,-0.9744,-0.9916,-0.993,-0.9936,-0.9947,-0.9953,-0.9863,-0.9795,-0.9812,-0.9802,-0.9802,-0.9812,-0.9802,-0.972,-0.9551,-0.91,-0.8815,-0.8862,-1.0329,-1.097,-1.1162,-1.2828,-1.34,-1.3394,-1.3432,-1.3281,-1.3066,-1.3039,-1.2986,-1.3001,-1.321,-1.3428,0.0,0.0,-1.5633,-1.6147,-1.7183,-1.7758,-1.8064,-1.8141,-1.8719,-1.9225,-1.9209,-1.9758,-1.9804,0.0,-1.8254,-1.8031,-1.6419,0.0,-1.6653,-1.633,-1.6593,-1.7004,-1.7428,-1.7792,-1.8,-1.8,-1.7974,-1.7974,-1.8,-1.7672,-1.7287,-1.6918,-1.6182,-1.5754,-1.572,-1.4281,-1.3468,-1.3425,-1.1618,0.0,0.0,0.0,0.0,0.0,0.0,0.0,0.0,0.0,0.0,0.0,0.0,0.0,0.0,0.0,0.0,0.0,0.0,0.0,0.0,0.0,0.0,0.0,0.0,0.0,0.0,0.0,0.0,-0.4043,-0.4643,0.0,0.0,-0.7118,-0.7443,-0.7898,-0.8368,-0.8796,-0.9249,-0.9381,-0.9557,-0.9802,-0.9906,-0.9987,-0.9987,-1.0148,-1.0148,-0.9987,-0.9933,-0.9856,-0.9822,-0.9822,-0.9822,-0.9822,-0.9822,-0.9791,-0.9727,-0.9473,-0.9447,-0.9716,-1.0845,-1.1468,-1.1921,-1.3064,-1.348,-1.348,-1.348,-1.3313,-1.3077,-1.2931,-1.3089,-1.3385,-1.3849,-1.4238,-1.4741,-1.5487,-1.58,-1.6088,-1.6982,-1.7284,-1.7512,-1.7994,-1.8319,-1.8496,-1.8496,-1.905,-1.9451,-1.8886,-1.9053,-1.8888,-1.7607,-1.7504,-1.747,-1.7162,-1.7222,-1.7406,-1.7783,-1.7914,-1.8,-1.8,-1.8,-1.7829,-1.7465,-1.6861,-1.6204,-1.5485,-1.4537,-1.3956,-1.3807,-1.3312,-1.3064,-1.3117,-1.2487,-1.1619,0.0,0.0,0.0,0.0,0.0,0.0,0.0,0.0,0.0,0.0,0.0,0.0,0.0,0.0,0.0,0.0,0.0,0.0,0.0,0.0,0.0,0.0,0.0,0.0,0.0,0.0,-0.3362,-0.5057,-0.5717,-0.6627,-0.8006,-0.8358,-0.867,-0.8959,-0.9286,-0.9585,-0.9883,-0.9859,-0.9947,-1.0192,-1.0186,-1.0213,-1.0213,-1.0324,-1.03,-1.0198,-1.0034,-0.9933,-0.9897,-0.9842,-0.9822,-0.9822,-0.9822,-0.9822,-0.9815,-0.972,-0.9734,-0.9969,-1.1126,-1.1729,-1.213,-1.3294,-1.3717,-1.3706,-1.3626,-1.3432,-1.319,-1.2953,-1.3311,-1.3823,-1.4202,-1.4783,-1.541,-1.5689,-1.5784,-1.592,-1.648,-1.6622,-1.6716,-1.7192,-1.752,-1.7753,-1.7753,-1.8311,-1.8912,-1.9142,-1.9591,-1.9606,-1.8726,-1.8572,-1.8444,-1.814,-1.7969,-1.7937,-1.8186,-1.8068,-1.791,-1.7708,-1.7668,-1.7456,-1.6804,-1.611,-1.5418,-1.4827,-1.3775,-1.3145,-1.2997,-1.2727,-1.261,-1.2671,-1.2515,-1.2185,-1.167,0.0,0.0,0.0,0.0,0.0,0.0,0.0,0.0,0.0,0.0,0.0,0.0,0.0,0.0,0.0,0.0,0.0,0.0,0.0,0.0,0.0,0.0,0.0,-0.1576,-0.2237,-0.3639,-0.5944,-0.6104,-0.692,-0.919,-0.9656,-0.9774,-0.9642,-0.9839,-1.0004,-1.0007,-1.0212,-1.0358,-1.0493,-1.0643,-1.0721,-1.0721,-1.0571,-1.0497,-1.0487,-1.0195,-0.9994,-0.998,-0.989,-0.9822,-0.9822,-0.9822,-0.9822,-0.9822,-0.9822,-0.9646,-0.9538,-1.1195,-1.1735,-1.1787,-1.3537,-1.4196,-1.4159,-1.3906,-1.3669,-1.3437,-1.3184,-1.363,-1.4298,-1.4298,-1.4968,-1.5784,-1.5784,-1.5784,-1.5784,-1.5784,-1.5784,-1.5784,-1.5784,-1.6386,-1.6951,-1.6951,-1.7559,-1.8272,-1.9004,-1.9737,-2.0135,-1.9776,-1.9708,-1.9571,-1.923,-1.8836,0.0,-1.8571,-1.8213,-1.7708,-1.7033,-1.7041,-1.6804,-1.6139,-1.5454,-1.5064,-1.5003,-1.4095,-1.3523,-1.35,-1.2666,-1.2241,-1.2257,-1.1661,-1.1722,-1.2434,0.0,0.0,0.0,0.0,0.0,0.0,0.0,0.0,0.0,0.0,0.0,0.0,0.0,0.0,0.0,0.0,0.0,0.0,0.0,0.0,0.0,0.0,-0.3709,-0.337,-0.3642,-0.4693,-0.696,-0.7214,-0.7895,-0.95,-0.9873,-1.0015,-1.009,-1.0266,-1.0419,-1.0531,-1.0575,-1.0616,-1.0656,-1.07,-1.0721,-1.0721,-1.0677,-1.0602,-1.049,-1.0304,-1.0158,-0.998,-0.989,-0.9822,-0.9822,-0.9822,-0.9822,-0.9822,-0.9822,-0.9646,-0.9552,-1.1278,-1.1798,-1.1787,-1.3537,-1.4196,-1.4159,-1.3906,-1.3669,-1.3437,-1.3184,-1.339,-1.3775,-1.4202,-1.4783,-1.5363,-1.5689,-1.5784,-1.5784,-1.5784,-1.5784,-1.5784,-1.5784,-1.5967,-1.6109,-1.6109,-1.6763,-1.7372,-1.7552,-1.821,-1.9026,-1.9974,-1.987,-1.9571,-1.923,0.0,0.0,-1.7524,-1.74,-1.709,-1.6419,-1.6804,-1.664,-1.545,-1.4809,-1.4038,0.0,-1.2409,-1.1824,-1.1458,-1.2104,-1.283,-1.356,-1.3135,-1.2946,0.0,0.0,0.0,0.0,0.0,0.0,0.0,0.0,0.0,0.0,0.0,0.0,0.0,0.0,0.0,0.0,0.0,0.0,0.0,0.0,0.0,0.0,-0.4187,-0.4962,-0.5054,-0.495,-0.5578,-0.7653,-0.793,-0.8538,-1.0052,-1.0276,-1.0368,-1.046,-1.0541,-1.0626,-1.0714,-1.0721,-1.0721,-1.0721,-1.0721,-1.0721,-1.0721,-1.0721,-1.0677,-1.0585,-1.0378,-1.0232,-1.0137,-0.992,-0.9822,0.0,-0.9822,-0.9822,-0.9822,-0.9822,-0.9646,0.0,0.0,0.0,0.0,0.0,-1.4196,-1.4175,-1.4029,-1.376,-1.3453,-1.3308,-1.338,-1.3539,-1.3871,-1.4352,-1.4885,-1.5356,-1.5506,-1.5553,-1.5737,-1.5784,-1.5784,-1.5784,-1.5784,-1.5784,-1.5784,-1.6157,-1.6622,-1.6951,0.0,0.0,-1.9188,-1.9199,-1.9085,-1.9181,-1.8403,-1.7738,0.0,-1.7277,-1.6722,-1.5775,-1.6023,-1.5824,-1.4755,-1.4218,0.0,0.0,0.0,-1.1579,-1.1148,0.0,0.0,0.0,0.0,0.0,0.0,0.0,0.0,0.0,-1.4808,-1.4782,0.0,0.0,0.0,0.0,0.0,0.0,0.0,0.0,0.0,0.0,0.0,0.0,0.0,0.0,0.0,0.0,-0.5553,-0.5662,-0.6436,-0.6053,-0.6304,-0.7983,-0.8236,-0.8916,-1.0426,-1.0651,-1.0721,-1.0721,-1.0721,-1.0721,-1.0721,0.0,0.0,0.0,0.0,-1.0721,-1.0721,-1.0721,-1.0721,-1.0717,-1.0422,-1.028,-1.027,-0.9961,-0.9822,-0.9822,-0.9822,-0.9822,-0.9822,-0.9822,-0.9765,-0.9838,-1.1347,-1.1923,-1.206,-1.3645,-1.4196,0.0,0.0,0.0,0.0,-1.348,-1.3507,-1.3491,-1.3491,-1.3919,-1.449,-1.4981,-1.5131,-1.5274,-1.5689,-1.5784,-1.5784,-1.5784,-1.5784,-1.5784,-1.5784,-1.5784,-1.6015,-1.6716,-1.6857,-1.7091,-1.7707,-1.7994,-1.8303,-1.8902,-1.8378,0.0,-1.801,-1.7337,-1.6402,-1.5208,0.0,0.0,-1.4173,-1.3773,-1.348,-1.3227,-1.2672,-1.232,-1.2211,-1.3101,-1.3656,-1.3752,-1.4098,-1.4615,-1.5274,-1.5649,-1.6255,-1.6948,-1.6529,-1.6748,0.0,0.0,0.0,0.0,0.0,0.0,0.0,0.0,0.0,0.0,0.0,0.0,0.0,0.0,0.0,-0.596,-0.6506,-0.6836,-0.6908,-0.6406,-0.6419,-0.739,-0.8057,-0.8819,-0.9833,-1.0386,-1.0721,-1.0721,-1.0721,-1.0721,-1.0721,-1.0721,0.0,-1.0721,-1.0721,-1.0721,-1.0721,-1.0721,-1.0721,-1.0717,0.0,0.0,-1.027,-0.9961,-0.9822,-0.9822,-0.9822,-0.9822,-0.9822,-0.9822,-1.0472,-1.1532,-1.1629,-1.2512,-1.3759,-1.4083,-1.4196,-1.4196,-1.4196,-1.3879,-1.348,-1.348,-1.3507,-1.3491,-1.3491,-1.4166,0.0,-1.5083,-1.5363,-1.5689,-1.5784,-1.5784,-1.5784,-1.5784,-1.5784,-1.5784,-1.5784,-1.5784,-1.5825,-1.6015,-1.6015,-1.6062,-1.6204,-1.7286,-1.8034,-1.7841,-1.7048,-1.6572,-1.6811,-1.6057,-1.5374,-1.5131,-1.509,-1.4838,-1.4173,-1.3773,-1.348,-1.3227,-1.2904,-1.3112,-1.4033,-1.4513,-1.4955,-1.5341,-1.5437,-1.554,-1.5685,-1.6027,-1.6599,-1.7393,-1.7621,-1.7783,0.0,0.0,0.0,0.0,0.0,0.0,0.0,0.0,0.0,0.0,0.0,-0.3721,0.0,0.0,-0.6524,-0.7152,-0.7694,-0.7911,-0.7587,-0.7091,-0.6962,-0.7288,-0.8034,-0.8849,-0.964,-1.0316,-1.0721,-1.0721,-1.0721,-1.0721,-1.0721,-1.0721,-1.0721,-1.0721,-1.0721,-1.0721,-1.0721,-1.0721,-1.0721,-1.0717,-1.0493,-1.0348,-1.0273,-1.0042,-0.9893,-0.9822,-0.9822,-0.9822,-0.9808,-0.9659,-1.027,-1.1355,-1.1551,-1.2659,-1.4196,-1.4196,-1.4196,-1.4196,-1.4196,-1.3879,-1.348,-1.348,-1.3352,-1.3152,-1.3152,-1.3684,-1.4358,-1.4646,-1.507,-1.5506,-1.5737,-1.5784,-1.5784,-1.5784,-1.5784,-1.5784,-1.5784,-1.5784,-1.5784,-1.5784,-1.5784,-1.5784,-1.5784,-1.644,-1.7041,-1.7198,-1.6677,-1.6319,-1.65,-1.5813,-1.5149,-1.4858,-1.4677,-1.4461,-1.413,-1.3773,-1.354,-1.34,-1.3761,-1.4201,-1.482,-1.5594,-1.6099,-1.6334,-1.6362,-1.6362,-1.6362,-1.6718,-1.72,-1.7796,-1.8201,-1.8368,0.0,0.0,0.0,0.0,0.0,0.0,0.0,0.0,-0.35,-0.4312,-0.4587,-0.4965,-0.5862,-0.6673,-0.7491,-0.8413,-0.8703,-0.8673,-0.8233,-0.7719,-0.7388,-0.7173,-0.7921,-0.8651,-0.9383,-1.0117,-1.0585,-1.0721,-1.0721,-1.0721,-1.0721,-1.0721,-1.0721,-1.0721,-1.0721,-1.0721,-1.0721,-1.0721,-1.0721,-1.0717,-1.0565,-1.0419,-1.0276,-1.012,-0.9903,-0.9822,-0.9822,-0.9822,-0.9798,-0.9534,-0.9924,-1.0728,-1.1201,-1.231,-1.3759,-1.4083,-1.4196,-1.4196,-1.4196,-1.3906,-1.354,-1.3491,-1.3234,-1.2867,-1.2824,-1.3152,-1.3588,-1.4154,-1.4688,-1.5226,-1.5689,-1.5784,-1.5784,-1.5784,-1.5784,-1.5784,-1.5784,-1.5784,-1.5784,-1.5784,-1.5784,-1.5784,-1.5784,-1.5784,-1.6015,-1.6669,-1.6455,-1.6236,-1.6392,-1.5766,-1.5145,-1.4659,-1.4314,-1.4088,-1.4088,-1.3868,-1.3686,-1.3686,-1.458,-1.5145,-1.5302,-1.6354,-1.6945,-1.703,-1.703,-1.703,-1.703,-1.7325,-1.7717,-1.8087,-1.8399,-1.8631,0.0926,0.0968,0.063,-0.0495,-0.0625,-0.1037,0.0,0.0,-0.374,-0.4822,-0.5098,-0.5498,-0.6657,-0.7054,-0.7717,-0.9196,-0.9207,-0.8866,-0.8415,-0.7827,-0.7199,-0.6524,-0.7121,-0.7915,-0.8653,-0.9383,-1.0047,-1.0651,-1.0721,-1.0721,-1.0721,-1.0721,-1.0721,-1.0721,-1.0721,-1.0721,-1.0721,-1.0721,-1.0721,-1.0717,-1.0565,-1.0419,-1.0276,-1.012,-0.9903,-0.9822,-0.9822,-0.9822,-0.9808,-0.9649,-1.0028,-1.0682,-1.0662,-1.1159,-1.206,-1.3645,-1.4196,-1.4196,-1.4196,-1.4013,-1.375,-1.3545,-1.3292,-1.3028,-1.2872,-1.3152,-1.3588,-1.4154,-1.4688,-1.5226,-1.5689,-1.5784,-1.5784,-1.5784,-1.5784,-1.5784,-1.5784,-1.5784,-1.5784,-1.5784,-1.5784,-1.5784,-1.5784,-1.5784,-1.5832,-1.592,-1.5678,-1.5618,-1.5927,-1.5156,-1.4718,-1.5,-1.4481,-1.4088,-1.4088,-1.4055,-1.4041,-1.4041,-1.4712,-1.5389,-1.5942,-1.6684,-1.7191,-1.7415,-1.7445,-1.7445,-1.7445,-1.7484,-1.7682,-1.8012,-1.8052,-1.8492,0.0393,0.0401,0.0,0.0,-0.0971,-0.1402,-0.3382,-0.3802,-0.4062,-0.5158,-0.5408,-0.5525,-0.6087,-0.6924,-0.7772,0.0,-0.8927,-0.9003,-0.8541,-0.7901,-0.7149,-0.6386,-0.6562,-0.7229,-0.841,-0.9272,-0.9981,-1.0654,-1.0721,-1.0721,-1.0721,-1.0721,-1.0721,-1.0721,-1.0721,-1.0721,-1.0721,-1.0721,-1.0721,-1.0721,-1.0656,-1.0504,-1.028,-1.0212,-1.0049,-0.9822,-0.9822,-0.9822,-0.9812,-0.9666,-0.9808,-1.0072,-1.0379,-1.0679,-1.1159,-1.2816,-1.3428,-1.3537,-1.4029,-1.4029,-1.3782,-1.355,-1.3308,-1.306,-1.2878,-1.3152,-1.3539,-1.3775,-1.4208,-1.4736,-1.5267,-1.541,-1.5458,-1.5737,-1.5784,-1.5784,-1.5784,-1.5784,-1.5784,-1.5784,-1.5784,-1.5784,-1.5784,-1.5784,-1.5784,-1.5784,-1.5678,-1.5638,-1.5609,-1.5285,-1.4939,-1.4769,-1.4358,-1.4088,-1.4088,-1.4088,-1.4088,-1.4088,-1.4713,-1.5409,-1.6049,-1.6755,-1.7309,-1.776,-1.78,-1.78,-1.78,-1.78,-1.7837,-1.8,-1.8,-1.8193,0.0,0.0,0.0,-0.0721,-0.0855,-0.1323,-0.3155,-0.3604,-0.4015,-0.5298,-0.5573,-0.5607,-0.5739,-0.6635,0.0,-0.7903,-0.8483,-0.8724,-0.8347,-0.7734,-0.7129,-0.6343,-0.62,-0.6693,-0.8024,-0.8727,-0.941,-1.0382,-1.0452,-1.0518,-1.0721,-1.0721,-1.0721,-1.0721,-1.0721,-1.0721,-1.0721,-1.0721,-1.0721,-1.0721,-1.0721,-1.0565,-1.0276,-1.0192,-1.0032,-0.9822,-0.9822,-0.9822,-0.9812,-0.971,-0.9646,-0.9644,-1.0061,-1.0145,-1.0366,-1.1968,-1.2718,-1.3044,-1.3921,-1.4078,-1.3873,-1.3577,-1.3357,-1.3152,-1.2905,-1.3055,-1.3346,-1.3443,-1.3775,-1.4208,-1.4742,-1.4885,-1.4981,-1.5302,-1.5499,-1.5594,-1.5594,-1.5689,-1.5784,-1.5784,-1.5784,-1.5784,-1.5784,-1.5784,-1.5784,-1.5784,-1.5784,-1.5678,-1.5431,-1.5251,-1.499,-1.4563,-1.4262,-1.4088,-1.4088,-1.4088,-1.4088,-1.4088,-1.4713,-1.5333,-1.5816,-1.6476,-1.7049,-1.7456,-1.7627,-1.7749,-1.7749,-1.7919,-1.8,-1.8,-1.8,-1.8,0.0,0.0,0.0,-0.0052,-0.0054,-0.0506,-0.24,-0.2938,-0.3512,-0.5142,-0.558,-0.576,-0.6198,-0.6417,-0.6824,-0.7752,-0.804,-0.7991,-0.7604,-0.7406,-0.702,-0.6312,-0.611,-0.6345,0.0,-0.744,-0.807,-0.9637,-0.9715,-0.9981,-1.0654,-1.0721,-1.0721,-1.0721,-1.0721,-1.0721,-1.0721,-1.0721,-1.0721,-1.0721,-1.0721,-1.0565,-1.027,-0.9971,-0.9829,-0.9822,-0.9822,-0.9822,-0.9822,-0.9815,-0.9734,-0.9595,-0.9494,-0.934,-0.9416,-1.1033,-1.2169,-1.3044,-1.3921,-1.4186,-1.4105,-1.3631,-1.3475,-1.3378,-1.2953,-1.2813,-1.291,-1.3346,-1.3491,-1.3636,-1.4202,-1.4346,-1.4346,-1.4346,-1.4742,-1.5131,-1.5131,-1.5458,-1.5784,-1.5784,-1.5784,-1.5784,-1.5784,-1.5784,-1.5784,-1.5784,-1.5784,-1.5678,-1.5431,-1.4897,-1.4536,-1.4479,-1.4262,-1.4088,-1.4088,-1.4088,-1.4088,-1.4088,-1.4713,-1.509,-1.5131,-1.5775,-1.6131,-1.618,-1.6747,-1.7041,-1.7139,-1.7708,-1.8,-1.8,-1.8,-1.8,0.0,0.0,0.0,0.0,0.0,-0.0531,-0.2486,-0.2928,-0.3422,-0.5286,-0.5616,-0.5576,-0.568,-0.6127,-0.6676,-0.7105,-0.7303,-0.7412,-0.7472,-0.7003,-0.6509,-0.6252,-0.6155,0.0,0.0,0.0,0.0,-0.8903,-0.9372,-0.9494,-0.9316,-0.9782,-1.005,-1.005,-1.005,-1.025,-1.0721,-1.0721,-1.0721,-1.0717,-1.0521,-1.0378,-1.027,-0.9961,-0.9822,-0.9822,-0.9822,-0.9822,-0.9822,-0.9822,-0.9791,-0.9727,-0.9479,-0.9351,-0.9445,-1.0358,-1.1236,-1.2223,-1.3704,-1.4196,-1.4137,-1.3814,-1.3604,-1.3421,-1.3087,-1.2932,-1.2813,-1.3007,-1.3055,-1.3152,-1.363,-1.3775,-1.3871,-1.4202,-1.4448,-1.4592,-1.4592,-1.4975,-1.5315,-1.5315,-1.5594,-1.5784,-1.5784,-1.5784,-1.5784,-1.5784,-1.5665,-1.5578,-1.5671,-1.5177,-1.4816,-1.4816,-1.4549,-1.4295,-1.4108,-1.4088,-1.4088,-1.4088,-1.4299,-1.4629,-1.509,-1.5333,-1.5658,-1.609,-1.6296,-1.6427,-1.6427,-1.709,-1.7383,-1.7424,-1.7789,-1.8,-0.1276,-0.0883,-0.0395,-0.0058,-0.0297,-0.0964,-0.2589,-0.3131,-0.3777,-0.5364,-0.5545,-0.5426,-0.5306,-0.566,-0.6066,-0.6334,-0.646,-0.6683,-0.7015,-0.6585,-0.6257,-0.6231,-0.6174,0.0,0.0,0.0,0.0,-0.8166,-0.8582,-0.8703,-0.8584,-0.905,-0.9316,-0.9316,-0.9316,-0.9649,-1.0319,-1.0319,-1.0452,-1.0717,-1.0422,-1.028,-1.027,-0.9961,-0.9822,-0.9822,-0.9822,-0.9822,-0.9822,-0.9822,-0.9822,-0.9795,-0.9557,-0.9429,-0.9466,-1.0055,-1.0634,-1.135,-1.3098,-1.3921,-1.4153,-1.39,-1.3717,-1.354,-1.3206,-1.3001,-1.2867,-1.2835,-1.2813,-1.2861,-1.3152,-1.3249,-1.3346,-1.3673,-1.3865,-1.4016,-1.4016,-1.4448,-1.479,-1.479,-1.522,-1.5553,-1.5553,-1.5689,-1.5784,-1.5784,-1.5671,-1.5618,-1.5758,-1.5418,-1.5117,-1.5117,-1.4856,-1.4603,-1.4459,-1.4402,-1.4402,-1.4402,-1.4402,-1.4611,-1.5041,-1.4929,-1.5078,-1.5528,-1.5668,-1.5733,-1.5733,-1.664,-1.7049,-1.709,-1.7708,-1.8068,-0.1662,-0.1349,-0.1139,-0.0298,-0.0784,-0.1687,-0.2531,-0.3547,-0.4503,-0.5207,-0.5363,-0.5294,0.0,0.0,-0.5204,-0.5508,-0.5712,-0.5906,-0.6266,-0.6247,-0.6225,0.0,0.0,0.0,0.0,0.0,0.0,-0.73,0.0,-0.7777,-0.8454,-0.852,-0.852,-0.852,-0.852,-0.8917,-0.9712,-0.9715,-1.0047,-1.0717,-1.0422,-1.028,-1.027,-0.9961,-0.9822,-0.9822,-0.9822,-0.9822,-0.9822,-0.9822,-0.9822,-0.9805,-0.9663,-0.9517,-0.9476,-1.0167,-1.0337,-1.0468,-1.2223,-1.3428,-1.4099,-1.3916,-1.382,-1.3717,-1.326,-1.3109,-1.3039,-1.2872,-1.2813,-1.2813,-1.2813,-1.2813,-1.2813,-1.2813,-1.3152,-1.3443,-1.3443,-1.3871,-1.425,-1.425,-1.4688,-1.5083,-1.5083,-1.5404,-1.573,-1.5784,-1.5784,-1.5784,-1.5784,-1.5585,-1.5418,-1.5398,-1.515,-1.5022,-1.5008,-1.5008,-1.5008,-1.5008,-1.5008,-1.5008,-1.5008,-1.4696,-1.4543,-1.4543,-1.4908,-1.5091,-1.5098,-1.6358,-1.6967,-1.7008,-1.7677,-1.8239,-0.332,-0.2381,-0.1369,-0.1158,-0.1215,-0.1445,-0.1747,-0.2929,-0.4093,-0.4323,-0.4632,-0.4867,0.0,0.0,0.0,-0.5233,-0.559,0.0,-0.6266,-0.6355,0.0,-0.6323,0.0,-0.5088,-0.5134,-0.4437,0.0,0.0,-0.6717,-0.7306,-0.7051,-0.7517,-0.7781,-0.7781,-0.7781,-0.8382,-0.9712,-1.0183,-1.0518,-1.0717,-1.0422,-1.028,-1.027,-0.9961,-0.9822,-0.9822,-0.9822,-0.9822,-0.9822,-0.9822,-0.9822,-0.9805,-0.9663,-0.9517,-0.9422,-0.9493,-0.9839,-1.0363,-1.1514,-1.2495,-1.331,-1.3901,-1.3857,-1.3545,-1.3421,-1.3136,-1.2889,-1.2829,-1.2813,-1.2813,-1.2813,-1.2813,-1.2813,-1.2813,-1.291,-1.2958,-1.2958,-1.3346,-1.3678,-1.3678,-1.416,-1.4496,-1.4496,-1.4586,-1.4825,-1.522,-1.5267,-1.541,-1.5784,-1.5718,-1.5631,-1.5418,-1.5331,-1.5197,-1.5028,-1.5008,-1.5008,-1.5008,-1.5008,-1.5008,-1.5008,-1.4934,-1.485,-1.485,-1.4953,-1.5052,-1.5052,-1.5813,-1.6502,-1.7114,-1.7766,-1.8421,-0.4224,-0.3445,-0.2659,-0.2271,-0.2131,-0.2039,-0.2072,-0.2741,-0.3512,-0.3726,-0.3989,0.0,0.0,0.0,0.0,0.0,0.0,0.0,-0.6155,-0.6347,-0.6502,0.0,-0.5419,0.0,-0.4719,-0.3814,-0.343,0.0,-0.547,-0.6332,-0.6518,-0.6853,-0.7051,-0.7051,-0.7051,-0.7784,-0.9183,-0.9918,-1.0386,-1.0717,-1.0422,-1.028,-1.027,-0.9961,-0.9822,-0.9822,0.0,-0.9822,-0.9822,-0.9822,-0.9822,-0.9815,-0.9734,-0.9571,-0.9371,-0.9344,-0.9455,-0.9757,-1.0692,-1.1568,-1.255,-1.3807,-1.3938,-1.361,-1.3513,-1.3217,-1.2888,-1.284,-1.2813,-1.2813,-1.2813,-1.2813,-1.2813,-1.2813,-1.2813,-1.2813,-1.2813,-1.3007,-1.3249,-1.3443,-1.3727,-1.401,-1.425,-1.4298,-1.4394,-1.4688,-1.4939,-1.5178,-1.5458,-1.5689,-1.5718,-1.5605,-1.5585,-1.5518,-1.5357,-1.5344,-1.5344,-1.5344,-1.5344,-1.5344,-1.5344,-1.5217,-1.5202,-1.5202,-1.5075,-1.5008,-1.5008,-1.562,-1.6323,-1.7115,-1.7414,-1.8243,-0.4644,-0.4403,-0.4121,-0.3376,-0.3156,-0.3029,-0.2716,-0.2779,-0.3015,-0.3266,0.0,-0.361,-0.4144,0.0,-0.4628,-0.4908,0.0,-0.5671,-0.5966,-0.6282,-0.6508,-0.652,-0.5377,-0.4571,-0.4571,-0.3496,-0.2825,-0.2959,-0.3833,-0.4839,-0.5982,-0.6185,-0.6252,-0.6252,-0.652,-0.7187,-0.8454,-0.9316,-0.9915,-1.0449,-1.0354,-1.028,-1.0139,-0.9899,-0.9822,-0.9822,0.0,0.0,-0.9822,-0.9822,-0.9822,-0.9819,-0.9798,-0.9625,-0.9381,-0.9357,-0.9178,-0.9047,-0.9923,-1.0747,-1.1678,-1.3483,-1.3896,-1.3739,-1.354,-1.3281,-1.3017,-1.2867,-1.2813,-1.2813,-1.2813,-1.2813,-1.2813,-1.2813,-1.2813,-1.2813,-1.2813,-1.2813,-1.291,-1.3346,-1.3394,-1.3534,-1.401,-1.4106,-1.4106,-1.4202,-1.4598,-1.4939,-1.5083,-1.5499,-1.5784,-1.5784,-1.5784,-1.5784,-1.5784,-1.5784,-1.5784,-1.5784,-1.5784,-1.5784,-1.5784,-1.5585,-1.5451,-1.5451,-1.5204,-1.5122,-1.5122,-1.5611,-1.6313,-1.7069,-1.6965,-1.7835,-0.5568,-0.4985,-0.4363,-0.4189,-0.4002,-0.3467,-0.2071,-0.2732,0.0,0.0,0.0,-0.3325,-0.3863,-0.4175,0.0,-0.4802,0.0,0.0,0.0,0.0,-0.6368,0.0,0.0,0.0,0.0,0.0,0.0,0.0,0.0,0.0,-0.3698,-0.4638,-0.5109,-0.5109,-0.6512,-0.745,-0.7715,-0.9047,-0.9449,-0.8984,-0.9903,-0.9958,-0.937,-0.9649,-0.9822,-0.9822,0.0,0.0,-0.9822,-0.9822,-0.9822,-0.9808,-0.9693,-0.9537,-0.9364,-0.9296,-0.9086,-0.9047,-0.9923,-1.0308,-1.0743,-1.255,-1.3307,-1.3529,-1.3491,-1.3224,-1.2862,-1.2824,-1.2813,-1.2813,-1.2813,-1.2813,-1.2813,-1.2813,-1.2813,-1.2813,-1.2813,-1.2813,-1.2813,-1.291,-1.291,-1.2953,-1.305,-1.305,-1.3195,-1.3582,-1.3732,-1.4118,-1.4987,-1.5499,-1.5784,-1.5784,-1.5784,-1.5784,-1.5784,-1.5784,-1.5784,-1.5784,-1.5784,-1.5784,-1.5784,-1.5785,-1.5752,-1.5752,-1.5705,-1.5678,-1.5678,-1.5772,-1.6234,-1.7011,-1.7011,-1.7465,-0.5755,-0.5483,-0.5177,-0.5177,-0.4641,-0.3762,-0.2557,0.0,0.0,0.0,0.0,-0.298,-0.3265,0.0,0.0,0.0,0.0,0.0,0.0,0.0,0.0,0.0,0.0,0.0,0.0,0.0,0.0,0.0,0.0,0.0,-0.3967,-0.5109,-0.5444,-0.4839,-0.6246,-0.7116,-0.7514,-0.8179,-0.8781,-0.918,-0.9183,-0.9379,-0.9755,-0.9406,-0.9457,-0.9822,0.0,0.0,-0.9822,-0.9822,-0.9822,-0.9805,-0.9663,-0.9517,-0.9361,-0.9265,-0.9062,-0.894,-0.9375,-0.9816,-1.0363,-1.1236,-1.1838,-1.2287,-1.2699,-1.2535,-1.2273,-1.2667,-1.2521,-1.2273,-1.2716,-1.2467,-1.2273,-1.271,-1.2813,-1.2813,-1.2813,-1.2813,-1.2813,-1.2813,-1.2813,-1.2813,-1.2813,-1.2813,-1.2861,-1.3104,-1.3346,-1.3781,-1.4592,-1.5118,-1.5553,-1.5784,-1.5784,-1.5784,-1.5784,-1.5784,-1.5784,-1.5784,-1.5784,-1.5784,-1.5784,-1.5784,-1.5784,-1.5784,-1.5784,-1.5784,-1.5784,-1.5784,-1.6204,-1.699,-1.6574,-1.6998,-0.551,-0.5726,-0.5912,-0.5894,-0.5031,-0.4,-0.3158,-0.2364,0.0,0.0,-0.1714,-0.2454,-0.2887,0.0,0.0,0.0,0.0,0.0,0.0,0.0,0.0,0.0,0.0,0.0,0.0,0.0,0.0,0.0,0.0,0.0,0.0,-0.4973,-0.5175,-0.4504,-0.558,-0.6516,-0.725,-0.7448,-0.7969,-0.8938,-0.8452,-0.8658,-0.9586,-0.9023,-0.9095,-0.9579,0.0,0.0,0.0,-0.9822,-0.9822,-0.9802,-0.9629,-0.9486,-0.9357,-0.9174,-0.9035,-0.8885,-0.8885,-0.9323,-0.9923,-0.9923,-1.0419,-1.1145,-1.1775,-1.1805,-1.1742,-1.2137,-1.1932,-1.1731,-1.237,-1.1932,-1.1536,-1.237,-1.2662,-1.2813,-1.2813,-1.2813,-1.2813,-1.2813,-1.2813,-1.2813,-1.2813,-1.2813,-1.2813,-1.2813,-1.3104,-1.3539,-1.4058,-1.4502,-1.4933,-1.5445,-1.5683,-1.5784,-1.5784,-1.5784,-1.5784,-1.5784,-1.5784,-1.5784,-1.5784,-1.5784,-1.5784,-1.5784,-1.5784,-1.5784,-1.5784,-1.5784,-1.6103,-1.6716,-1.6244,-1.6629,-0.4719,-0.5177,-0.5898,-0.5814,-0.5006,-0.3931,-0.3048,0.0,0.0,-0.1565,-0.1317,-0.1558,-0.3226,-0.3327,0.0,0.0,0.0,0.0,0.0,0.0,0.0,0.0,0.0,0.0,0.0,0.0,0.0,0.0,0.0,0.0,0.0,-0.2016,-0.2419,-0.3295,-0.437,-0.5512,-0.6587,-0.7183,-0.7201,-0.6655,-0.7706,-0.7912,-0.7308,-0.8362,-0.8851,-0.8912,0.0,0.0,0.0,-0.9822,-0.9822,-0.9791,-0.951,-0.9395,-0.9347,-0.9062,-0.8895,-0.8885,-0.8885,-0.8937,-0.8992,-0.8992,-1.0012,-1.1155,-1.1145,-1.1443,-1.1625,-1.0852,-1.1096,-1.1639,-1.1688,-1.1096,-1.0703,-1.1536,-1.2273,-1.2813,-1.2813,-1.2813,-1.2813,-1.2813,-1.2813,-1.2813,-1.2813,-1.2813,-1.2813,-1.2813,-1.2861,-1.3055,-1.3491,-1.3636,-1.3829,-1.4394,-1.5255,-1.5784,-1.5784,-1.5784,-1.5784,-1.5784,-1.5784,-1.5784,-1.5784,-1.5784,-1.5784,-1.5784,-1.5784,-1.5784,-1.5784,-1.5784,-1.5825,-1.592,-1.6574,-1.6574,-0.4128,-0.4591,-0.4855,-0.428,-0.418,-0.3791,-0.2346,0.0,-0.1593,-0.1269,-0.1314,-0.1644,-0.2421,-0.2781,-0.3117,0.0,0.0,0.0,0.0,0.0,0.0,0.0,0.0,0.0,0.0,0.0,0.0,0.0,0.0,0.0,0.0,-0.2486,-0.3159,-0.2286,-0.3294,-0.437,-0.5444,-0.5728,-0.6215,-0.6972,-0.6876,-0.734,-0.8293,-0.8234,-0.8665,-0.9396,0.0,0.0,0.0,-0.9822,-0.9771,-0.9673,-0.9462,-0.9323,-0.9275,-0.9015,-0.8885,-0.8885,-0.8885,-0.8994,-0.9052,-0.8912,-0.9393,-1.0025,-1.0289,-1.0366,-1.0369,-1.0497,-1.0339,-1.0252,-1.0752,-1.0998,-1.1194,-1.1536,-1.2224,-1.2813,-1.2813,-1.2813,-1.2813,-1.2813,-1.2813,-1.2813,-1.2813,-1.2813,-1.2813,-1.2813,-1.2813,-1.2958,-1.3443,-1.3491,-1.3727,-1.425,-1.4927,-1.5363,-1.5363,-1.5642,-1.5784,-1.5784,-1.5784,-1.5784,-1.5784,-1.5784,-1.5784,-1.5784,-1.5784,-1.5784,-1.5784,-1.5784,-1.5784,-1.5832,-1.6109,-1.6109,-0.3559,-0.4187,-0.4508,-0.3599,-0.3548,-0.3364,0.0,0.0,-0.1327,-0.0976,-0.1071,-0.1337,-0.1796,-0.2249,-0.2698,0.0,0.0,-0.4469,0.0,0.0,0.0,0.0,0.0,0.0,0.0,0.0,0.0,0.0,0.0,0.0,0.0,0.0,-0.3159,-0.168,-0.2353,-0.3221,-0.4343,-0.4563,-0.5174,-0.6104,-0.6047,-0.6721,-0.7983,-0.7905,-0.848,0.0,0.0,0.0,0.0,-0.9822,-0.9737,-0.9595,-0.9442,-0.9347,-0.919,-0.8991,-0.8885,-0.8885,-0.8885,-0.9005,-0.9072,-0.8971,-0.9008,-0.9161,-0.9486,-0.9599,-0.9606,-0.9861,-0.955,-0.9266,-0.962,-1.0654,-1.1541,-1.1292,-1.2029,-1.2813,-1.2813,-1.2813,-1.2813,-1.2813,-1.2813,-1.2813,-1.2813,-1.2813,-1.2813,-1.2813,-1.2813,-1.291,-1.3249,-1.3298,-1.3437,-1.3817,-1.431,-1.4694,-1.4838,-1.5166,-1.5397,-1.5594,-1.5594,-1.5642,-1.5778,-1.5784,-1.5784,-1.5784,-1.5784,-1.5784,-1.5784,-1.5784,-1.5784,-1.5832,-1.6062,-1.6157,-0.3026,-0.4139,-0.526,-0.4387,-0.3484,-0.2551,0.0,-0.0638,-0.0175,-0.0761,-0.0432,-0.0392,-0.1685,-0.192,-0.219,-0.296,-0.379,0.0,0.0,0.0,0.0,0.0,0.0,0.0,0.0,0.0,0.0,0.0,0.0,0.0,0.0,0.0,-0.1613,-0.1613,-0.1613,-0.2137,-0.3227,-0.4213,-0.4151,-0.3152,-0.5107,-0.5813,-0.5473,-0.7133,0.0,0.0,0.0,0.0,0.0,-0.9822,-0.9737,-0.9595,-0.9442,-0.9347,-0.919,-0.8991,-0.8885,-0.8885,-0.8885,-0.8885,-0.8885,-0.8885,-0.8885,-0.8885,-0.8881,-0.9367,-0.9701,-0.8608,-0.8754,-0.9019,-0.8233,-0.9813,-1.1389,-1.0609,-1.1634,-1.2813,-1.2813,-1.2813,-1.2813,-1.2813,-1.2813,-1.2813,-1.2813,-1.2813,-1.2813,-1.2813,-1.2813,-1.2813,-1.2813,-1.2813,-1.2813,-1.2813,-1.3249,-1.3727,-1.425,-1.4298,-1.4544,-1.5083,-1.5131,-1.5315,-1.5784,-1.5784,-1.5784,-1.5784,-1.5784,-1.5784,-1.5784,-1.5784,-1.5784,-1.5825,-1.6622,-1.6998,-0.1906,-0.2646,-0.3243,-0.1703,-0.1647,-0.1665,-0.0637,-0.0179,-0.0175,-0.0761,-0.0432,-0.0236,-0.1059,-0.1217,-0.1336,-0.1727,-0.2905,0.0,0.0,0.0,0.0,0.0,0.0,0.0,0.0,0.0,0.0,0.0,0.0,0.0,0.0,0.0,-0.0538,-0.0538,-0.0538,-0.1002,-0.2108,-0.2348,-0.2699,-0.3087,-0.3678,-0.4453,-0.5412,-0.6455,0.0,0.0,0.0,0.0,0.0,-0.9822,-0.9676,-0.9449,-0.9401,-0.9228,-0.9001,-0.8898,-0.8885,-0.8885,-0.8885,-0.9001,-0.9069,-0.8971,-0.9005,-0.9066,-0.8967,-0.8995,-0.8966,-0.8457,-0.8358,-0.8333,-0.8088,-0.9373,-1.0703,-1.0458,-1.1634,-1.2813,-1.2813,-1.2813,-1.2813,-1.2813,-1.2813,-1.2813,-1.2813,-1.2813,-1.2813,-1.2813,-1.2813,-1.2813,-1.2813,-1.2813,-1.2813,-1.2813,-1.291,-1.3195,-1.3727,-1.4106,-1.4394,-1.4544,-1.4885,-1.5178,-1.5315,-1.5642,-1.5784,-1.5784,-1.5784,-1.5784,-1.5784,-1.5784,-1.5784,-1.5832,-1.6062,-1.6204,-0.1761,-0.2116,-0.2321,-0.0869,-0.0969,-0.1196,-0.0219,0.0,-0.0086,-0.0479,-0.0275,-0.0118,-0.051,-0.0751,-0.0934,-0.108,-0.2164,0.0,0.0,0.0,0.0,0.0,0.0,0.0,0.0,0.0,0.0,0.0,0.0,0.0,0.0,0.0,0.0,0.0,0.0,-0.0332,-0.0981,-0.1353,-0.165,-0.1937,-0.266,-0.3632,-0.4858,0.0,0.0,0.0,0.0,0.0,0.0,-0.9822,-0.9683,-0.9462,-0.9405,-0.9232,-0.9015,-0.8902,-0.8885,-0.8885,-0.8885,-0.8998,-0.9055,-0.8967,-0.8998,-0.9055,-0.8964,-0.8791,-0.8584,-0.8401,-0.8201,-0.7988,-0.7988,-0.8977,-1.001,-1.031,-1.1389,-1.2419,-1.2716,-1.2813,-1.2813,-1.2813,-1.2813,-1.2813,-1.2813,-1.2813,-1.2813,-1.2813,-1.2813,-1.2813,-1.2813,-1.2813,-1.2813,-1.2813,-1.2813,-1.291,-1.3201,-1.3534,-1.3817,-1.3968,-1.4304,-1.4694,-1.5083,-1.5363,-1.5642,-1.5784,-1.5784,-1.5784,-1.5784,-1.5784,-1.5784,-1.5784,-1.5784,-1.5784,0.0,-0.2333,-0.2284,-0.1413,-0.1189,-0.0993,-0.0169,0.0,0.0,0.0,0.0,0.0,0.0,-0.044,-0.085,-0.0841,-0.1567,0.0,0.0,0.0,0.0,0.0,0.0,0.0,0.0,0.0,0.0,0.0,0.0,0.0,0.0,0.0,0.0,0.0,0.0,0.0,0.0,-0.0953,-0.0939,0.0,-0.191,-0.314,-0.3875,0.0,0.0,0.0,0.0,0.0,0.0,-0.9758,-0.973,-0.9581,-0.9439,-0.9279,-0.9176,-0.8988,-0.8885,-0.8885,-0.8885,-0.8885,-0.8885,-0.8885,-0.8885,-0.8885,-0.8885,-0.8723,-0.8482,-0.8482,-0.8269,-0.7988,-0.7988,-0.8577,-0.9365,-1.0162,-1.0949,-1.1785,-1.2565,-1.2764,-1.2813,-1.2813,-1.2813,-1.2813,-1.2813,-1.2813,-1.2813,-1.2813,-1.2813,-1.2813,-1.2813,-1.2813,-1.2813,-1.2813,-1.2813,-1.2813,-1.2813,-1.2813,-1.3007,-1.3443,-1.3491,-1.3925,-1.4939,-1.5035,-1.5267,-1.5683,-1.5737,-1.5737,-1.5737,-1.5784,-1.5784,-1.5784,-1.5784,-1.5784,-0.2371,0.0,-0.1336,-0.0508,-0.0323,-0.0247,0.0,0.0,0.0,0.0,0.0,0.0,0.0,-0.0122,-0.021,-0.0231,0.0,0.0,0.0,0.0,0.0,0.0,0.0,0.0,0.0,0.0,0.0,0.0,0.0,0.0,0.0,0.0,0.0,0.0,0.0,0.0,0.0,-0.0253,-0.0251,0.0,-0.0494,-0.1602,-0.3263,0.0,0.0,0.0,0.0,0.0,-0.9095,-0.9579,-0.9669,-0.9432,-0.9395,-0.9222,-0.8984,-0.8895,-0.8885,-0.8885,-0.8885,-0.8885,-0.8885,-0.8885,-0.8885,-0.8885,-0.8885,-0.8723,-0.8482,-0.8482,-0.8269,-0.7988,-0.7988,-0.8577,-0.9266,-0.9414,-1.0551,-1.1639,-1.1834,-1.237,-1.2813,-1.2813,-1.2813,-1.2813,-1.2813,-1.2813,-1.2813,-1.2813,-1.2813,-1.2813,-1.2813,-1.2813,-1.2813,-1.2813,-1.2813,-1.2813,-1.2813,-1.2813,-1.2861,-1.2958,-1.3298,-1.3588,-1.3877,-1.4256,-1.4538,-1.4634,-1.507,-1.5267,-1.5274,-1.5642,-1.5784,-1.5784,-1.5784,-1.5784,-0.2402,-0.1741,-0.0991,-0.0926,-0.0677,-0.0531,-0.0905,-0.0712,-0.0396,-0.0419,0.0,0.0,0.0,0.0,0.0,0.0,0.0,0.0,0.0,0.0,0.0,0.0,0.0,0.0,0.0,0.0,0.0,0.0,0.0,0.0,0.0,0.0,0.0,0.0,0.0,0.0,0.0,0.0,0.0,0.0,0.0,-0.1048,-0.3018,0.0,0.0,0.0,0.0,0.0,-0.8851,-0.9518,-0.969,-0.9479,-0.9408,-0.9239,-0.9028,-0.8908,-0.8885,-0.8885,-0.8885,-0.8885,-0.8885,-0.8885,-0.8885,-0.8885,-0.8885,-0.8723,-0.8482,-0.8482,-0.8269,-0.7988,-0.7988,-0.8333,-0.8726,-0.9118,-0.9858,-1.0699,-1.1438,-1.1927,-1.237,-1.2716,-1.2813,-1.2813,-1.2813,-1.2813,-1.2813,-1.2813,-1.2813,-1.2813,-1.2813,-1.2813,-1.2813,-1.2813,-1.2813,-1.2813,-1.2813,-1.2813,-1.2813,-1.2813,-1.3055,-1.3298,-1.3491,-1.3775,-1.4058,-1.4298,-1.4592,-1.4736,-1.4736,-1.4968,-1.5112,-1.5112,-1.5112,-1.5112,-0.2555,-0.1873,-0.1262,-0.1798,-0.1513,-0.1299,-0.1991,0.0,0.0,0.0,0.0,0.0,0.0,-0.0085,0.0,0.0,0.0,0.0,0.0,0.0,0.0,0.0,0.0,0.0,0.0,0.0,0.0,0.0,0.0,0.0,0.0,0.0,0.0,0.0,0.0,0.0,0.0,0.0,0.0,0.0,0.0,-0.0987,-0.2772,-0.3447,0.0,0.0,0.0,0.0,-0.8543,-0.9214,-0.9483,-0.9383,-0.9312,-0.9215,-0.9163,-0.8984,-0.8885,-0.8885,-0.8885,-0.8885,-0.8885,-0.8885,-0.8885,-0.8885,-0.8885,-0.8723,-0.8482,-0.8482,-0.8269,-0.7988,-0.7988,-0.7988,-0.8187,-0.8874,-0.9118,-0.9562,-1.0944,-1.134,-1.1639,-1.2467,-1.2619,-1.2667,-1.2764,-1.2813,-1.2813,-1.2813,-1.2813,-1.2813,-1.2813,-1.2813,-1.2813,-1.2813,-1.2813,-1.2813,-1.2813,-1.2813,-1.2813,-1.2813,-1.2813,-1.2958,-1.3394,-1.3394,-1.363,-1.4058,-1.4154,-1.4154,-1.4154,-1.425,-1.4298,-1.4298,-1.4298,-1.4298,-0.3356,-0.2954,-0.2367,-0.1881,-0.1911,-0.207,-0.2027,-0.2012,0.0,0.0,0.0,0.0,0.0,0.0,0.0,0.0,0.0,0.0,0.0,0.0,0.0,0.0,0.0,0.0,0.0,0.0,0.0,0.0,0.0,0.0,0.0,0.0,0.0,0.0,0.0,0.0,0.0,0.0,0.0,0.0,0.0,-0.0617,-0.1787,-0.271,-0.3756,0.0,0.0,-0.7194,-0.7255,-0.793,-0.8339,-0.8589,-0.8567,-0.8695,-0.8967,-0.8892,-0.8885,-0.8885,-0.8885,-0.8885,-0.8885,-0.8885,-0.8885,-0.8885,-0.8885,-0.8723,-0.8482,-0.8482,-0.8269,-0.7988,-0.7988,-0.7988,-0.8038,-0.8137,-0.8726,-0.9266,-0.9509,-1.0109,-1.0801,-1.1634,-1.178,-1.198,-1.2667,-1.2813,-1.2813,-1.2813,-1.2813,-1.2813,-1.2813,-1.2813,-1.2813,-1.2813,-1.2813,-1.2813,-1.2813,-1.2813,-1.2813,-1.2813,-1.2813,-1.2813,-1.291,-1.291,-1.2953,-1.305,-1.3437,-1.363,-1.363,-1.4058,-1.4298,-1.4298,-1.4298,-1.4298,-0.3436,-0.3412,-0.3285,-0.2961,-0.2911,-0.2996,-0.3341,-0.3095,-0.2865,0.0,0.0,0.0,0.0,0.0,0.0,0.0,0.0,0.0,0.0,0.0,0.0,0.0,0.0,0.0,0.0,0.0,0.0,0.0,0.0,0.0,0.0,0.0,0.0,0.0,0.0,0.0,0.0,0.0,0.0,0.0,0.0,-0.0555,-0.1541,-0.2525,-0.3511,0.0,0.0,-0.6858,-0.6868,-0.7533,-0.7808,-0.7878,-0.7878,-0.7933,-0.7989,-0.8325,-0.8436,-0.8436,-0.8771,-0.8885,-0.8885,-0.8885,-0.8885,-0.8885,-0.8885,-0.8723,-0.8482,-0.8482,-0.8269,-0.7988,-0.7988,-0.7988,-0.7988,-0.7988,-0.8283,-0.8676,-0.9118,-0.9813,-1.0659,-1.1438,-1.1932,-1.237,-1.2764,-1.2813,-1.2813,-1.2813,-1.2419,-1.2175,-1.2175,-1.1785,-1.1683,-1.2127,-1.2175,-1.2322,-1.2764,-1.2813,-1.2813,-1.2813,-1.2813,-1.2813,-1.2813,-1.2813,-1.2813,-1.2813,-1.3007,-1.3104,-1.3104,-1.3389,-1.3485,-1.3485,-1.3485,-1.3485,-0.3383,-0.3612,-0.3808,-0.3924,-0.3784,-0.3743,-0.4389,-0.4064,-0.3668,0.0,0.0,0.0,0.0,0.0,0.0,0.0,0.0,0.0,0.0,0.0,0.0,0.0,0.0,0.0,0.0,0.0,0.0,0.0,0.0,0.0,0.0,0.0,0.0,0.0,0.0,0.0,0.0,0.0,0.0,0.0,0.0,-0.0432,-0.1171,-0.2394,-0.337,-0.4107,-0.5855,-0.6594,-0.6584,-0.6995,-0.7173,-0.7166,-0.7166,-0.7204,-0.7265,-0.782,-0.7989,-0.81,-0.8716,-0.8885,-0.8885,-0.8885,-0.8885,-0.8885,-0.8885,-0.875,-0.8533,-0.8533,-0.8323,-0.8035,-0.7998,-0.7988,-0.7988,-0.7988,-0.7988,-0.8187,-0.8775,-0.9418,-1.0064,-1.0895,-1.1531,-1.2024,-1.2224,-1.2224,-1.2224,-1.2224,-1.1731,-1.134,-1.134,-1.0801,-1.0703,-1.1487,-1.1585,-1.1932,-1.2716,-1.2813,-1.2813,-1.2813,-1.2813,-1.2813,-1.2813,-1.2813,-1.2813,-1.2813,-1.2813,-1.2813,-1.2813,-1.2813,-1.2813,-1.2813,-1.2813,-1.2813,-0.3514,-0.3582,-0.372,-0.4067,-0.4177,-0.42,-0.4362,-0.4388,0.0,-0.4548,0.0,0.0,0.0,0.0,0.0,0.0,0.0,0.0,0.0,0.0,0.0,0.0,0.0,0.0,0.0,0.0,0.0,0.0,0.0,0.0,0.0,0.0,0.0,0.0,0.0,0.0,0.0,0.0,0.0,0.0,0.0,-0.0062,-0.0185,-0.2005,-0.2838,-0.3015,-0.4868,-0.5718,-0.5712,-0.5712,-0.606,-0.6479,-0.6479,-0.6753,-0.7265,-0.782,-0.7989,-0.81,-0.8716,-0.8885,-0.8885,-0.8885,-0.8885,-0.8885,-0.8885,-0.8825,-0.8696,-0.8696,-0.8482,-0.8221,-0.8025,-0.7988,-0.7988,-0.7988,-0.7988,-0.8041,-0.8088,-0.8137,-0.8432,-0.9217,-0.941,-0.971,-1.0458,-1.056,-1.056,-1.056,-1.0511,-1.0511,-1.0511,-1.0462,-1.0703,-1.1487,-1.1585,-1.1932,-1.2716,-1.2813,-1.2813,-1.2813,-1.2813,-1.2813,-1.2813,-1.2813,-1.2813,-1.2813,-1.2813,-1.2813,-1.2813,-1.2813,-1.2813,-1.2813,-1.2813,-1.2813,-0.3291,-0.3463,-0.3649,-0.394,-0.4128,0.0,0.0,-0.4604,-0.4669,-0.4847,-0.4302,0.0,0.0,0.0,0.0,0.0,0.0,0.0,0.0,0.0,0.0,0.0,0.0,0.0,0.0,0.0,0.0,0.0,0.0,0.0,0.0,0.0,0.0,0.0,0.0,0.0,0.0,0.0,0.0,0.0,0.0,0.0,-0.0061,-0.1934,-0.2818,-0.2909,-0.4776,-0.5552,-0.5559,-0.5559,-0.5622,-0.5766,-0.5766,-0.5913,-0.6158,-0.671,-0.7154,-0.7598,-0.8159,-0.8602,-0.8885,-0.8885,-0.8885,-0.8885,-0.8885,-0.8832,-0.8693,-0.8594,-0.8425,-0.8306,-0.8197,-0.8113,-0.7988,-0.7988,-0.7988,-0.7988,-0.7988,-0.8382,-0.8825,-0.9118,-0.9612,-1.0064,-1.0364,-1.0413,-1.0413,-1.0413,-0.9961,-0.9661,-0.9661,-0.9221,-0.9221,-1.0006,-1.0993,-1.1932,-1.2716,-1.2813,-1.2813,-1.2813,-1.2813,-1.2813,-1.2813,-1.2813,-1.2813,-1.2813,-1.2813,-1.2813,-1.2813,-1.2813,-1.2813,-1.2813,-1.2813,-1.2813,-0.3252,-0.3444,-0.3639,-0.3889,0.0,0.0,-0.4561,-0.4728,-0.4869,-0.499,-0.4643,0.0,0.0,0.0,0.0,0.0,0.0,0.0,0.0,0.0,0.0,0.0,0.0,0.0,0.0,0.0,0.0,0.0,0.0,0.0,0.0,0.0,0.0,0.0,0.0,0.0,0.0,0.0,0.0,0.0,0.0,0.0,-0.006,-0.1608,-0.2479,-0.2861,-0.441,-0.5236,-0.5467,-0.5467,-0.5435,-0.5382,-0.5382,-0.5382,-0.5491,-0.6098,-0.6541,-0.6988,-0.7543,-0.8045,-0.838,-0.8549,-0.8605,-0.866,-0.883,-0.8811,-0.876,-0.8655,-0.8486,-0.8336,-0.8336,-0.8187,-0.7988,-0.7988,-0.7988,-0.7988,-0.7988,-0.8432,-0.8821,-0.8821,-0.927,-0.962,-0.962,-0.962,-0.962,-0.962,-0.9171,-0.8821,-0.8821,-0.8333,-0.8283,-0.9118,-1.0404,-1.1536,-1.237,-1.2419,-1.2516,-1.2759,-1.2813,-1.2813,-1.2813,-1.2813,-1.2813,-1.2813,-1.2813,-1.2813,-1.2813,-1.2813,-1.2813,-1.2813,-1.2813,-1.2813,-0.3397,-0.3491,-0.3655,0.0,0.0,0.0,-0.4628,-0.4775,-0.4837,-0.5071,0.0,-0.5108,0.0,0.0,0.0,0.0,0.0,0.0,0.0,0.0,0.0,0.0,0.0,0.0,0.0,0.0,0.0,0.0,0.0,0.0,0.0,0.0,0.0,0.0,0.0,0.0,0.0,0.0,0.0,0.0,0.0,0.0,-0.0059,-0.0927,-0.1839,-0.2754,-0.3608,-0.4536,-0.5382,-0.5382,-0.5382,-0.5382,-0.5382,-0.5382,-0.5491,-0.6098,-0.6318,-0.6374,-0.6988,-0.721,-0.7265,-0.7823,-0.7989,-0.81,-0.8716,-0.8881,-0.8881,-0.8881,-0.8716,-0.8482,-0.8479,-0.8262,-0.7992,-0.7988,-0.7988,-0.7988,-0.7988,-0.7988,-0.7988,-0.7988,-0.7988,-0.7988,-0.7988,-0.7988,-0.7988,-0.7988,-0.7988,-0.7988,-0.7988,-0.7988,-0.8283,-0.9118,-0.9912,-1.0703,-1.1536,-1.1585,-1.1927,-1.2764,-1.2813,-1.2813,-1.2813,-1.2813,-1.2813,-1.2813,-1.2813,-1.2813,-1.2813,-1.2813,-1.2813,-1.2813,-1.2759,-1.2764,-0.3239,-0.3442,0.0,-0.3903,0.0,0.0,0.0,-0.4867,0.0,0.0,0.0,0.0,0.0,0.0,0.0,0.0,0.0,0.0,0.0,0.0,0.0,0.0,0.0,0.0,0.0,0.0,0.0,0.0,0.0,0.0,0.0,0.0,0.0,0.0,0.0,0.0,0.0,0.0,0.0,0.0,0.0,0.0,-0.0058,-0.0922,-0.1827,-0.2764,-0.3646,-0.4536,-0.5382,-0.5382,-0.5382,-0.5382,-0.5382,-0.5382,-0.5437,-0.5603,-0.5933,-0.6318,-0.6485,-0.6821,-0.721,-0.7376,-0.7432,-0.7487,-0.7657,-0.7989,-0.8247,-0.8147,-0.8386,-0.8594,-0.8387,-0.8269,-0.8174,-0.8015,-0.7988,-0.7988,-0.7988,-0.7988,-0.7988,-0.7988,-0.7988,-0.7988,-0.7988,-0.7988,-0.7988,-0.7988,-0.7988,-0.7988,-0.7988,-0.7988,-0.8283,-0.9118,-0.9414,-0.9862,-1.0703,-1.1292,-1.1683,-1.1927,-1.2467,-1.2813,-1.2813,-1.2813,-1.2813,-1.2813,-1.2813,-1.2813,-1.2813,-1.2224,-1.198,-1.1927,-1.1394,-1.1096,-0.3404,-0.3674,0.0,-0.4126,-0.4412,-0.4706,-0.4898,0.0,0.0,0.0,0.0,0.0,0.0,0.0,0.0,0.0,0.0,0.0,0.0,0.0,0.0,0.0,0.0,0.0,0.0,0.0,0.0,0.0,0.0,0.0,0.0,0.0,0.0,0.0,0.0,0.0,0.0,0.0,0.0,0.0,0.0,0.0,0.0,-0.0569,-0.1302,-0.2185,-0.347,-0.4536,-0.5382,-0.5382,-0.5382,-0.5382,-0.5382,-0.5382,-0.5382,-0.5382,-0.5603,-0.5933,-0.5933,-0.6156,-0.6546,-0.6765,-0.6821,-0.6874,-0.7154,-0.7432,-0.7639,-0.7558,-0.7774,-0.7952,-0.7737,-0.764,-0.7667,-0.7925,-0.7988,-0.7988,-0.7988,-0.7988,-0.7988,-0.7988,-0.7988,-0.7988,-0.7988,-0.7988,-0.7988,-0.7988,-0.7988,-0.7988,-0.7988,-0.7988,-0.8187,-0.8676,-0.8726,-0.9072,-0.9862,-1.0355,-1.0944,-1.1536,-1.2078,-1.2467,-1.2813,-1.2813,-1.2813,-1.2813,-1.2467,-1.2322,-1.2322,-1.1536,-1.1096,-1.1096,-1.0605,-1.0413,-0.3744,0.0,0.0,-0.455,-0.4637,0.0,-0.502,0.0,0.0,0.0,0.0,0.0,0.0,0.0,0.0,0.0,0.0,0.0,0.0,0.0,0.0,0.0,0.0,0.0,0.0,0.0,0.0,0.0,0.0,0.0,0.0,0.0,0.0,0.0,0.0,0.0,0.0,0.0,0.0,0.0,0.0,0.0,0.0,0.0,-0.0505,-0.1514,-0.3248,-0.4536,-0.5382,-0.5382,-0.5382,-0.5382,-0.5382,-0.5382,-0.5382,-0.5382,-0.5382,-0.5382,-0.5382,-0.5382,-0.5491,-0.6042,-0.6209,-0.632,-0.6877,-0.7099,-0.7099,-0.7099,-0.701,-0.6888,-0.6831,-0.6711,-0.6845,-0.7672,-0.7889,-0.7939,-0.7988,-0.7988,-0.7988,-0.7988,-0.7988,-0.7988,-0.7988,-0.7988,-0.7988,-0.7988,-0.7988,-0.7988,-0.7988,-0.7988,-0.7988,-0.7988,-0.7988,-0.8287,-0.9019,-0.9167,-0.9858,-1.1389,-1.1536,-1.1932,-1.2662,-1.2764,-1.2764,-1.2716,-1.198,-1.1536,-1.1487,-1.0703,-1.031,-1.031,-1.0216,-1.0167,-0.3628,-0.3857,0.0,0.0,-0.4779,-0.4957,0.0,0.0,0.0,0.0,0.0,0.0,0.0,0.0,0.0,0.0,0.0,0.0,0.0,0.0,0.0,0.0,0.0,0.0,0.0,0.0,0.0,0.0,0.0,0.0,0.0,0.0,0.0,0.0,0.0,0.0,0.0,0.0,0.0,0.0,0.0,0.0,0.0,0.0,-0.0897,-0.2465,-0.3527,-0.4536,-0.5382,-0.5382,-0.5382,-0.5382,-0.5382,-0.5382,-0.5382,-0.5382,-0.5382,-0.5382,-0.5382,-0.5382,-0.5437,-0.5547,-0.5603,-0.5603,-0.577,-0.61,-0.6485,-0.6485,-0.6735,-0.6945,-0.6831,-0.6763,-0.6691,-0.6718,-0.7089,-0.7487,-0.7889,-0.7988,-0.7988,-0.7988,-0.7988,-0.7988,-0.7988,-0.7988,-0.7988,-0.7988,-0.7988,-0.7988,-0.7988,-0.7988,-0.7988,-0.7988,-0.7988,-0.8088,-0.8237,-0.8825,-0.9612,-1.0609,-1.1243,-1.1683,-1.1834,-1.2467,-1.2516,-1.1878,-1.1688,-1.1292,-1.0659,-0.9862,-0.9464,-0.9464,-0.8829,-0.8535,-0.3547,0.0,0.0,-0.4598,0.0,0.0,0.0,0.0,0.0,0.0,0.0,0.0,0.0,0.0,0.0,0.0,0.0,0.0,0.0,0.0,0.0,0.0,0.0,0.0,0.0,0.0,0.0,0.0,0.0,0.0,0.0,0.0,0.0,0.0,0.0,0.0,0.0,0.0,0.0,0.0,0.0,0.0,0.0,0.0,-0.0729,-0.2073,-0.252,-0.3473,-0.4706,-0.4706,-0.4987,-0.5382,-0.5382,-0.5382,-0.5382,-0.5382,-0.5382,-0.5382,-0.5382,-0.5098,-0.4706,-0.4706,-0.4424,-0.4089,-0.4089,-0.459,-0.5202,-0.5202,-0.5636,-0.6138,-0.6035,-0.5929,-0.5923,-0.6012,-0.6437,-0.6886,-0.7185,-0.7437,-0.764,-0.764,-0.7839,-0.7988,-0.7988,-0.7789,-0.769,-0.7939,-0.7789,-0.769,-0.7988,-0.7988,-0.7988,-0.7988,-0.7988,-0.7988,-0.7988,-0.8382,-0.8973,-0.9764,-1.0207,-1.06,-1.0998,-1.1438,-1.1438,-1.1047,-1.1047,-1.0654,-0.9813,-0.9023,-0.8627,-0.8627,-0.8187,-0.7988,-0.3393,0.0,-0.4293,-0.471,-0.4774,0.0,0.0,0.0,0.0,0.0,0.0,0.0,0.0,0.0,0.0,0.0,0.0,0.0,0.0,0.0,0.0,0.0,0.0,0.0,0.0,0.0,0.0,0.0,0.0,0.0,0.0,0.0,0.0,0.0,0.0,0.0,0.0,0.0,0.0,0.0,0.0,0.0,0.0,0.0,-0.0502,-0.129,-0.129,-0.2238,-0.3789,-0.3802,-0.4305,-0.5135,-0.515,-0.5268,-0.5382,-0.5382,-0.5324,-0.5156,-0.5156,-0.4536,-0.3751,-0.3751,-0.3302,-0.2688,-0.2688,-0.3192,-0.3804,-0.3961,-0.4462,-0.4984,-0.5055,-0.5016,-0.5031,-0.5404,-0.5784,-0.6187,-0.6334,-0.6736,-0.7039,-0.7039,-0.7437,-0.7736,-0.7736,-0.7338,-0.7238,-0.7637,-0.7437,-0.7338,-0.7789,-0.7939,-0.7988,-0.7988,-0.7988,-0.7988,-0.7988,-0.7988,-0.8333,-0.9167,-0.9217,-0.9513,-1.0162,-1.031,-1.0265,-0.9969,-1.0113,-0.9813,-0.897,-0.8333,-0.7988,-0.7988,-0.7988,-0.7988,0.0,0.0,-0.4353,0.0,0.0,0.0,0.0,0.0,0.0,0.0,0.0,0.0,0.0,0.0,0.0,0.0,0.0,0.0,0.0,0.0,0.0,0.0,0.0,0.0,0.0,0.0,0.0,0.0,0.0,0.0,0.0,0.0,0.0751,0.0697,0.0268,0.0,0.0,0.0,0.0,0.0,0.0,0.0,0.0,0.0,-0.0491,-0.129,-0.129,-0.1889,-0.2851,-0.2894,-0.3386,-0.4168,-0.4174,-0.4704,-0.5382,-0.5382,-0.4873,-0.4198,-0.4198,-0.3583,-0.2856,-0.2856,-0.28,-0.2688,-0.2688,-0.28,-0.3015,-0.3743,-0.3952,-0.415,-0.4856,-0.4922,-0.4849,-0.4889,-0.4985,-0.5286,-0.6187,-0.6437,-0.6487,-0.6487,-0.6587,-0.6637,-0.6637,-0.6537,-0.6537,-0.6587,-0.6936,-0.7238,-0.7288,-0.769,-0.7988,-0.7988,-0.7988,-0.7988,-0.7988,-0.7988,-0.8333,-0.9167,-0.9217,-0.9266,-0.9365,-1.0015,-0.9719,-0.8336,-0.9023,-0.8973,-0.8137,-0.8038,-0.7988,-0.7988,-0.7988,-0.7988,-0.2668,-0.3339,-0.393,0.0,0.0,0.0,0.0,0.0,0.0,0.0,0.0,0.0,0.0,0.0,0.0,0.0,0.0,0.0,0.0,0.0,0.0,0.0,0.0,0.0,0.0,0.0,0.0,0.0,0.0,0.0,0.0,0.1171,0.0852,0.0799,0.0264,0.0,0.0,0.0,0.0,0.0,0.0,0.0,0.0,0.0,-0.0215,-0.0545,-0.0545,-0.1092,-0.1913,-0.1928,-0.2433,-0.3268,-0.3294,-0.3529,-0.3866,-0.3866,-0.364,-0.3248,-0.3248,-0.2688,-0.1905,-0.1905,-0.1569,-0.1175,-0.1165,-0.1548,-0.1982,-0.2327,-0.3083,-0.3873,-0.4257,-0.4546,-0.4784,-0.4784,-0.4784,-0.4935,-0.5384,-0.5734,-0.6034,-0.6337,-0.6387,-0.6387,-0.6387,-0.6137,-0.6034,-0.6337,-0.6337,-0.6437,-0.6736,-0.7238,-0.754,-0.754,-0.7839,-0.7988,-0.7988,-0.7736,-0.7686,-0.8077,-0.7779,-0.7627,-0.7627,-0.8276,-0.828,-0.7587,-0.8623,-0.8825,-0.7988,-0.7988,-0.7988,-0.7988,-0.7988,-0.7988,0.0,0.0,0.0,0.0,0.0,0.0,0.0,0.0,0.0,0.0,0.0,0.0,0.0,0.0,0.0,0.0,0.0,0.0,0.0,0.0,0.0,0.0,0.0,0.0,0.0,0.0,0.0,0.0,0.0,0.0,0.1628,0.1156,0.0841,0.0788,0.0259,0.0,0.0,0.0,0.0,0.0,0.0,0.0,0.0,0.0,0.0,0.0,0.0,-0.0375,-0.0972,-0.0976,-0.1528,-0.2365,-0.233,-0.2504,-0.2673,-0.2684,-0.2576,-0.2353,-0.2353,-0.1737,-0.0953,-0.0949,-0.0557,0.0,0.0,-0.0435,-0.1029,-0.1222,-0.2304,-0.3468,-0.3708,-0.4277,-0.4784,-0.4784,-0.4784,-0.4784,-0.4784,-0.5135,-0.5534,-0.5934,-0.5984,-0.5984,-0.5984,-0.5684,-0.5536,-0.5937,-0.5787,-0.5734,-0.6134,-0.6686,-0.6989,-0.6989,-0.7338,-0.7587,-0.7587,-0.7238,-0.6989,-0.6989,-0.6637,-0.6387,-0.6387,-0.6786,-0.7039,-0.7188,-0.8177,-0.8478,-0.7988,-0.7988,-0.7988,-0.7988,-0.7988,-0.7988,0.0,0.0,0.0,0.0,0.0,0.0,0.0,0.0,0.0,0.0,0.0,0.0,0.0,0.0,0.0,0.0,0.0,0.0,0.0,0.0,0.0,0.0,0.0,0.0,0.0,0.0,0.0,0.0,0.0,0.0,0.1568,0.1114,0.0811,0.0811,0.0304,0.0,0.0,0.0,0.0,0.0,0.0,0.0,0.0,0.0,0.0,0.0,0.0,0.0,-0.0052,-0.0053,-0.0581,-0.1358,-0.1351,-0.1914,-0.2684,-0.2673,-0.2129,-0.1346,-0.1346,-0.0785,-0.0056,-0.0055,-0.0055,0.0,0.0,-0.0053,-0.0213,-0.0991,-0.1815,-0.2634,-0.3397,-0.4183,-0.4784,-0.4784,-0.4784,-0.4784,-0.4784,-0.4834,-0.4834,-0.4885,-0.4885,-0.4885,-0.4885,-0.4885,-0.4834,-0.4885,-0.5286,-0.5586,-0.5636,-0.6087,-0.6437,-0.6437,-0.6487,-0.6487,-0.6487,-0.6437,-0.6437,-0.6437,-0.6437,-0.6387,-0.6387,-0.6437,-0.6686,-0.7188,-0.7288,-0.7537,-0.7988,-0.7988,-0.7988,-0.7988,-0.7988,-0.7988,0.0,0.0,0.0,0.0,0.0,0.0,0.0,0.0,0.0,0.0,0.0,0.0,0.0,0.0,0.0,0.0,0.0,0.0,0.0,0.0,0.0,0.0,0.0,0.0,0.0,0.0,0.0,0.0,0.0,0.0,0.106,0.0555,0.0455,0.0808,0.0303,0.0,0.0,0.0,0.0,0.0,0.0,0.0,0.0,0.0,0.0,0.0,0.0,0.0,0.0,0.0,-0.0158,-0.0476,-0.0482,-0.0646,-0.097,-0.0987,-0.0773,-0.0442,-0.0447,-0.0278,0.0,0.0,0.0,0.0,0.0,0.0,-0.0052,-0.0359,-0.1376,-0.2442,-0.2778,-0.3828,-0.4784,-0.4784,-0.4784,-0.4784,-0.4784,-0.4784,-0.4784,-0.4784,-0.4784,-0.4784,-0.4784,-0.4784,-0.4784,-0.4784,-0.4985,-0.5085,-0.5085,-0.5536,-0.5884,-0.5884,-0.6187,-0.6387,-0.6387,-0.6087,-0.5884,-0.5884,-0.5584,-0.5386,-0.5386,-0.5687,-0.5984,-0.6187,-0.6487,-0.7138,-0.7988,-0.7988,-0.7988,-0.7988,-0.7988,-0.7988,0.0611,0.0,0.0,0.0,0.0,0.0,0.0,0.0,0.0,0.0,0.0,0.0,0.0,0.0,0.0,0.0,0.0,0.0,0.0,0.0,0.0,0.0,0.0,0.0,0.0,0.0,0.0,0.0,0.0,0.0,0.0505,0.0354,0.0505,0.106,0.0555,0.0253,0.0253,0.0101,0.0,0.0,0.0,0.0,0.0,0.0,0.0,0.0,0.0,0.0,0.0,0.0,0.0,0.0,0.0,0.0,0.0,0.0,0.0,0.0,0.0,0.0,0.0,0.0,0.0,0.0,0.0,0.0,0.0,0.0,-0.0959,-0.2068,-0.232,-0.3577,-0.4784,-0.4784,-0.4784,-0.4784,-0.4784,-0.4784,-0.4784,-0.4784,-0.4784,-0.4784,-0.4784,-0.4784,-0.4784,-0.4784,-0.4784,-0.4784,-0.4784,-0.5135,-0.5334,-0.5334,-0.5634,-0.5887,-0.5887,-0.5536,-0.5334,-0.5334,-0.4985,-0.4784,-0.4784,-0.5135,-0.5434,-0.5584,-0.5937,-0.6587,-0.7437,-0.7637,-0.7839,-0.7988,-0.7988,-0.7988,0.0,0.0,0.0,0.0,0.0,0.0,0.0,0.0,0.0,0.0,0.0,0.0,0.0,0.0,0.0,0.0,0.0,0.0,0.0,0.0,0.0,0.0,0.0,0.0,0.0,0.0,0.0,0.0,0.0,0.0,0.0,0.0556,0.106,0.1563,0.106,0.0808,0.0808,0.0253,0.0,0.0,0.0,0.0,0.0,0.0,0.0,0.0,0.0,0.0,0.0,0.0,0.0,0.0,0.0,0.0,0.0,0.0,0.0,0.0,0.0,0.0,0.0,0.0,0.0,0.0,0.0,0.0,0.0,0.0,-0.0555,-0.1412,-0.2219,-0.3629,-0.4784,-0.4784,-0.4784,-0.4784,-0.4784,-0.4784,-0.4784,-0.4784,-0.4784,-0.4784,-0.4784,-0.4784,-0.4784,-0.4784,-0.4784,-0.4784,-0.4784,-0.4784,-0.4784,-0.4784,-0.4784,-0.4784,-0.4784,-0.4784,-0.4784,-0.4784,-0.4784,-0.4784,-0.4784,-0.4784,-0.5035,-0.5584,-0.5584,-0.5837,-0.6387,-0.6936,-0.7487,-0.7988,-0.7988,-0.7988,0.1938,0.0,0.0,0.0,0.0,0.0,0.0,0.0,0.0,0.0,0.0,0.0,0.0,0.0,0.0,0.0,0.0,0.0,0.0,0.0,0.0,0.0,0.0,0.0,0.0,0.0,0.0,0.0,0.0,0.0152,0.0556,0.111,0.1463,0.1613,0.106,0.0808,0.0808,0.0253,0.0,0.0,0.0,0.0,0.0,0.0,0.0,0.0,0.0,0.0,0.0,0.0,0.0,0.0,0.0,0.0,0.0,0.0,0.0,0.0,0.0,0.0,0.0,0.0,0.0,0.0,0.0,0.0,0.0,0.0,-0.0555,-0.1512,-0.2923,-0.4029,-0.4784,-0.4784,-0.4784,-0.4784,-0.4784,-0.4784,-0.4784,-0.4784,-0.4784,-0.4784,-0.4784,-0.4784,-0.4784,-0.4784,-0.4784,-0.4784,-0.4784,-0.4784,-0.4784,-0.4784,-0.4784,-0.4784,-0.4784,-0.4784,-0.4784,-0.4784,-0.4784,-0.4784,-0.4784,-0.4784,-0.4885,-0.5035,-0.5035,-0.5286,-0.5834,-0.6736,-0.7288,-0.7437,-0.7839,-0.7988,0.0,0.0,0.0,0.0,0.0,0.0,0.0,0.0,0.0,0.0,0.0,0.0,0.0,0.0,0.0,0.0,0.0,0.0,0.0,0.0,0.0,0.0,0.0,0.0,0.0,0.0,0.0,0.0,0.0555,0.0908,0.1464,0.1765,0.1917,0.1917,0.1413,0.101,0.0808,0.0253,0.0,0.0,0.0,0.0,0.0,0.0,0.0,0.0,0.0,0.0,0.0,0.0,0.0,0.0,0.0,0.0,0.0,0.0,0.0,0.0,0.0,0.0,0.0,0.0,0.0,0.0,0.0,0.0,0.0,0.0,-0.0555,-0.1512,-0.2772,-0.3677,-0.4381,-0.4734,-0.4784,-0.4784,-0.4784,-0.4784,-0.4784,-0.4784,-0.4784,-0.4784,-0.4784,-0.4784,-0.4784,-0.4784,-0.4784,-0.4784,-0.4784,-0.4784,-0.4784,-0.4784,-0.4784,-0.4784,-0.4784,-0.4784,-0.4784,-0.4784,-0.4784,-0.4784,-0.4784,-0.4784,-0.4784,-0.4784,-0.4784,-0.5085,-0.5586,-0.6237,-0.6637,-0.6886,-0.7437,-0.769,0.0,0.0,0.0,0.0,0.0,0.0,0.0,0.1865,0.0,0.0,0.0,0.0,0.0,0.0,0.0,0.0,0.0,0.0,0.0,0.0,0.0,0.0,0.0,0.0,0.0,0.0,0.0,0.0909,0.1463,0.2017,0.2521,0.2672,0.2672,0.2521,0.2017,0.1412,0.0808,0.0253,0.0,0.0,0.0,0.0,0.0,0.0,0.0,0.0,0.0,0.0,0.0,0.0,0.0,0.0,0.0,0.0,0.0,0.0,0.0,0.0,0.0,0.0,0.0,0.0,0.0,0.0,0.0,0.0,0.0,0.0,-0.0555,-0.1361,-0.2068,-0.2924,-0.3778,-0.4483,-0.4734,-0.4784,-0.4784,-0.4784,-0.4784,-0.4784,-0.4784,-0.4784,-0.4784,-0.4784,-0.4784,-0.4784,-0.4784,-0.4784,-0.4784,-0.4784,-0.4784,-0.4784,-0.4784,-0.4784,-0.4784,-0.4784,-0.4784,-0.4784,-0.4784,-0.4784,-0.4784,-0.4784,-0.4784,-0.4784,-0.4784,-0.5035,-0.5534,-0.5584,-0.5887,-0.6437,-0.6936,-0.7188,0.0,0.0,0.0,0.0,0.0,0.0,0.0,0.1964,0.0,0.0,0.0,0.0,0.0,0.0,0.0,0.0,0.0,0.0,0.0,0.0,0.0,0.0,0.0,0.0,0.0,0.0,0.1391,0.1461,0.252,0.3275,0.3377,0.4381,0.4481,0.3377,0.2821,0.2017,0.0808,0.0253,0.0,0.0,0.0,0.0,0.0,0.0,0.0,0.0,0.0,0.0,0.0,0.0,0.0,0.0,0.0,0.0,0.0,0.0,0.0,0.0,0.0,0.0,0.0,0.0,0.0,0.0,0.0,0.0,0.0,0.0,-0.0555,-0.126,-0.1412,-0.2519,-0.3629,-0.3778,-0.4332,-0.4784,-0.4784,-0.4784,-0.4784,-0.4784,-0.4784,-0.4784,-0.4784,-0.4784,-0.4784,-0.4784,-0.4784,-0.4784,-0.4784,-0.4784,-0.4784,-0.4784,-0.4784,-0.4784,-0.4784,-0.4784,-0.4784,-0.4784,-0.4784,-0.4784,-0.4784,-0.4784,-0.4784,-0.4784,-0.4784,-0.4834,-0.4935,-0.5386,-0.5887,-0.6437,-0.6936,-0.7188,0.0,0.0,0.0,0.3823,0.0,0.0,0.0,0.0,0.0,0.0,0.0,0.0,0.0,0.0,0.0,0.0,0.0,0.0,0.0,0.0,0.0,0.0,0.0,0.0,0.0,0.0,0.1998,0.2334,0.3081,0.3692,0.3977,0.5033,0.4983,0.3629,0.3325,0.2569,0.1211,0.0908,0.0807,0.0807,0.0505,0.0404,0.0404,0.0101,0.0,0.0,0.0,0.0,0.0,0.0,0.0,0.0,0.0,0.0,0.0,0.0,0.0,0.0,0.0,0.0,0.0,0.0,0.0,0.0,0.0,0.0,0.0,0.0,-0.0303,-0.0706,-0.1109,-0.1814,-0.262,-0.3426,-0.3929,-0.4332,-0.4734,-0.4784,-0.4784,-0.4784,-0.4784,-0.4784,-0.4784,-0.4784,-0.4784,-0.4784,-0.4784,-0.4784,-0.4784,-0.4784,-0.4784,-0.4784,-0.4784,-0.4784,-0.4784,-0.4784,-0.4784,-0.4784,-0.4784,-0.4784,-0.4784,-0.4784,-0.4784,-0.4784,-0.4784,-0.4784,-0.4784,-0.5085,-0.5334,-0.5636,-0.6137,-0.6387,0.0,0.0,0.0,0.0,0.0,0.3365,0.0,0.0,0.0,0.0,0.0,0.0,0.0,0.0,0.0,0.0,0.0,0.0,0.0,0.0,0.0,0.0,0.0,0.0,0.0,0.0,0.2594,0.326,0.3615,0.4123,0.4798,0.5603,0.5363,0.3877,0.3827,0.3123,0.1613,0.1613,0.1613,0.1613,0.1161,0.0959,0.0959,0.0505,0.0303,0.0303,0.0303,0.0303,0.0303,0.0202,0.0202,0.0303,0.0101,0.0,0.0,0.0,0.0,0.0,0.0,0.0,0.0,0.0,0.0,0.0,0.0,0.0,0.0,0.0,0.0,-0.0151,-0.0807,-0.1109,-0.1512,-0.2821,-0.3275,-0.3577,-0.4381,-0.4583,-0.4634,-0.4784,-0.4784,-0.4784,-0.4784,-0.4784,-0.4784,-0.4784,-0.4784,-0.4784,-0.4784,-0.4684,-0.4583,-0.4583,-0.4583,-0.4583,-0.4583,-0.4734,-0.4784,-0.4784,-0.4784,-0.4784,-0.4784,-0.4784,-0.4784,-0.4784,-0.4784,-0.4784,-0.4784,-0.4784,-0.4784,-0.4834,-0.5336,-0.5586,0.0,0.0,0.0,0.0,0.4727,0.0,0.0,0.0,0.0,0.0,0.0,0.0,0.0,0.0,0.0,0.0,0.0,0.0,0.0,0.0,0.0,0.0,0.0,0.0,0.0,0.0,0.0,0.3896,0.4585,0.5317,0.6306,0.7106,0.6663,0.4722,0.4674,0.3671,0.1613,0.1613,0.1613,0.1613,0.1563,0.1513,0.1513,0.1462,0.1412,0.1412,0.1412,0.1412,0.1362,0.0909,0.1009,0.1311,0.0353,0.0,0.0,0.0,0.0,0.0,0.0,0.0,0.0,0.0,0.0,0.0,0.0,0.0,0.0,0.0,0.0,0.0,-0.0101,-0.0656,-0.126,-0.1411,-0.2017,-0.2773,-0.3577,-0.3729,-0.3929,-0.4684,-0.4784,-0.4784,-0.4784,-0.4784,-0.4784,-0.4784,-0.4784,-0.4784,-0.4784,-0.418,-0.3729,-0.3729,-0.3729,-0.3729,-0.3729,-0.4381,-0.4784,-0.4784,-0.4784,-0.4784,-0.4784,-0.4784,-0.4784,-0.4784,-0.4784,-0.4784,-0.4784,-0.4784,-0.4784,-0.4834,-0.5336,-0.5586,0.0,0.0,0.0,0.0,0.0,0.0,0.0,0.0,0.3266,0.0,0.0,0.0,0.0,0.0,0.0,0.0,0.0,0.0,0.0,0.0,0.0,0.0,0.0,0.0,0.0,0.0,0.0,0.0,0.0,0.5441,0.6307,0.7283,0.7204,0.5883,0.5449,0.4628,0.3222,0.2773,0.2522,0.2522,0.2671,0.2772,0.2772,0.2418,0.2317,0.2266,0.1814,0.1613,0.1563,0.1362,0.1412,0.1563,0.111,0.0757,0.0404,0.0101,0.0,0.0,0.0,0.0,0.0,0.0,0.0,0.0,0.0,0.0,0.0,0.0,0.0,0.0,0.0,-0.0252,-0.0605,-0.1109,-0.1462,-0.1916,-0.2723,-0.2924,-0.3126,-0.3929,-0.3729,-0.3577,-0.4029,-0.4483,-0.4784,-0.4784,-0.4381,-0.4081,-0.4081,-0.3377,-0.2924,-0.2924,-0.2924,-0.2924,-0.2924,-0.3629,-0.4081,-0.4081,-0.4533,-0.4784,-0.4784,-0.4784,-0.4784,-0.4784,-0.4784,-0.4784,-0.4784,-0.4784,-0.4784,-0.4784,-0.5035,-0.5135,0.7168,0.0,0.0,0.0,0.0,0.0,0.0,0.0,0.0,0.0,0.0,0.0,0.0,0.0,0.0,0.0,0.0,0.0,0.0,0.0,0.0,0.0,0.0,0.0,0.0,0.0,0.0,0.0,0.0,0.0,0.6406,0.718,0.7301,0.6597,0.6145,0.5506,0.473,0.4131,0.3883,0.3883,0.4031,0.413,0.413,0.3524,0.3222,0.3172,0.2369,0.2017,0.2017,0.1865,0.1916,0.2017,0.1714,0.1463,0.1161,0.0656,0.0454,0.0454,0.0454,0.0454,0.0404,0.0252,0.0303,0.0404,0.0101,0.0101,0.0202,0.0051,0.0,0.0,0.0,0.0,-0.0151,-0.0757,-0.0857,-0.1109,-0.1916,-0.2068,-0.232,-0.3126,-0.2823,-0.2572,-0.3176,-0.378,-0.413,-0.413,-0.3629,-0.3277,-0.3277,-0.2572,-0.2068,-0.2068,-0.2068,-0.2068,-0.2068,-0.2823,-0.3377,-0.3577,-0.4332,-0.4784,-0.4784,-0.4784,-0.4784,-0.4784,-0.4784,-0.4784,-0.4784,-0.4784,-0.4784,-0.4784,-0.4784,-0.4784,0.0,0.0,0.0,0.0,0.0,0.0,0.0,0.0,0.4778,0.0,0.0,0.0,0.0,0.0,0.0,0.0,0.0,0.0,0.0,0.0,0.0,0.0,0.0,0.0,0.0,0.0,0.0,0.0,0.0,0.0,0.696,0.7112,0.695,0.6589,0.6557,0.6222,0.5584,0.5536,0.5536,0.5536,0.5536,0.5536,0.5484,0.473,0.4329,0.4329,0.3479,0.313,0.313,0.2573,0.2674,0.3029,0.2017,0.1916,0.2269,0.1765,0.1563,0.1563,0.1563,0.1563,0.1462,0.0959,0.111,0.1361,0.0303,0.0354,0.0657,0.0152,0.0,0.0,0.0,0.0,0.0,-0.0051,-0.0051,-0.0252,-0.1059,-0.126,-0.1462,-0.2269,-0.2422,-0.2422,-0.2422,-0.2472,-0.2471,-0.2471,-0.2472,-0.2422,-0.2422,-0.1714,-0.126,-0.126,-0.126,-0.126,-0.126,-0.1967,-0.2773,-0.3527,-0.4332,-0.4784,-0.4784,-0.4784,-0.4784,-0.4784,-0.4784,-0.4784,-0.4784,-0.4784,-0.4784,-0.4784,-0.4784,-0.4784,0.0,0.0,0.8798,0.7908,0.0,0.0,0.0,0.0,0.0,0.0,0.0,0.0,0.0,0.0,0.0,0.0,0.0,0.0,0.0,0.0,0.0,0.0,0.0,0.0,0.0,0.0,0.0,0.0,0.0,0.0,0.0,0.6926,0.7032,0.695,0.6706,0.6474,0.6271,0.58,0.5586,0.5586,0.6132,0.6381,0.6381,0.5582,0.5183,0.5133,0.3781,0.318,0.318,0.3027,0.3029,0.318,0.2826,0.2775,0.2826,0.1917,0.1613,0.1613,0.1613,0.1613,0.1563,0.1412,0.1463,0.1513,0.116,0.1211,0.1312,0.111,0.0808,0.0505,0.0505,0.0253,0.0,0.0,0.0,-0.005,-0.0353,-0.0404,-0.0656,-0.1462,-0.116,-0.0959,-0.1513,-0.116,-0.1161,-0.222,-0.1967,-0.1613,-0.1613,-0.0908,-0.0404,-0.0404,-0.0404,-0.0404,-0.0404,-0.116,-0.2168,-0.3527,-0.388,-0.4232,-0.4784,-0.4784,-0.4784,-0.4784,-0.4784,-0.4784,-0.4784,-0.4784,-0.4784,-0.4784,-0.4784,-0.4784,1.1056,1.0524,0.0,0.0,0.8407,0.0,0.0,0.0,0.0,0.0,0.0,0.0,0.0,0.0,0.0,0.0,0.0,0.0,0.0,0.0,0.0,0.0,0.0,0.0,0.0,0.0,0.2743,0.3896,0.0,0.0,0.0,0.0,0.6987,0.7092,0.6966,0.6942,0.7036,0.6579,0.6393,0.6437,0.6983,0.7232,0.7182,0.6384,0.5884,0.5536,0.4182,0.3481,0.318,0.318,0.318,0.318,0.318,0.318,0.313,0.2422,0.2169,0.2169,0.2169,0.2169,0.2118,0.1967,0.2017,0.2118,0.1714,0.1714,0.1865,0.1664,0.1362,0.106,0.106,0.0707,0.0303,0.0303,0.0152,0.0,0.0,0.0,-0.0151,-0.0656,-0.0353,-0.0151,-0.0706,-0.0353,-0.0353,-0.1413,-0.111,-0.0757,-0.0757,-0.0303,0.0,0.0,0.0,0.0,0.0,-0.0757,-0.1663,-0.267,-0.3275,-0.3828,-0.4332,-0.4634,-0.4784,-0.4784,-0.4784,-0.4784,-0.4784,-0.4784,-0.4784,-0.4784,-0.4784,-0.4784]}]]